[[{"header":{"parameterUnit":"m.s-1","parameterCategory":1,"la1":30.6,"la2":29.2853,"lo1":-89.7004,"lo2":-87.6739,"dy":0.0162,"dx":0.0183,"nx":112,"ny":82,"refTime":"2024-04-27T06:00:00:Z","depth":0,"parameterNumber":2,"parameterNumberName":"U-component_of_WINDS"},"data":[0.0,0.0,0.0,0.0,0.0,0.0,0.0,0.0,0.0,0.0,0.0,0.0,0.0,0.0,0.0,0.0,0.0,0.0,0.0,0.0,0.0,0.0,0.0,0.0,0.0,0.0,0.0,0.0,0.0,0.0,0.0,0.0,0.0,0.0,0.0,0.0,0.0,0.0,0.0,0.0,0.0,0.0,0.0,0.0,0.0,0.0,0.0,0.0,0.0,0.0,0.0,0.0,0.0,0.0,0.0,0.0,0.0,0.0,0.0,0.0,0.0,0.0,0.0,0.0,0.0,0.0,0.0,0.0,0.0,0.0,0.0,0.0,0.0,0.0,0.0,0.0,0.0,0.0,0.0,0.0,0.0,0.0,0.0,0.0,0.0,0.0,0.0,0.0,0.0,0.0,0.0,-1.4381,-1.4332,-1.4157,-1.3815,-1.3698,-1.3497,-1.3215,0.0,0.0,0.0,0.0,0.0,0.0,0.0,0.0,0.0,0.0,0.0,0.0,0.0,0.0,0.0,0.0,0.0,0.0,0.0,0.0,0.0,0.0,0.0,0.0,0.0,0.0,0.0,0.0,0.0,0.0,0.0,0.0,0.0,0.0,0.0,0.0,0.0,0.0,0.0,0.0,0.0,0.0,0.0,0.0,0.0,0.0,0.0,0.0,0.0,0.0,0.0,0.0,0.0,0.0,0.0,0.0,0.0,0.0,0.0,0.0,0.0,0.0,0.0,0.0,0.0,0.0,0.0,0.0,0.0,0.0,0.0,0.0,0.0,0.0,0.0,0.0,0.0,0.0,0.0,0.0,0.0,0.0,0.0,0.0,0.0,0.0,0.0,0.0,0.0,0.0,0.0,0.0,0.0,0.0,0.0,0.0,0.0,0.0,0.0,0.0,0.0,0.0,0.0,0.0,-1.4029,-1.4667,-1.4477,-1.4284,-1.4206,-1.3644,-1.325,-1.3198,0.0,0.0,0.0,0.0,0.0,0.0,0.0,0.0,0.0,0.0,0.0,0.0,0.0,0.0,0.0,0.0,0.0,0.0,0.0,0.0,0.0,0.0,0.0,0.0,0.0,0.0,0.0,0.0,0.0,0.0,0.0,0.0,0.0,0.0,0.0,0.0,0.0,0.0,0.0,0.0,0.0,0.0,0.0,0.0,0.0,0.0,0.0,0.0,0.0,0.0,0.0,0.0,0.0,0.0,0.0,0.0,0.0,0.0,0.0,0.0,0.0,0.0,0.0,0.0,0.0,0.0,0.0,0.0,0.0,0.0,0.0,0.0,0.0,0.0,0.0,0.0,0.0,0.0,0.0,0.0,0.0,0.0,0.0,0.0,0.0,0.0,0.0,0.0,0.0,0.0,0.0,0.0,0.0,0.0,0.0,0.0,0.0,0.0,0.0,0.0,0.0,0.0,0.0,-1.4337,-1.47,-1.504,-1.4932,-1.4699,-1.4332,-1.3993,-1.3611,-1.3163,-1.3146,0.0,0.0,0.0,0.0,0.0,0.0,0.0,0.0,0.0,0.0,0.0,0.0,0.0,0.0,0.0,0.0,0.0,0.0,0.0,0.0,0.0,0.0,0.0,0.0,0.0,0.0,0.0,0.0,0.0,0.0,0.0,0.0,0.0,0.0,0.0,0.0,0.0,0.0,0.0,0.0,0.0,0.0,0.0,0.0,0.0,0.0,0.0,0.0,0.0,0.0,0.0,0.0,0.0,0.0,0.0,0.0,0.0,0.0,0.0,0.0,0.0,0.0,0.0,0.0,0.0,0.0,0.0,0.0,0.0,0.0,0.0,0.0,0.0,0.0,0.0,0.0,0.0,0.0,0.0,0.0,0.0,0.0,0.0,0.0,0.0,0.0,0.0,0.0,0.0,0.0,0.0,0.0,0.0,0.0,0.0,0.0,0.0,0.0,0.0,0.0,0.0,0.0,-1.4932,-1.5298,-1.5298,-1.5237,-1.4948,-1.4349,-1.4206,-1.3861,-1.3141,-1.3107,0.0,0.0,0.0,0.0,0.0,0.0,0.0,0.0,0.0,0.0,0.0,0.0,0.0,0.0,0.0,0.0,0.0,0.0,0.0,0.0,0.0,0.0,0.0,0.0,0.0,0.0,0.0,0.0,0.0,0.0,0.0,0.0,0.0,0.0,0.0,0.0,0.0,0.0,0.0,0.0,0.0,0.0,0.0,0.0,0.0,0.0,0.0,0.0,0.0,0.0,0.0,0.0,0.0,0.0,0.0,0.0,0.0,0.0,0.0,0.0,0.0,0.0,0.0,0.0,0.0,0.0,0.0,0.0,0.0,0.0,0.0,0.0,0.0,0.0,0.0,0.0,0.0,0.0,0.0,0.0,0.0,0.0,0.0,0.0,0.0,0.0,0.0,0.0,0.0,0.0,0.0,0.0,0.0,0.0,0.0,0.0,0.0,0.0,0.0,0.0,0.0,0.0,-1.5071,-1.5298,-1.5298,-1.5025,-1.4699,-1.4332,-1.396,-1.356,-1.3141,-1.3107,0.0,0.0,0.0,0.0,0.0,0.0,0.0,0.0,0.0,0.0,0.0,0.0,0.0,0.0,0.0,0.0,0.0,0.0,0.0,0.0,0.0,0.0,0.0,0.0,0.0,0.0,0.0,0.0,0.0,0.0,0.0,0.0,0.0,0.0,0.0,0.0,0.0,0.0,0.0,0.0,0.0,0.0,0.0,0.0,0.0,0.0,0.0,0.0,0.0,0.0,0.0,0.0,0.0,0.0,0.0,0.0,0.0,0.0,0.0,0.0,0.0,0.0,0.0,0.0,0.0,0.0,0.0,0.0,0.0,0.0,0.0,0.0,0.0,0.0,0.0,0.0,0.0,0.0,0.0,0.0,0.0,0.0,0.0,0.0,0.0,0.0,0.0,0.0,0.0,0.0,0.0,0.0,0.0,0.0,0.0,0.0,0.0,0.0,0.0,0.0,0.0,0.0,-1.5086,-1.5298,0.0,-1.4994,-1.4667,-1.4332,-1.3931,-1.3531,-1.3141,0.0,0.0,0.0,0.0,0.0,0.0,0.0,0.0,0.0,0.0,0.0,0.0,0.0,0.0,0.0,0.0,0.0,0.0,0.0,0.0,0.0,0.0,0.0,0.0,0.0,0.0,0.0,0.0,0.0,0.0,0.0,0.0,0.0,0.0,0.0,0.0,0.0,0.0,0.0,0.0,0.0,0.0,0.0,0.0,0.0,0.0,0.0,0.0,0.0,0.0,0.0,0.0,0.0,0.0,0.0,0.0,0.0,0.0,0.0,0.0,0.0,0.0,0.0,0.0,0.0,0.0,0.0,0.0,0.0,0.0,0.0,0.0,0.0,0.0,0.0,0.0,0.0,0.0,0.0,0.0,0.0,0.0,0.0,0.0,0.0,0.0,0.0,0.0,0.0,0.0,0.0,0.0,0.0,0.0,0.0,0.0,0.0,0.0,0.0,0.0,0.0,0.0,-1.5535,-1.558,-1.566,0.0,-1.5517,-1.5107,-1.477,-1.4218,-1.3715,-1.3284,0.0,0.0,0.0,0.0,0.0,0.0,0.0,0.0,0.0,0.0,0.0,0.0,0.0,0.0,0.0,0.0,0.0,0.0,0.0,0.0,0.0,0.0,0.0,0.0,0.0,0.0,0.0,0.0,0.0,0.0,0.0,0.0,0.0,0.0,0.0,0.0,0.0,0.0,0.0,0.0,0.0,0.0,0.0,0.0,0.0,0.0,0.0,0.0,0.0,0.0,0.0,0.0,0.0,0.0,0.0,0.0,0.0,0.0,0.0,0.0,0.0,0.0,0.0,0.0,0.0,0.0,0.0,0.0,0.0,0.0,0.0,0.0,0.0,0.0,0.0,0.0,0.0,0.0,0.0,0.0,0.0,0.0,0.0,0.0,0.0,0.0,0.0,0.0,0.0,0.0,0.0,0.0,0.0,0.0,0.0,0.0,0.0,0.0,0.0,0.0,0.0,0.0,-1.699,-1.6634,-1.6474,-1.7142,-1.6588,-1.6069,-1.5745,-1.4855,-1.4121,0.0,0.0,0.0,0.0,0.0,0.0,0.0,0.0,0.0,0.0,0.0,0.0,0.0,0.0,0.0,0.0,0.0,0.0,0.0,0.0,0.0,0.0,0.0,0.0,0.0,0.0,0.0,0.0,0.0,0.0,0.0,0.0,0.0,0.0,0.0,0.0,0.0,0.0,0.0,0.0,0.0,0.0,0.0,0.0,0.0,0.0,0.0,0.0,0.0,0.0,0.0,0.0,0.0,0.0,0.0,0.0,0.0,0.0,0.0,0.0,0.0,0.0,0.0,0.0,0.0,0.0,0.0,0.0,0.0,0.0,0.0,0.0,0.0,0.0,0.0,0.0,0.0,0.0,0.0,0.0,0.0,0.0,0.0,0.0,0.0,0.0,0.0,0.0,0.0,0.0,0.0,0.0,0.0,0.0,0.0,0.0,0.0,0.0,0.0,0.0,0.0,0.0,0.0,-1.7139,-1.704,-1.6982,-1.7185,-1.6809,-1.6508,-1.6405,-1.5509,-1.4765,-1.4406,0.0,0.0,0.0,0.0,0.0,0.0,0.0,0.0,0.0,0.0,0.0,0.0,0.0,0.0,0.0,0.0,0.0,0.0,0.0,0.0,0.0,0.0,0.0,0.0,0.0,0.0,0.0,0.0,0.0,0.0,0.0,0.0,0.0,0.0,0.0,0.0,0.0,0.0,0.0,0.0,0.0,0.0,0.0,0.0,0.0,0.0,0.0,0.0,0.0,0.0,0.0,0.0,0.0,0.0,0.0,0.0,0.0,0.0,0.0,0.0,0.0,0.0,0.0,0.0,0.0,0.0,0.0,0.0,0.0,0.0,0.0,0.0,0.0,0.0,0.0,0.0,0.0,0.0,0.0,0.0,0.0,0.0,0.0,0.0,0.0,0.0,0.0,0.0,0.0,0.0,0.0,0.0,0.0,0.0,0.0,0.0,0.0,0.0,0.0,0.0,0.0,0.0,-1.7896,-1.7751,-1.7693,-1.794,-1.7561,-1.7295,-1.7295,-1.6372,-1.5634,-1.5247,0.0,0.0,0.0,0.0,0.0,0.0,0.0,0.0,0.0,0.0,0.0,0.0,0.0,0.0,0.0,0.0,0.0,0.0,0.0,0.0,0.0,0.0,0.0,0.0,0.0,0.0,0.0,0.0,0.0,0.0,0.0,0.0,0.0,0.0,0.0,0.0,0.0,0.0,0.0,0.0,0.0,0.0,0.0,0.0,0.0,0.0,0.0,0.0,0.0,0.0,0.0,0.0,0.0,0.0,0.0,0.0,0.0,0.0,0.0,0.0,0.0,0.0,0.0,0.0,0.0,0.0,0.0,0.0,0.0,0.0,0.0,0.0,0.0,0.0,0.0,0.0,0.0,0.0,0.0,0.0,0.0,0.0,0.0,0.0,0.0,0.0,0.0,0.0,0.0,0.0,0.0,0.0,0.0,0.0,0.0,0.0,0.0,0.0,0.0,0.0,0.0,0.0,-1.8956,-1.8622,-1.8491,-1.9043,-1.8608,-1.8288,-1.8288,-1.7398,-1.6617,-1.6123,0.0,0.0,0.0,0.0,0.0,0.0,0.0,0.0,0.0,0.0,0.0,0.0,0.0,0.0,0.0,0.0,0.0,0.0,0.0,0.0,0.0,0.0,0.0,0.0,0.0,0.0,0.0,0.0,0.0,0.0,0.0,0.0,0.0,0.0,0.0,0.0,0.0,0.0,0.0,0.0,0.0,0.0,0.0,0.0,0.0,0.0,0.0,0.0,0.0,0.0,0.0,0.0,0.0,0.0,0.0,0.0,0.0,0.0,0.0,0.0,-2.1183,0.0,0.0,0.0,0.0,0.0,0.0,0.0,0.0,0.0,0.0,0.0,0.0,0.0,0.0,0.0,0.0,0.0,0.0,0.0,0.0,0.0,0.0,0.0,0.0,0.0,0.0,0.0,0.0,0.0,0.0,0.0,0.0,0.0,0.0,0.0,0.0,0.0,0.0,0.0,0.0,0.0,-1.9072,-1.8985,-1.8956,-1.9087,-1.8985,-1.8912,-1.8912,-1.8274,-1.7576,-1.6831,-1.5933,0.0,0.0,0.0,0.0,0.0,0.0,0.0,0.0,0.0,0.0,0.0,0.0,0.0,0.0,0.0,0.0,0.0,0.0,0.0,0.0,0.0,0.0,0.0,0.0,0.0,0.0,0.0,0.0,0.0,0.0,0.0,0.0,0.0,0.0,0.0,0.0,0.0,0.0,0.0,0.0,0.0,0.0,0.0,0.0,0.0,0.0,0.0,0.0,0.0,0.0,0.0,0.0,0.0,0.0,0.0,0.0,0.0,0.0,0.0,0.0,-2.2246,0.0,0.0,0.0,0.0,0.0,0.0,0.0,0.0,0.0,0.0,0.0,0.0,0.0,0.0,0.0,0.0,0.0,0.0,0.0,0.0,0.0,0.0,0.0,0.0,0.0,0.0,0.0,0.0,0.0,0.0,0.0,0.0,0.0,0.0,0.0,0.0,0.0,0.0,0.0,0.0,-1.9101,-1.9101,-1.9101,-1.9101,-1.9101,-1.9101,-1.9101,-1.8811,-1.8382,-1.7768,-1.6797,0.0,0.0,0.0,0.0,0.0,0.0,0.0,0.0,0.0,0.0,0.0,0.0,0.0,0.0,0.0,0.0,0.0,0.0,0.0,0.0,0.0,0.0,0.0,0.0,0.0,0.0,0.0,0.0,0.0,0.0,0.0,0.0,0.0,0.0,0.0,0.0,0.0,0.0,0.0,0.0,0.0,0.0,0.0,0.0,0.0,0.0,0.0,0.0,0.0,0.0,0.0,0.0,0.0,-2.4249,-2.4431,-2.4561,-2.4332,-2.4215,-2.4198,-2.3974,-2.3723,-2.3496,0.0,0.0,0.0,0.0,0.0,0.0,0.0,0.0,0.0,0.0,0.0,0.0,0.0,0.0,0.0,0.0,0.0,0.0,0.0,0.0,0.0,0.0,0.0,0.0,0.0,-2.0312,-2.0314,0.0,0.0,0.0,0.0,0.0,0.0,0.0,0.0,0.0,0.0,0.0,0.0,-1.9101,-1.9101,-1.9101,-1.9101,-1.9101,-1.9101,-1.9101,-1.9101,-1.8879,-1.8403,-1.7536,-1.6704,0.0,0.0,0.0,0.0,0.0,0.0,0.0,0.0,0.0,0.0,0.0,0.0,0.0,0.0,0.0,0.0,0.0,0.0,0.0,0.0,0.0,0.0,0.0,0.0,0.0,0.0,0.0,0.0,0.0,0.0,0.0,0.0,-2.187,-2.2842,0.0,0.0,0.0,0.0,0.0,0.0,0.0,0.0,0.0,0.0,0.0,0.0,0.0,-2.4208,-2.424,-2.4958,-2.5179,-2.4945,-2.5713,-2.5942,-2.5693,-2.5533,-2.5462,-2.546,-2.5364,0.0,-2.3496,-2.3496,0.0,0.0,0.0,0.0,0.0,0.0,0.0,0.0,0.0,0.0,0.0,0.0,0.0,0.0,0.0,0.0,0.0,0.0,0.0,0.0,0.0,0.0,-2.205,-2.205,-2.1767,-2.1594,0.0,-2.0743,-1.9527,-1.9176,-1.9101,0.0,0.0,0.0,0.0,0.0,0.0,0.0,-1.9101,-1.9101,-1.9101,-1.9101,-1.9101,-1.9101,-1.9101,-1.9101,-1.8745,-1.7928,-1.77,-1.7008,-1.5718,-1.5229,0.0,0.0,0.0,0.0,0.0,0.0,0.0,0.0,0.0,0.0,0.0,0.0,0.0,0.0,0.0,0.0,0.0,0.0,0.0,0.0,0.0,0.0,0.0,0.0,0.0,0.0,0.0,0.0,0.0,-2.2602,-2.3155,-2.3752,-2.3692,-2.3777,0.0,0.0,0.0,0.0,0.0,0.0,0.0,0.0,0.0,-2.5694,-2.5563,-2.5765,-2.6369,-2.6607,-2.6926,-2.7365,-2.7738,-2.7925,-2.7908,-2.7513,-2.7328,-2.7309,-2.6941,-2.6442,-2.5794,-2.5001,-2.4677,-2.4677,0.0,0.0,0.0,0.0,-2.4332,-2.4201,-2.4201,-2.393,0.0,-2.3358,0.0,0.0,0.0,0.0,0.0,0.0,0.0,0.0,0.0,0.0,-2.2669,-2.2669,-2.2703,-2.2648,-2.2443,-2.1926,-2.1311,0.0,-2.0767,-2.0862,-2.061,0.0,0.0,0.0,0.0,0.0,-1.9667,-1.9333,-1.9101,-1.9101,-1.9101,-1.9101,-1.9101,-1.9101,-1.8936,-1.8553,-1.8028,-1.7457,-1.682,-1.5836,-1.5053,0.0,0.0,0.0,0.0,0.0,0.0,0.0,0.0,0.0,0.0,0.0,0.0,0.0,0.0,0.0,0.0,0.0,0.0,0.0,0.0,0.0,0.0,0.0,0.0,0.0,0.0,0.0,0.0,-2.3684,-2.426,-2.4713,-2.4699,-2.4768,0.0,0.0,0.0,0.0,0.0,0.0,-2.6051,-2.6607,-2.7097,-2.747,-2.73,-2.7589,-2.8374,-2.827,-2.8543,-2.9194,-2.9282,-2.9386,-2.9489,-2.9017,-2.8799,-2.878,-2.8171,-2.7894,-2.7809,-2.663,-2.6034,-2.5872,-2.5872,-2.5759,-2.5597,-2.5597,-2.5597,-2.5597,-2.5597,-2.5243,-2.4737,-2.4497,0.0,-2.3588,-2.3588,0.0,0.0,0.0,0.0,-2.3588,-2.3588,-2.3588,-2.3588,-2.3588,-2.3731,-2.3731,-2.3311,-2.3314,-2.3111,0.0,-2.2064,-2.2103,-2.1768,0.0,0.0,0.0,0.0,-2.032,-2.032,-1.9885,-1.958,-1.958,-1.9449,-1.9362,-1.9362,-1.9203,-1.9064,-1.8936,-1.8344,-1.7848,-1.7578,-1.6432,-1.5637,-1.5273,0.0,0.0,0.0,0.0,0.0,0.0,0.0,0.0,0.0,0.0,0.0,0.0,0.0,0.0,0.0,0.0,0.0,0.0,0.0,0.0,0.0,0.0,0.0,0.0,0.0,0.0,0.0,0.0,0.0,-2.5878,-2.5779,0.0,0.0,0.0,0.0,-2.6656,-2.6707,-2.7046,-2.7828,-2.815,-2.8628,-2.9351,-2.9351,-2.9369,-2.942,-2.9738,-2.9754,-2.9472,-2.9806,-2.9806,-2.9505,-2.9403,-2.9369,-2.9334,-2.871,-2.8465,-2.8408,-2.7829,-2.7219,-2.6636,-2.6636,-2.6215,-2.5597,-2.5597,-2.5597,-2.5597,-2.5597,-2.5581,-2.5532,-2.553,-2.5497,-2.5465,-2.5465,-2.5484,0.0,0.0,-2.5465,-2.5465,-2.5465,-2.5465,-2.5465,-2.5465,-2.5131,-2.4941,-2.5354,-2.5093,-2.4316,0.0,-2.2026,-2.1729,-2.1694,0.0,-2.1044,-2.1044,-2.0994,-2.0944,-2.0944,-2.0915,-2.0901,-2.0901,-2.0393,-2.0045,-2.0045,-1.9464,-1.8936,-1.8553,-1.8481,-1.8088,-1.7261,-1.7021,-1.6438,-1.5401,-1.5248,0.0,0.0,0.0,0.0,0.0,0.0,0.0,0.0,0.0,0.0,0.0,0.0,0.0,0.0,0.0,0.0,0.0,0.0,0.0,0.0,0.0,0.0,0.0,0.0,0.0,0.0,0.0,0.0,-2.6802,-2.6789,0.0,-2.792,-2.7808,-2.7979,-2.8677,-2.8728,-2.8915,-2.9325,-2.9442,-2.9564,-2.9692,-2.9692,-2.9918,-3.0404,-3.0522,-3.0817,-3.1306,-3.1341,-3.1289,-3.115,-3.0794,-3.0517,-3.0292,-2.9842,-2.9556,-2.9382,-2.9188,-2.8417,-2.7348,-2.7348,-2.7187,-2.694,-2.694,-2.694,-2.694,-2.694,-2.694,-2.6895,-2.6458,-2.6005,-2.5597,-2.5597,-2.5597,-2.5597,-2.5597,-2.5597,-2.5597,-2.5597,-2.5597,-2.5597,-2.5597,-2.5467,-2.5394,-2.5562,-2.5467,-2.5176,-2.4585,-2.4322,-2.4115,-2.3811,-2.3632,-2.3432,-2.3156,-2.2497,-2.194,-2.1684,-2.1264,-2.1003,-2.1003,-2.0799,-2.0669,-2.0669,-2.0103,-1.9681,-1.9545,-1.8876,-1.8226,-1.7618,-1.7214,-1.6705,-1.6055,-1.5828,-1.5453,0.0,0.0,0.0,0.0,0.0,0.0,0.0,0.0,0.0,0.0,0.0,0.0,0.0,0.0,0.0,0.0,0.0,0.0,0.0,0.0,0.0,0.0,0.0,0.0,0.0,0.0,-2.7415,-2.7645,-2.7885,-2.823,-2.873,-2.8765,-2.9022,-2.964,-2.9709,-2.9881,-3.0276,-3.0293,-3.0365,-3.0473,-3.0473,-3.0699,-3.1202,-3.1272,-3.162,-3.2232,-3.2179,-3.2179,-3.2161,-3.1803,-3.1526,-3.1264,-3.0891,-3.0625,-3.0452,-3.0151,-2.9468,-2.8551,-2.8199,-2.7931,-2.7705,-2.7705,-2.7705,-2.7705,-2.7705,-2.7705,-2.764,-2.7187,-2.6717,-2.6309,-2.6309,-2.6309,-2.6309,-2.6309,-2.6147,-2.5969,-2.5969,-2.5775,-2.5597,-2.5597,-2.5597,-2.5597,-2.5597,-2.5597,-2.5597,-2.5597,-2.5467,-2.5262,-2.4942,-2.4799,-2.4558,-2.412,-2.3432,-2.2789,-2.2353,-2.1931,-2.1634,-2.1634,-2.1467,-2.1336,-2.1336,-2.0756,-2.0407,-2.0407,-1.9548,-1.8764,-1.8147,-1.7575,-1.7005,-1.6414,-1.6132,-1.5711,-1.5135,0.0,0.0,0.0,0.0,0.0,0.0,0.0,0.0,0.0,0.0,0.0,0.0,0.0,0.0,0.0,0.0,0.0,0.0,0.0,0.0,0.0,0.0,0.0,-2.6859,-2.7739,-2.8403,-2.8437,-2.9075,-2.9506,-2.9541,-2.9541,-2.9558,-2.9575,-2.9575,-2.992,-3.0714,-3.0749,-3.1076,-3.1818,-3.1853,-3.1853,-3.1887,-3.2071,-3.2178,-3.2178,-3.2319,-3.2371,-3.2371,-3.2371,-3.2354,-3.2319,-3.1855,-3.1651,-3.1578,-3.0753,-3.0396,-3.0272,-2.923,-2.8385,-2.7769,-2.7769,-2.7769,-2.7769,-2.7769,-2.7753,-2.7737,-2.7737,-2.7721,-2.7705,-2.7705,-2.7705,-2.7705,-2.7705,-2.7235,-2.6733,-2.6733,-2.6199,-2.5662,-2.5662,-2.5662,-2.5662,-2.5646,-2.5629,-2.5629,-2.5597,-2.5243,-2.4922,-2.4922,-2.4594,-2.4177,-2.3681,-2.3638,0.0,-2.2955,-2.291,-2.2925,-2.2888,-2.2374,-2.2033,-2.2033,-2.1423,-2.1032,-2.1032,-2.0465,-1.9729,-1.8898,-1.8201,-1.7372,-1.6414,-1.6132,-1.568,-1.5025,0.0,0.0,0.0,0.0,0.0,0.0,0.0,0.0,0.0,0.0,0.0,0.0,0.0,0.0,0.0,0.0,0.0,0.0,0.0,0.0,0.0,0.0,-2.796,-2.796,-2.8198,-2.861,-2.9127,-2.9386,-2.973,-3.03,-3.0368,-3.0663,-3.1324,-3.1394,-3.1533,-3.183,-3.1865,-3.2143,-3.2782,-3.2817,-3.3078,-3.3616,-3.3856,-3.4021,-3.4147,-3.4217,-3.4182,-3.4038,-3.3892,-3.3613,-3.3247,-3.3109,-3.291,-3.2684,-3.2416,-3.2331,-3.215,-3.0304,-2.9475,-2.9297,-2.9297,-2.9297,-2.9297,-2.9297,-2.8957,-2.8498,-2.8498,-2.8142,-2.7705,-2.7705,-2.7705,-2.7705,-2.7705,-2.7575,-2.7429,-2.7429,-2.7284,-2.7118,-2.7118,-2.7118,-2.6992,-2.6506,-2.6409,-2.6247,-2.5694,-2.5505,-2.5413,-2.5413,-2.5333,-2.497,-2.4224,-2.4354,0.0,-2.3045,-2.3209,-2.3275,-2.2933,-2.2765,-2.2649,-2.2649,-2.2091,-2.1728,-2.1728,-2.1104,-2.0516,-1.9971,-1.8953,-1.7655,-1.6132,-1.6032,-1.5862,0.0,0.0,0.0,0.0,0.0,0.0,0.0,0.0,0.0,0.0,0.0,0.0,0.0,0.0,0.0,0.0,0.0,0.0,0.0,0.0,0.0,0.0,-2.8661,-2.8989,-2.9317,-2.9351,-2.9523,-2.9955,-3.0282,-3.0765,-3.1541,-3.161,-3.1993,-3.2884,-3.2936,-3.2973,-3.3066,-3.3049,-3.3203,-3.3578,-3.3578,-3.3786,-3.42,-3.437,-3.4484,-3.4579,-3.4596,-3.4558,-3.4444,-3.433,-3.4098,0.0,-3.3819,-3.37,-3.3477,-3.3186,-3.3062,0.0,0.0,0.0,0.0,0.0,-2.9896,-2.9896,-2.9896,-2.9621,-2.9264,-2.9264,-2.8973,-2.8611,-2.8611,-2.8611,-2.8611,-2.8611,-2.8385,-2.8158,-2.8158,-2.7931,-2.7705,-2.7705,-2.7705,-2.7591,-2.7203,-2.7122,-2.6911,-2.6199,-2.6069,0.0,-2.5646,-2.5597,-2.5355,-2.4655,-2.4614,-2.4313,-2.3326,-2.3275,-2.3209,-2.2933,-2.2888,-2.2888,-2.2888,-2.2577,0.0,0.0,0.0,-2.1104,-2.0422,-1.907,0.0,0.0,0.0,-1.5935,-1.5792,0.0,0.0,0.0,-1.4703,-1.4486,0.0,0.0,0.0,0.0,0.0,0.0,0.0,0.0,0.0,0.0,0.0,0.0,0.0,0.0,0.0,0.0,-2.9213,-2.992,-3.0696,-3.0886,-3.0938,-3.0938,-3.1524,-3.2214,-3.2955,-3.3041,-3.3335,-3.4061,-3.4113,-3.4113,-3.4113,0.0,0.0,0.0,0.0,-3.4268,-3.4355,-3.4375,-3.4375,-3.4375,-3.4414,-3.4431,-3.4375,-3.4375,-3.4375,-3.4355,-3.4355,-3.4355,-3.4295,-3.3592,-3.322,-3.2961,-3.1957,-3.1545,-3.1435,-3.0483,-3.0139,-3.0123,-3.0042,0.0,0.0,-2.9913,-2.9896,-2.9896,-2.9896,-2.9896,-2.9896,-2.9896,-2.9426,-2.8924,-2.8924,-2.8433,-2.7948,-2.7948,-2.7948,-2.7931,-2.785,-2.7834,-2.7624,-2.6944,-2.6814,-2.6587,-2.584,-2.5662,-2.5432,-2.4977,-2.4655,-2.4224,-2.3659,-2.3282,-2.3023,-2.2925,0.0,0.0,-2.2888,-2.2888,-2.2888,-2.2888,-2.2388,-2.1607,-2.0527,-1.9116,-1.8205,-1.7871,-1.6763,-1.6086,-1.5876,-1.5828,-1.5792,-1.578,-1.5313,-1.4866,0.0,0.0,0.0,0.0,0.0,0.0,0.0,0.0,0.0,0.0,0.0,0.0,0.0,0.0,0.0,-3.0144,-3.0368,-3.0713,-3.1472,-3.2093,-3.2472,-3.2472,-3.261,-3.299,-3.3803,-3.3872,-3.3921,-3.4096,-3.4113,-3.4113,-3.4113,-3.4113,-3.4372,-3.4956,-3.4993,-3.5266,-3.587,-3.609,-3.6189,-3.6189,0.0,0.0,-3.6189,-3.6189,-3.6069,-3.587,-3.587,-3.587,-3.5849,-3.5428,-3.4566,-3.3377,-3.2318,-3.1902,-3.1885,-3.1663,-3.1591,-3.151,-3.0904,-3.071,-3.0635,-3.0075,-2.9896,-2.9896,-2.9896,-2.9896,0.0,-2.9896,-2.9783,-2.9686,-2.9686,-2.9572,-2.9475,-2.9475,-2.9475,-2.9313,-2.8709,-2.86,-2.8369,-2.7656,-2.751,-2.73,-2.6604,-2.6005,-2.5432,-2.4977,-2.5166,-2.493,-2.3745,-2.3846,-2.3732,-2.2978,-2.2888,-2.2888,-2.2888,-2.2888,-2.2888,-2.2888,-2.2786,-2.2224,-2.1094,-2.074,-1.9863,-1.8316,-1.7619,-1.7005,-1.6451,-1.6018,-1.5792,-1.5792,-1.5684,-1.561,0.0,0.0,0.0,0.0,0.0,0.0,0.0,0.0,0.0,0.0,0.0,-2.9175,-2.9455,0.0,-3.0231,-3.0627,-3.1007,-3.1507,-3.2248,-3.2662,-3.2904,-3.2904,-3.3266,-3.38,-3.4596,-3.4645,-3.4783,-3.5163,-3.5197,-3.5197,-3.5197,-3.5197,-3.537,-3.5732,-3.5749,-3.5921,-3.6301,-3.6423,-3.6502,-3.6502,-3.6609,-3.6609,-3.6502,-3.6502,-3.6423,-3.6301,-3.6301,-3.6301,-3.6259,-3.5722,-3.4977,-3.4067,-3.334,-3.2627,-3.2012,-3.2012,-3.2012,-3.1963,-3.1568,-3.1438,-3.139,-3.1056,-3.0966,-3.0878,-3.0506,-3.0393,-3.0328,-2.9994,-2.9896,-2.9896,-2.9896,-2.9896,-2.9896,-2.9896,-2.9896,-2.9799,-2.9426,-2.9345,-2.9135,-2.8385,-2.8255,-2.8029,-2.7316,-2.6875,-2.6331,-2.5394,-2.5262,-2.5013,-2.4338,-2.4084,-2.376,-2.3297,-2.3045,-2.2888,-2.2888,-2.2888,-2.2888,-2.2888,-2.2857,-2.2591,-2.2013,-2.1372,-2.0585,-1.9724,-1.8777,-1.7897,-1.7111,-1.6771,-1.6335,-1.5792,-1.5792,-1.5792,0.0,0.0,0.0,0.0,0.0,0.0,0.0,0.0,-2.9161,-2.9379,-2.9517,-2.9691,-2.992,-3.0472,-3.0903,-3.0903,-3.1524,-3.2214,-3.2817,-3.3162,-3.3352,-3.3352,-3.3921,-3.4614,-3.5335,-3.5404,-3.5663,-3.6266,-3.6301,-3.6301,-3.6301,-3.6439,-3.6525,-3.6525,-3.6663,-3.6749,-3.6749,-3.6749,-3.6749,-3.6749,-3.6749,-3.6663,-3.6525,-3.6525,-3.6439,-3.6301,-3.6301,-3.6216,-3.6028,-3.5453,-3.4961,-3.4546,-3.4226,-3.3404,-3.2417,-3.2417,-3.2417,-3.24,-3.2271,-3.2222,-3.219,-3.206,-3.2012,-3.1898,-3.1292,-3.1114,-3.1001,-3.0464,-3.0301,-3.0269,-3.0139,-3.0091,-3.0058,-2.9913,-2.9896,-2.9896,-2.9896,-2.9896,-2.9718,-2.9135,-2.9021,-2.8773,-2.8045,-2.7915,-2.7446,-2.6018,-2.5416,-2.5021,-2.4815,-2.409,-2.3573,-2.3465,-2.312,-2.2888,-2.2888,-2.2888,-2.2888,-2.2888,-2.2849,-2.2818,-2.2809,-2.1758,-2.1181,-2.1121,-1.9947,-1.8923,-1.8026,-1.7698,-1.7055,-1.6114,-1.6003,-1.5888,-2.6862,-2.7393,-2.8053,-2.8717,-2.8947,-2.9086,0.0,0.0,-3.047,-3.0523,-3.1039,-3.1504,-3.1541,-3.161,-3.1679,-3.1679,-3.23,-3.2817,-3.2886,-3.4076,-3.4938,-3.4938,-3.5007,-3.537,-3.6111,-3.618,-3.6215,-3.6284,-3.6301,-3.6301,-3.6301,-3.6973,-3.7374,-3.7374,-3.7991,-3.8336,-3.8336,-3.8336,-3.8336,-3.8336,-3.8336,-3.7991,-3.7374,-3.7374,-3.6973,-3.6301,-3.6301,-3.5941,-3.5316,-3.5247,-3.4802,-3.4151,-3.4126,-3.4003,-3.3874,-3.3874,-3.3874,-3.3777,-3.3178,-3.2967,-3.2854,-3.2222,-3.2012,-3.1996,-3.1915,-3.1882,-3.1866,-3.1801,-3.1769,-3.1623,-3.0953,-3.0791,-3.0652,-3.0042,-2.9896,-2.9896,-2.9896,-2.9896,-2.9886,-2.9783,-2.9767,-2.954,-2.8811,-2.8697,-2.819,-2.6782,-2.6186,-2.5512,-2.4503,-2.3931,-2.3436,-2.3023,-2.2933,-2.2888,-2.2888,-2.2888,-2.2888,-2.2888,-2.2888,-2.2872,-2.2809,-2.2669,-2.2253,-2.1554,-2.0918,-2.024,-1.9564,-1.8588,-1.78,-1.7205,-1.6729,-1.6271,-2.7802,-2.8804,-2.9764,-2.9978,-3.0346,-3.0708,-3.0816,-3.1093,-3.1334,-3.1334,-3.1576,-3.18,-3.18,-3.18,-3.1938,0.0,-3.2697,-3.3214,-3.4111,-3.4783,-3.5352,-3.5783,-3.5835,-3.5956,-3.6266,-3.6301,-3.6301,-3.6301,-3.6732,-3.6991,-3.6991,-3.7715,-3.8151,-3.8151,-3.8444,-3.8594,-3.8594,-3.8594,-3.8594,-3.8594,-3.8594,-3.8444,-3.8151,-3.8151,-3.7956,-3.7629,-3.7629,-3.7458,-3.7143,-3.6663,-3.6304,-3.5976,-3.5545,-3.538,-3.5283,-3.4424,-3.4101,-3.4052,-3.3777,-3.368,-3.3631,-3.3323,-3.3226,-3.3145,-3.2757,-3.2643,-3.2546,-3.2125,-3.2012,-3.1931,-3.1616,-3.1535,-3.1357,-3.0652,-3.049,-3.0376,-2.9977,-2.9896,-2.9896,-2.9896,-2.9896,-2.9799,-2.9491,-2.9443,-2.9086,-2.8082,-2.7384,-2.6573,-2.5445,-2.4877,-2.416,-2.3022,-2.2888,-2.2888,-2.2888,-2.2888,-2.2888,-2.2888,-2.2857,-2.2803,-2.2698,-2.2606,-2.2408,-2.2067,-2.1769,-2.1041,-1.9914,-1.9393,-1.8532,-1.7394,-1.717,-1.6775,-2.9004,-3.0043,-3.0946,-3.0983,-3.1386,-3.18,-3.18,-3.18,-3.18,-3.18,-3.18,-3.18,-3.18,-3.1972,-3.2283,-3.2817,-3.3266,-3.3921,-3.5042,-3.537,-3.5697,-3.6232,-3.6301,-3.6387,-3.6611,-3.6628,-3.6628,-3.6628,-3.7353,-3.7806,-3.7806,-3.8491,-3.8888,-3.8888,-3.9134,-3.9238,-3.9238,-3.9238,-3.9238,-3.9238,-3.9238,-3.9134,-3.8888,-3.8681,-3.8594,-3.8594,-3.8594,-3.855,-3.8414,-3.7821,-3.7442,-3.7195,-3.6675,-3.6393,-3.6173,-3.5104,-3.457,-3.436,-3.4165,-3.4101,-3.4101,-3.4101,-3.4101,-3.4003,-3.3518,-3.3372,-3.3259,-3.2724,-3.2595,-3.2546,-3.2352,-3.2303,-3.2125,-3.1373,-3.1195,-3.1001,-3.0312,-3.0188,-3.0123,-2.9929,-2.9896,-2.9896,-2.9896,-2.9896,-2.9718,-2.9183,-2.8665,-2.7777,-2.6257,-2.5401,-2.4395,-2.3036,-2.2888,-2.2888,-2.2888,-2.2888,-2.2902,-2.288,-2.2849,-2.2758,-2.2615,-2.2509,-2.244,-2.2394,-2.2278,-2.1666,-2.0604,-2.0199,-1.9359,-1.8055,-1.7751,-1.7327,-3.0595,-3.101,-3.1353,-3.1691,-3.1783,-3.18,-3.18,-3.18,-3.18,-3.18,-3.18,-3.18,-3.18,-3.2386,-3.2869,-3.2904,-3.4145,-3.5145,-3.518,-3.5818,-3.6266,-3.6301,-3.6301,-3.6611,0.0,-3.7461,-3.7461,-3.7461,-3.8151,-3.8582,-3.8582,-3.9267,-3.9664,-3.9664,-4.0429,-4.0825,-4.0825,-4.0825,-4.0825,-4.0825,-4.0825,-4.0429,-3.9629,-3.8922,-3.8594,-3.8594,-3.8594,-3.8431,-3.8125,-3.8101,-3.7614,-3.69,-3.6874,-3.6649,-3.6303,-3.6254,-3.5785,-3.5065,-3.4343,-3.4101,-3.4101,-3.4101,-3.4101,-3.4101,-3.4084,-3.4068,-3.4068,-3.4036,-3.4036,-3.389,-3.3226,-3.3064,-3.287,-3.2141,-3.1979,-3.1785,-3.1034,-3.0872,-3.0661,-3.0026,-2.9896,-2.9896,-2.9896,-2.9896,-2.988,-2.9864,-2.9848,-2.8976,-2.6605,-2.4917,-2.3667,-2.2983,-2.2888,-2.2888,-2.2888,-2.2888,-2.2857,-2.2809,-2.2872,-2.2797,-2.2615,-2.2615,-2.2532,-2.2394,-2.2278,-2.217,-2.2133,-2.1064,-2.0283,-1.9697,-1.866,-1.7893,-3.0703,-3.1044,-3.1372,-3.1709,-3.18,-3.18,-3.18,-3.18,-3.18,-3.18,-3.18,-3.18,-3.18,-3.2403,-3.3076,-3.3593,-3.4542,-3.537,-3.5852,-3.6146,-3.649,-3.7025,-3.7116,0.0,0.0,0.0,0.0,-3.818,-3.8905,-3.9319,-3.9319,-4.006,-4.0515,-4.0515,-4.0774,-4.0912,-4.0912,-4.0912,-4.0912,-4.0912,-4.0912,-4.0774,-4.0498,-4.0256,-4.0135,-4.0135,-4.0135,-3.9901,-3.9532,-3.9235,-3.8779,-3.8272,-3.7992,-3.7817,-3.763,-3.7161,-3.6821,-3.6497,-3.5801,-3.5574,-3.5477,-3.4975,-3.4839,-3.4732,-3.4246,-3.4101,-3.4101,-3.4101,-3.4101,-3.4052,-3.3825,-3.3761,-3.3582,-3.2886,-3.2724,-3.253,-3.1778,-3.1616,-3.1406,-3.0716,-3.0571,-3.0425,-2.9977,-2.9896,-2.9792,-2.9425,-2.8733,-2.7958,-2.7134,-2.5193,-2.3804,-2.3601,-2.3171,-2.2888,-2.2888,-2.2872,-2.2818,-2.2809,-2.2743,-2.2638,-2.2463,-2.2463,-2.2394,-2.2278,-2.2231,-2.202,-2.1688,-2.0957,-2.0331,-1.9775,-1.9048,-1.8434,-3.0925,-3.1237,-3.1523,-3.1763,-3.18,-3.18,-3.18,-3.18,-3.18,-3.18,-3.18,-3.18,-3.18,-3.2645,-3.349,-3.4027,-3.4938,-3.5749,-3.6232,-3.6542,-3.6904,-3.7443,-3.7737,-3.8185,0.0,0.0,0.0,-3.8957,-3.9698,-4.0112,-4.0112,-4.0636,-4.0912,-4.0912,-4.0912,-4.0912,-4.0912,-4.0912,-4.0912,-4.0912,-4.0912,-4.0912,-4.0912,-4.0912,-4.0912,-4.0912,-4.0912,-4.0752,-4.0485,-4.0028,-3.9601,-3.9169,-3.875,-3.8532,-3.8343,-3.7873,-3.7695,-3.7566,-3.6627,-3.6303,-3.6222,-3.5736,-3.559,-3.5493,-3.5024,-3.4894,-3.4829,-3.4554,-3.4489,-3.4424,-3.4165,-3.4101,-3.3987,-3.355,-3.3453,-3.3259,-3.2546,-3.2384,-3.2174,-3.1438,-3.1082,-3.0759,-3.0328,-3.0058,-2.9726,-2.9182,-2.8303,-2.7572,-2.7177,-2.5634,-2.4384,-2.3958,-2.3514,-2.3171,-2.2917,-2.2826,-2.2772,-2.2735,-2.2652,-2.2532,-2.2417,-2.2394,-2.237,-2.2278,-2.2231,-2.2044,-2.1688,-2.0957,-2.0409,-2.0055,-1.9344,-1.8806,-3.1295,-3.1542,-3.18,-3.18,-3.18,-3.18,-3.18,-3.18,-3.18,-3.18,-3.18,-3.18,-3.18,0.0,-3.4061,-3.4096,-3.5301,-3.6266,-3.6284,-3.6991,-3.7512,0.0,0.0,0.0,0.0,0.0,0.0,-3.975,0.0,-4.0912,-4.0912,-4.0912,-4.0912,-4.0912,-4.0912,-4.0912,-4.0912,-4.0912,-4.0912,-4.0912,-4.0912,-4.0912,-4.0912,-4.0912,-4.0912,-4.0912,-4.0912,-4.0888,-4.084,-4.0478,-4.002,-3.9532,-3.9142,-3.8766,-3.8391,-3.8391,-3.8391,-3.8213,-3.6869,-3.6416,-3.6416,-3.6367,-3.6367,-3.6351,-3.6319,-3.6303,-3.6157,-3.5454,-3.526,-3.5098,-3.4343,-3.4165,-3.4149,-3.4117,-3.4101,-3.3922,-3.3275,-3.3145,-3.2919,-3.2206,-3.1422,-3.0904,-3.0904,-3.0305,-2.9665,-2.9159,-2.8614,-2.7865,-2.6799,-2.6154,-2.5353,-2.4147,-2.3958,-2.3644,-2.3012,-2.2855,-2.2735,-2.2615,-2.2592,-2.2532,-2.2394,-2.2394,-2.2394,-2.2394,-2.2254,-2.2161,-2.2161,-2.108,-2.056,-2.0535,-1.95,-1.8987,-3.1295,-3.1542,-3.18,-3.18,-3.18,-3.18,-3.18,-3.18,-3.18,-3.18,-3.18,-3.18,-3.18,-3.2559,0.0,-3.401,-3.489,0.0,-3.6215,-3.6991,0.0,-3.8254,0.0,-3.9715,-4.0532,-4.0601,0.0,0.0,-4.0791,-4.0912,-4.0912,-4.0912,-4.0912,-4.0912,-4.0912,-4.0912,-4.0912,-4.0912,-4.0912,-4.0912,-4.0912,-4.0912,-4.0912,-4.0912,-4.0912,-4.0912,-4.0912,-4.0728,-4.0453,-4.0337,-3.9841,-3.9142,-3.905,-3.8766,-3.8391,-3.8391,-3.8391,-3.8359,-3.7987,-3.7857,-3.7776,-3.7214,-3.7036,-3.6939,-3.6465,-3.6303,-3.627,-3.6076,-3.6027,-3.5849,-3.5104,-3.4936,-3.479,-3.423,-3.4101,-3.4052,-3.3874,-3.3841,-3.3631,-3.2951,-3.1785,-3.0904,-3.0904,-3.0019,-2.912,-2.8591,-2.8061,-2.7605,-2.7315,-2.6409,-2.5687,-2.5367,-2.4457,-2.3818,-2.3659,-2.3123,-2.2735,-2.2615,-2.2509,-2.2394,-2.2254,-2.2254,-2.2254,-2.2254,-2.1817,-2.1616,-2.1616,-2.0535,-2.0003,-1.9978,-1.9317,-1.8987,-3.1916,-3.2134,-3.2283,-3.2283,-3.2283,-3.2196,-3.1869,-3.18,-3.18,-3.18,-3.18,-3.18,-3.18,-3.2403,0.0,0.0,0.0,0.0,-3.6663,-3.7473,-3.8272,0.0,-3.975,0.0,-4.086,-4.0912,-4.0912,0.0,-4.0912,-4.0912,-4.0912,-4.0912,-4.0912,-4.0912,-4.0912,-4.0912,-4.0912,-4.0912,-4.0912,-4.0912,-4.0912,-4.0912,-4.0912,-4.0912,-4.0912,-4.0912,0.0,-4.0655,-4.0263,-4.007,-3.9592,-3.8969,-3.8821,-3.8616,-3.8391,-3.8391,-3.8391,-3.8391,-3.8391,-3.8391,-3.8327,-3.7922,-3.7792,-3.7728,-3.7339,-3.7226,-3.7161,-3.6837,-3.6756,-3.6594,-3.5866,-3.5671,-3.5493,-3.4748,-3.457,-3.4489,-3.4165,-3.4101,-3.389,-3.3226,-3.2433,-3.1602,-3.0715,-2.9996,-2.9195,-2.8116,-2.7675,-2.7429,-2.7214,-2.6572,-2.602,-2.5734,-2.5005,-2.4447,-2.4144,-2.3435,-2.2998,-2.2922,-2.2526,-2.2278,-2.2208,-2.2208,-2.2208,-2.2208,-2.1902,-2.164,-2.1399,-2.056,-2.0029,-1.9798,-1.9239,-1.8987,-3.2712,-3.2865,-3.2846,-3.2884,-3.2835,-3.2593,-3.1955,-3.18,-3.18,-3.18,-3.18,-3.18,-3.18,-3.2317,-3.3041,-3.3938,0.0,-3.5628,-3.7271,-3.8112,-3.887,-3.9612,-4.0405,-4.0912,-4.0912,-4.0912,-4.0912,-4.0912,-4.0912,-4.0912,-4.0912,-4.0912,-4.0912,-4.0912,-4.0912,-4.0912,-4.0912,-4.0912,-4.0912,-4.0912,-4.0912,-4.0912,-4.0912,-4.0847,-4.0817,-4.0817,0.0,0.0,-4.0188,-3.9782,-3.9348,-3.8969,-3.8616,-3.8448,-3.8391,-3.8391,-3.8391,-3.8391,-3.8391,-3.8391,-3.8391,-3.8391,-3.8391,-3.8391,-3.8391,-3.8391,-3.8278,-3.7647,-3.7469,-3.7307,-3.661,-3.6432,-3.6254,-3.5535,-3.5357,-3.5137,-3.4408,-3.4165,-3.3922,-3.3315,-3.3096,-3.2466,-3.0623,-3.0156,-2.9505,-2.7876,-2.7575,-2.7327,-2.6858,-2.6618,-2.6309,-2.5779,-2.5532,-2.5143,-2.4572,-2.3847,-2.3443,-2.3419,-2.2729,-2.2344,-2.232,-2.225,-2.2208,-2.2208,-2.2137,-2.1864,-2.1399,-2.0784,-2.0258,-1.9798,-1.9239,-1.8987,-3.2792,-3.2711,-3.2537,-3.2827,-3.2438,-3.1955,-3.1834,-3.18,0.0,-3.18,-3.18,-3.18,-3.18,-3.1903,-3.2438,-3.3872,0.0,0.0,0.0,0.0,-3.887,0.0,0.0,0.0,0.0,0.0,0.0,0.0,0.0,-4.0912,-4.0912,-4.0912,-4.0912,-4.0912,-4.0912,-4.0912,-4.0912,-4.0912,-4.0912,-4.0912,-4.0912,-4.0912,-4.0888,-4.0576,-4.0387,-4.0387,-3.9986,0.0,-3.9731,-3.9636,-3.9348,-3.8996,-3.8914,-3.8683,-3.8391,-3.8391,-3.8391,-3.8391,-3.8391,-3.8391,-3.8391,-3.8391,-3.8391,-3.8391,-3.8391,-3.8391,-3.8375,-3.8246,-3.8213,-3.8051,-3.7295,-3.7117,-3.6939,-3.627,-3.6108,-3.5914,-3.5179,-3.4522,-3.3993,-3.3652,-3.3088,-3.2417,-3.1575,-3.0498,-2.9447,-2.8471,-2.7848,-2.7327,-2.6858,-2.6618,-2.6467,-2.6366,-2.5776,-2.5354,-2.524,-2.4615,-2.4156,-2.4056,-2.3451,-2.3063,-2.2943,-2.2475,-2.2208,-2.2208,-2.1746,-2.1496,-2.1399,-2.0409,-1.9901,-1.9798,-1.9239,-1.8987,-3.2496,-3.252,-3.2497,-3.2827,-3.2628,-3.2265,-3.1886,0.0,0.0,-3.18,-3.18,-3.18,-3.18,-3.18,0.0,-3.3854,0.0,0.0,0.0,0.0,0.0,0.0,0.0,0.0,0.0,0.0,0.0,0.0,0.0,-4.1309,-4.0929,-4.0912,-4.0912,-4.0912,-4.0912,-4.0912,-4.0912,-4.068,-4.0747,-4.1123,-4.0907,-4.0985,-4.135,-4.0763,-4.05,-4.0483,-3.9856,0.0,-3.9286,-3.9286,-3.9034,-3.8683,-3.8683,-3.856,-3.8391,-3.8391,-3.8391,-3.8391,-3.8391,-3.8391,-3.8391,-3.8391,-3.8391,-3.8391,-3.8391,-3.8391,-3.8391,-3.8391,-3.8391,-3.8327,-3.797,-3.7873,-3.7695,-3.6972,-3.6562,-3.6092,-3.5373,-3.4936,-3.4477,-3.3825,-3.3422,-3.2748,-3.1424,-3.0639,-2.9693,-2.8106,-2.7606,-2.7178,-2.6623,-2.6379,-2.6312,-2.6392,-2.5948,-2.5645,-2.5645,-2.5091,-2.4671,-2.462,-2.4041,-2.3703,-2.3628,-2.3023,-2.2662,-2.2662,-2.2102,-2.1688,-2.1399,-2.061,-2.008,-1.9798,-1.9239,-1.8987,-3.223,-3.2343,-3.24,-3.2808,-3.2783,-3.2507,-3.1921,-3.18,-3.18,-3.18,-3.18,-3.18,-3.18,-3.18,-3.23,0.0,-3.4113,-3.4907,0.0,0.0,0.0,0.0,0.0,0.0,0.0,0.0,0.0,0.0,0.0,0.0,-4.1188,-4.0998,-4.0981,-4.1136,-4.1153,-4.1222,-4.1395,-4.0981,-4.1027,-4.1562,-4.1127,-4.123,-4.1788,-4.1099,-4.0804,-4.0754,-4.009,0.0,0.0,-3.9106,-3.883,-3.8391,-3.8391,-3.8391,-3.8391,-3.8391,-3.8391,-3.8391,-3.8391,-3.8391,-3.8391,-3.8391,-3.8391,-3.8391,-3.8391,-3.8391,-3.8391,-3.8391,-3.8391,-3.8391,-3.8391,-3.8335,-3.8161,-3.7568,-3.6961,-3.6319,-3.5574,-3.5325,-3.4881,-3.389,-3.3642,-3.3035,-3.1222,-3.0734,-2.9967,-2.7981,-2.7582,-2.7268,-2.6584,-2.6363,-2.6294,-2.6274,-2.6029,-2.5893,-2.5893,-2.5458,-2.5203,-2.5203,-2.4627,-2.4289,-2.4289,-2.367,-2.3294,-2.3294,-2.2855,-2.2387,-2.1988,-2.1442,-2.0899,-2.0333,-1.9793,-1.9458,-3.2286,-3.2178,-3.2096,-3.2732,-3.2403,-3.1886,-3.1817,0.0,-3.18,-3.18,-3.18,-3.18,-3.18,-3.18,-3.23,-3.3854,-3.4113,-3.4907,0.0,0.0,0.0,0.0,0.0,0.0,0.0,0.0,0.0,0.0,0.0,0.0,-4.1947,-4.1274,-4.1222,-4.1895,-4.1912,-4.2258,-4.2982,-4.2535,-4.2319,-4.2387,-4.1906,-4.1721,-4.1788,-4.1297,-4.1049,-4.1049,-4.0596,0.0,0.0,-3.9466,-3.9048,-3.8391,-3.8391,-3.8391,-3.8391,-3.8391,-3.8391,-3.8391,-3.8391,-3.8391,-3.8391,-3.8391,-3.8391,-3.8391,-3.8391,-3.8391,-3.8391,-3.8391,-3.8391,-3.8391,-3.8391,-3.8177,-3.7927,-3.7863,-3.7532,-3.7004,-3.6351,-3.5655,-3.4881,-3.389,-3.3503,-3.2969,-3.1801,-3.0894,-3.0025,-2.91,-2.8483,-2.7897,-2.7296,-2.7044,-2.6706,-2.6181,-2.5975,-2.5893,-2.5893,-2.5837,-2.5809,-2.5809,-2.526,-2.4922,-2.4922,-2.4331,-2.4008,-2.4008,-2.3938,-2.3884,-2.3834,-2.3322,-2.2723,-2.2057,-2.1513,-2.0971,-3.1402,-3.1483,-3.1659,-3.2118,-3.2024,-3.18,-3.18,-3.18,-3.18,-3.18,-3.18,-3.18,-3.18,-3.18,-3.2145,-3.3214,-3.3766,-3.4579,-3.5921,0.0,0.0,0.0,0.0,0.0,0.0,0.0,0.0,0.0,0.0,0.0,-4.3379,-4.2689,-4.243,-4.2706,-4.2723,-4.2879,-4.3189,-4.2723,-4.2586,-4.2745,-4.2299,-4.2158,-4.2275,-4.1684,-4.1398,-4.1366,-4.0764,0.0,0.0,-3.9684,-3.9343,-3.9007,-3.857,-3.8391,-3.8391,-3.8391,-3.8391,-3.8391,-3.8391,-3.8391,-3.8391,-3.8391,-3.8262,-3.8148,-3.8335,-3.8391,-3.8391,-3.8391,-3.8391,-3.8391,-3.8391,-3.8148,-3.7915,-3.7915,-3.762,-3.7179,-3.651,-3.5792,-3.4938,-3.3654,-3.2936,-3.2201,-3.1058,-3.0543,-2.9971,-2.8988,-2.8644,-2.8291,-2.7683,-2.7541,-2.7229,-2.6595,-2.6146,-2.5893,-2.5893,-2.5893,-2.5893,-2.5893,-2.5655,-2.5528,-2.5528,-2.4964,-2.4641,-2.4641,-2.4289,-2.4092,-2.4092,-2.3565,-2.3147,-2.2884,-2.1928,-2.1359,-3.0666,-3.0925,-3.1257,-3.169,-3.1744,-3.1653,-3.1653,-3.1578,-3.1523,-3.1634,-3.1653,-3.1671,-3.1781,-3.18,-3.2041,-3.2783,-3.3576,-3.4372,-3.5094,-3.7146,0.0,0.0,0.0,0.0,0.0,0.0,0.0,0.0,0.0,0.0,0.0,-4.4113,-4.3759,-4.3534,-4.3534,-4.3638,-4.3862,-4.3398,-4.3237,-4.3446,-4.2858,-4.2665,-4.2789,-4.2161,-4.1889,-4.1857,0.0,0.0,0.0,-4.0089,-3.97,-3.9441,-3.8683,-3.8391,-3.8391,-3.8391,-3.8391,-3.8391,-3.8391,-3.8391,-3.8391,-3.8391,-3.8177,-3.7943,-3.8177,-3.8177,-3.8091,-3.8091,-3.8177,-3.8234,-3.8119,-3.8017,-3.7886,-3.777,-3.7565,-3.7227,-3.6535,-3.6042,-3.5213,-3.3611,-3.2828,-3.2006,-3.0657,-3.0342,-2.9986,-2.9087,-2.897,-2.8745,-2.8157,-2.8087,-2.7804,-2.7172,-2.6708,-2.6301,-2.5921,-2.5893,-2.5893,-2.5893,-2.5893,-2.5893,-2.5893,-2.5472,-2.5274,-2.5274,-2.4852,-2.4627,-2.4627,-2.426,-2.3996,-2.377,-2.2735,-2.2046,-3.0414,-3.0662,-3.0965,-3.1634,-3.1542,-3.1315,-3.1315,-3.1044,-3.0888,-3.1237,-3.1315,-3.1408,-3.1744,-3.18,-3.2041,-3.2783,-3.3576,-3.4372,-3.5094,0.0,0.0,0.0,0.0,0.0,0.0,0.0,0.0,0.0,0.0,0.0,0.0,-4.538,-4.5044,-4.4311,-4.4294,-4.463,-4.5363,-4.4927,-4.4691,-4.4663,-4.3735,-4.3306,-4.3276,-4.2789,-4.2586,0.0,0.0,0.0,0.0,-4.0772,-4.0092,-3.9441,-3.8683,-3.8391,-3.8391,-3.8391,-3.8391,-3.8391,-3.8391,-3.8391,-3.8391,-3.8391,-3.8177,-3.7915,-3.7915,-3.7682,-3.7417,-3.7417,-3.7653,-3.7828,-3.7506,-3.7637,-3.7828,-3.746,-3.7417,-3.7227,-3.6535,-3.6393,-3.5852,-3.3973,-3.337,-3.2667,-3.0984,-3.0464,-3.0144,-2.9651,-2.9602,-2.9378,-2.8759,-2.8675,-2.845,-2.7862,-2.7791,-2.7285,-2.6006,-2.5893,-2.5893,-2.5893,-2.5893,-2.5893,-2.5893,-2.5879,-2.5879,-2.5879,-2.5879,-2.5879,-2.5879,-2.5879,-2.5578,-2.4963,-2.4281,-2.3314,-3.0075,-3.0251,-3.0448,-3.0968,-3.0808,-3.0526,-3.0707,-3.0526,-3.0448,-3.0914,-3.103,-3.1184,-3.1709,-3.18,-3.1869,-3.211,-3.3248,-3.4182,0.0,0.0,0.0,0.0,0.0,0.0,0.0,0.0,0.0,0.0,0.0,0.0,0.0,-4.5397,-4.5276,-4.5061,-4.5061,-4.5156,-4.5397,-4.4944,-4.4541,-4.4214,-4.3604,-4.3141,-4.2836,-4.2649,0.0,0.0,0.0,0.0,0.0,-4.1533,-4.0684,-3.9764,-3.9074,-3.835,-3.7727,-3.7727,-3.7873,-3.8075,-3.8075,-3.8075,-3.8075,-3.8075,-3.7714,-3.7285,-3.7285,-3.7344,-3.7417,-3.7417,-3.7476,-3.7519,-3.7447,-3.7344,-3.7255,-3.7165,-3.6938,-3.6723,-3.6521,-3.6102,-3.5427,-3.412,-3.308,-3.1973,-3.0757,-3.0151,-2.9789,-2.9634,-2.9602,-2.9532,-2.935,-2.9321,-2.9083,-2.8464,-2.8408,-2.7888,-2.6624,-2.6526,-2.6343,-2.5921,-2.5893,-2.5893,-2.5893,-2.5893,-2.5893,-2.5893,-2.5893,-2.5893,-2.5893,-2.5893,-2.5342,-2.4295,-2.3682,-2.2962,-2.9601,-2.9805,-3.0026,-3.0444,-3.0218,-2.9962,-3.0107,-2.9935,-2.9854,-3.0306,-3.0575,-3.0874,-3.1374,-3.1635,-3.18,-3.18,-3.3076,-3.4113,0.0,0.0,0.0,0.0,0.0,0.0,0.0,0.0,0.0,0.0,0.0,0.0,0.0,-4.5397,-4.5318,-4.5123,-4.514,-4.5042,-4.4862,-4.4569,-4.4288,-4.4001,-4.3515,-4.3141,-4.2851,-4.268,0.0,0.0,0.0,0.0,0.0,-4.1873,-4.1215,-4.0485,-3.9418,-3.8583,-3.793,-3.7541,-3.7535,-3.7695,-3.7695,-3.7695,-3.7695,-3.7695,-3.7389,-3.6984,-3.6847,-3.6938,-3.7074,-3.7074,-3.7164,-3.7254,-3.7254,-3.7135,-3.7015,-3.7015,-3.6754,-3.6492,-3.6492,-3.6153,-3.5492,-3.4233,-3.3332,-3.2282,-3.0761,-3.0175,-2.9869,-2.9645,-2.9602,-2.9602,-2.9602,-2.9602,-2.9462,-2.9083,-2.904,-2.8633,-2.7607,-2.7312,-2.6905,-2.6287,-2.6245,-2.6132,-2.5907,-2.5893,-2.5893,-2.5893,-2.5893,-2.5893,-2.5893,-2.5674,-2.4908,-2.364,-2.3297,-2.2781,0.0,-2.9316,-2.9607,-2.994,-2.9767,-2.9518,-2.954,-2.928,0.0,-2.9496,-3.0043,-3.0563,-3.0818,-3.1374,-3.1799,-3.185,-3.3091,-3.4111,0.0,0.0,0.0,0.0,0.0,0.0,0.0,0.0,0.0,0.0,0.0,0.0,0.0,-4.5397,-4.515,-4.468,-4.4652,-4.444,-4.4001,-4.3972,-4.3943,-4.3914,-4.3426,-4.3216,-4.3155,-4.2726,0.0,0.0,0.0,0.0,0.0,-4.189,-4.1583,-4.1375,-3.9736,-3.9056,-3.882,-3.7763,-3.7405,-3.7358,-3.7358,-3.7358,-3.7358,-3.7358,-3.718,-3.6908,-3.6585,-3.6492,-3.6492,-3.6492,-3.6708,-3.6969,-3.6969,-3.6969,-3.6969,-3.6969,-3.6693,-3.646,-3.6492,-3.646,-3.5965,-3.4367,-3.4026,-3.3279,-3.1001,-3.0554,-3.0301,-2.9757,-2.9645,-2.9602,-2.9602,-2.9602,-2.9602,-2.9602,-2.9602,-2.9378,-2.8802,-2.8227,-2.7565,-2.6919,-2.6877,-2.6596,-2.5992,-2.595,-2.5936,-2.5893,-2.5866,-2.5839,-2.5839,-2.5188,-2.4263,-2.3088,-2.3058,-2.275,-2.8549,0.0,-2.8795,-2.9243,-2.9013,-2.8724,0.0,-2.8724,-2.87,-2.9196,-2.9767,-3.0276,-3.0526,-3.1162,-3.1787,-3.2181,-3.3205,-3.4186,0.0,0.0,0.0,0.0,0.0,0.0,0.0,0.0,0.0,0.0,0.0,0.0,0.0,-4.5397,-4.5015,-4.4202,-4.4174,-4.4117,-4.4001,-4.3634,-4.3336,-4.3078,-4.2617,-4.2254,-4.1997,-4.1883,0.0,0.0,0.0,0.0,-4.1835,-4.1933,-4.1518,-4.0801,-4.0388,-3.9424,-3.8184,-3.7654,-3.7297,-3.7075,-3.7075,-3.7075,-3.7044,-3.6785,-3.6677,-3.6585,-3.6523,-3.6492,-3.6492,-3.6492,-3.6554,-3.6616,-3.6616,-3.6616,-3.6616,-3.6616,-3.6242,-3.599,-3.6429,-3.6195,-3.5642,-3.4848,-3.4322,-3.3571,-3.2207,-3.1162,-3.0441,-3.0301,-2.9912,-2.9602,-2.9602,-2.9602,-2.9602,-2.9602,-2.9602,-2.9546,-2.9406,-2.883,-2.8212,-2.7593,-2.7551,-2.7256,-2.6624,-2.6596,-2.6371,-2.5907,-2.5453,-2.5202,-2.5202,-2.4092,-2.3386,-2.3088,-2.2641,-2.2328,-2.8411,-2.8411,-2.8468,-2.8732,-2.8589,-2.842,-2.8549,-2.8493,-2.8493,-2.8779,-2.9293,-2.981,-3.0171,-3.0707,-3.1416,-3.2417,-3.3245,0.0,0.0,0.0,0.0,0.0,0.0,0.0,0.0,0.0,0.0,0.0,0.0,0.0,0.0,-4.5194,-4.4752,-4.403,-4.3781,-4.3591,-4.3353,-4.2958,-4.2679,-4.2475,-4.2061,-4.1785,-4.1588,-4.1588,-4.1588,0.0,0.0,0.0,-4.1621,-4.1785,-4.1563,-4.1004,-4.0542,-3.9595,-3.8387,-3.7743,-3.7202,-3.6785,-3.6785,-3.6785,-3.6754,-3.6554,-3.6492,-3.6492,-3.6492,-3.6492,-3.6492,-3.6492,-3.6492,-3.6492,-3.6492,-3.6492,-3.6492,-3.6492,-3.6085,-3.5784,-3.6085,-3.572,-3.5172,-3.4643,-3.4266,-3.368,-3.2577,-3.1836,-3.1288,-3.1007,-3.0684,-3.0361,-3.0066,-3.0024,-2.9926,-2.9645,-2.9602,-2.949,-2.9209,-2.9139,-2.8858,-2.8269,-2.8227,-2.7946,-2.7284,-2.7256,-2.7102,-2.6793,-2.6109,-2.563,-2.5365,-2.4359,-2.3679,-2.341,-2.3098,-2.2919,-2.8411,-2.8411,-2.8411,-2.8411,-2.8411,-2.8411,-2.8411,-2.8411,-2.8411,-2.8411,0.0,-2.9316,-2.9657,-3.0253,0.0,0.0,0.0,0.0,0.0,0.0,0.0,0.0,0.0,0.0,0.0,0.0,0.0,0.0,0.0,0.0,0.0,-4.4862,-4.4373,-4.3914,-4.3515,-4.305,-4.2539,-4.2238,-4.2045,-4.1948,-4.1654,-4.1489,-4.1423,-4.1423,-4.1423,0.0,0.0,0.0,-4.1423,-4.1489,-4.1522,-4.1442,-4.0595,-3.9807,-3.9057,-3.8036,-3.723,-3.663,-3.6538,-3.6492,-3.6492,-3.6492,-3.6492,-3.6492,-3.6492,-3.6492,-3.6492,-3.6492,-3.6492,-3.6492,-3.6492,-3.6492,-3.6492,-3.6492,-3.6022,-3.5591,-3.5688,-3.5219,-3.4643,-3.4172,-3.4104,-3.379,-3.2726,-3.2469,-3.223,-3.171,-3.1555,-3.1288,-3.074,-3.0638,-3.0399,-2.9813,-2.9757,-2.949,-2.8886,-2.9307,-2.9378,-2.8872,-2.883,-2.8563,-2.7974,-2.7862,-2.7805,-2.7805,-2.7083,-2.6421,-2.5803,-2.5078,-2.4394,-2.3806,-2.3806,-2.3806,-2.8411,-2.8411,-2.8411,-2.8411,-2.8411,-2.8411,-2.8411,-2.8411,-2.8411,-2.8411,-2.8826,-2.915,0.0,-3.0424,0.0,0.0,0.0,0.0,0.0,0.0,0.0,0.0,0.0,0.0,0.0,0.0,0.0,0.0,0.0,0.0,0.0,-4.4356,-4.3898,-4.3426,-4.3336,-4.2958,-4.2174,-4.2142,-4.1818,-4.1256,-4.1205,-4.1003,-4.0662,-4.0662,-4.0662,-4.0662,0.0,-4.0662,-4.0696,-4.1037,-4.1171,-4.1156,-4.1028,-4.0542,-3.9805,-3.8747,-3.7923,-3.7261,-3.6692,-3.6492,-3.6492,-3.6492,-3.6492,-3.6492,-3.6492,-3.6492,-3.6492,-3.6492,-3.6492,-3.6492,-3.6492,-3.6492,-3.6492,-3.6492,-3.5752,-3.5154,-3.5591,-3.4909,-3.4206,-3.4119,-3.4104,-3.3885,-3.3255,-3.275,-3.237,-3.2286,-3.1822,-3.1457,-3.1359,-3.1345,-3.1092,-3.0413,-3.0343,-3.0105,-2.9518,-2.956,-2.956,-2.9476,-2.9462,-2.9195,-2.8577,-2.8087,-2.7805,-2.7805,-2.7116,-2.6468,-2.5803,-2.5129,-2.4434,-2.3806,-2.3806,-2.3806,-2.8411,-2.8411,-2.8411,-2.8411,-2.8411,-2.8411,-2.8411,-2.8411,-2.8411,-2.8411,-2.8597,0.0,0.0,0.0,0.0,0.0,0.0,0.0,0.0,0.0,0.0,0.0,0.0,0.0,0.0,0.0,0.0,0.0,0.0,0.0,0.0,0.0,-4.3456,-4.3047,-4.2787,-4.214,-4.1019,-4.1019,-4.1044,-4.1104,-4.0901,-4.0696,-4.0489,-4.0489,-4.0489,-4.0489,0.0,-4.0489,-4.0524,-4.0696,-4.0765,-4.0765,-4.0765,-4.0362,-3.9681,-3.8835,-3.8077,-3.7461,-3.7153,-3.6799,-3.6492,-3.6492,-3.6492,-3.6492,-3.6492,-3.6492,-3.6492,-3.6492,-3.6492,-3.6492,-3.6492,-3.6492,-3.6492,-3.6492,-3.5688,-3.4975,-3.5219,-3.4423,-3.3667,-3.3667,-3.3667,-3.3612,-3.3347,-3.3087,-3.2904,-3.2904,-3.2665,-3.2356,-3.2033,-3.1991,-3.1738,-3.112,-3.0726,-3.0245,-2.9659,-2.9602,-2.9462,-2.9125,-2.942,-2.9336,-2.8717,-2.8745,-2.8759,-2.8759,-2.8078,-2.7377,-2.6732,-2.6001,-2.5314,-2.4602,-2.4602,-2.4602,-2.8411,-2.8411,-2.8411,-2.8411,-2.8411,-2.8411,-2.8411,-2.8411,-2.8411,-2.8411,-2.8535,0.0,0.0,0.0,0.0,0.0,0.0,0.0,0.0,0.0,0.0,0.0,0.0,0.0,0.0,0.0,0.0,0.0,0.0,0.0,0.0,0.0,-4.2706,-4.231,-4.1933,-4.1149,-3.9838,-3.9838,-4.0055,-4.0487,-4.0183,-4.0028,-4.0028,-4.0182,-4.0259,-4.0259,-4.0428,-4.0489,-4.0489,-4.0489,-4.0489,-4.0489,-4.0489,-4.0074,-3.9428,-3.8939,-3.8323,-3.7707,-3.7554,-3.7153,-3.6707,-3.6538,-3.6492,-3.6492,-3.6492,-3.6492,-3.6492,-3.6492,-3.6492,-3.646,-3.6352,-3.632,-3.6289,-3.6163,-3.5382,-3.471,-3.471,-3.3962,-3.329,-3.329,-3.329,-3.329,-3.329,-3.329,-3.329,-3.329,-3.329,-3.3108,-3.2679,-3.2623,-3.2384,-3.178,-3.126,-3.0656,-2.9883,-2.9827,-2.949,-2.8745,-2.9265,-2.9392,-2.8928,-2.935,-2.9602,-2.9602,-2.8949,-2.8344,-2.7736,-2.6913,-2.6208,-2.5546,-2.537,-2.5312,-2.8411,-2.8411,-2.8411,-2.8411,-2.8411,-2.8411,-2.8411,-2.8411,-2.8411,-2.8411,-2.8879,0.0,0.0,0.0,0.0,0.0,0.0,0.0,0.0,0.0,0.0,0.0,0.0,0.0,0.0,0.0,0.0,0.0,0.0,0.0,0.0,0.0,0.0,-4.0769,-4.0721,-4.0197,-3.9089,-3.9089,-3.8959,-3.8695,-3.8662,-3.8662,-3.8677,-3.9308,-3.9551,-3.9598,-4.0213,-4.0489,-4.0489,-4.0489,-4.0489,-4.0489,-4.0489,-4.0074,-3.9474,-3.9428,-3.9016,-3.8354,-3.7723,-3.7461,-3.7323,-3.6692,-3.6492,-3.6492,-3.6492,-3.6492,-3.6492,-3.6492,-3.6492,-3.6398,-3.5894,-3.5752,-3.5623,-3.5121,-3.4576,-3.4153,-3.4153,-3.3701,-3.329,-3.329,-3.329,-3.329,-3.329,-3.329,-3.329,-3.329,-3.329,-3.3262,-3.322,-3.322,-3.3016,-3.2412,-3.23,-3.178,-3.0526,-3.0427,-2.9954,-2.8759,-2.9265,-2.9588,-2.9546,-2.9588,-2.9602,-2.9602,-2.9257,-2.8849,-2.8427,-2.7451,-2.6735,-2.6311,-2.5616,-2.5312,-2.8411,-2.8411,-2.8411,-2.8411,-2.8411,-2.8411,-2.8411,-2.8735,-2.9002,-2.9002,-2.9566,0.0,0.0,0.0,0.0,0.0,0.0,0.0,0.0,0.0,0.0,0.0,0.0,0.0,0.0,0.0,0.0,0.0,0.0,0.0,0.0,0.0,0.0,-3.9627,-3.9627,-3.9106,-3.807,-3.807,-3.7789,-3.7261,-3.8108,-3.8508,-3.8523,-3.8769,-3.8893,-3.8923,-3.9582,-3.9859,-3.9905,-4.032,-4.0489,-4.0489,-4.0489,-4.0336,-4.0105,-4.0105,-3.969,-3.9046,-3.8354,-3.7861,-3.7384,-3.6707,-3.6492,-3.6492,-3.6492,-3.6492,-3.6492,-3.6492,-3.6492,-3.6398,-3.5847,-3.5688,-3.5544,-3.5023,-3.4476,-3.4104,-3.4104,-3.3667,-3.329,-3.329,-3.329,-3.329,-3.329,-3.329,-3.329,-3.329,-3.329,-3.329,-3.329,-3.329,-3.3192,-3.3002,-3.2623,-3.2061,-3.119,-3.0722,-3.0301,-2.9855,-2.9687,-2.9434,-2.9055,-2.9406,-2.9602,-2.9602,-2.9477,-2.9008,-2.8182,-2.7458,-2.671,-2.5873,-2.5265,-2.4992,-2.8411,-2.8411,-2.8411,-2.8411,-2.8565,-2.8719,-2.8719,-2.9064,-2.9448,-2.9664,-3.0258,-3.0997,-3.1859,0.0,0.0,0.0,0.0,0.0,0.0,0.0,0.0,0.0,0.0,0.0,0.0,0.0,0.0,0.0,0.0,0.0,0.0,0.0,0.0,0.0,-3.854,-3.8086,-3.7184,-3.7184,-3.6953,-3.6507,-3.743,-3.7877,-3.7877,-3.8092,-3.8185,-3.8231,-3.8908,-3.9167,-3.9198,-3.9659,-3.9982,-4.0197,-4.0413,-4.0489,-4.0489,-4.0489,-4.0197,-3.9705,-3.9062,-3.8385,-3.7707,-3.703,-3.6661,-3.6492,-3.6492,-3.6492,-3.6492,-3.6492,-3.6492,-3.6398,-3.5847,-3.5576,-3.5317,-3.4776,-3.4254,-3.3859,-3.3859,-3.3577,-3.329,-3.329,-3.329,-3.329,-3.329,-3.329,-3.329,-3.329,-3.329,-3.329,-3.329,-3.329,-3.329,-3.329,-3.2946,-3.244,-3.1836,-3.1373,-3.1003,-3.0839,-3.0431,-2.9827,-2.9012,-2.9378,-2.9602,-2.9602,-2.9509,-2.9135,-2.8487,-2.7524,-2.6731,-2.607,-2.5194,-2.479,-2.8411,-2.8411,-2.8411,-2.8411,-2.8904,-2.9387,-2.9402,-2.9402,-2.9602,-3.0279,-3.0951,-3.1813,-3.3152,0.0,0.0,0.0,0.0,0.0,0.0,0.0,0.0,0.0,0.0,0.0,0.0,0.0,0.0,0.0,0.0,0.0,0.0,0.0,0.0,0.0,-3.7492,-3.7169,-3.6507,-3.6492,-3.6492,-3.6492,-3.6492,-3.6492,-3.6507,-3.7184,-3.7492,-3.7523,-3.82,-3.8492,-3.8492,-3.8508,-3.8908,-3.9585,-4.0213,-4.0489,-4.0489,-4.0489,-4.0489,-4.0397,-3.9721,-3.9077,-3.84,-3.7723,-3.7046,-3.6492,-3.6492,-3.6492,-3.6492,-3.6492,-3.6492,-3.6398,-3.5847,-3.5317,-3.4776,-3.4221,-3.3701,-3.329,-3.329,-3.329,-3.329,-3.329,-3.329,-3.329,-3.329,-3.329,-3.329,-3.329,-3.329,-3.329,-3.329,-3.329,-3.329,-3.329,-3.329,-3.3073,-3.2469,-3.2412,-3.2145,-3.1541,-3.1485,-3.0923,-2.9673,-2.9617,-2.9617,-2.9617,-2.9257,-2.9257,-2.9571,-2.7637,-2.6867,-2.7144,-2.5523,-2.479,-2.8411,-2.8411,0.0,-2.8411,0.0,0.0,-3.0002,-3.0474,-3.0997,0.0,-3.2336,-3.2921,-3.3336,0.0,0.0,0.0,0.0,0.0,0.0,0.0,0.0,0.0,0.0,0.0,0.0,0.0,0.0,0.0,0.0,0.0,0.0,0.0,0.0,0.0,-3.6799,-3.6692,-3.6492,-3.6492,-3.6492,-3.6492,-3.6492,-3.6492,-3.6507,-3.6707,-3.6799,-3.683,-3.7507,-3.78,-3.7831,-3.8308,-3.8908,-3.9505,-3.9705,-4.0074,-4.0489,-4.0489,-4.0489,-4.0397,-3.9721,-3.9077,-3.84,-3.7723,-3.7046,-3.6492,-3.6492,-3.6492,-3.6492,-3.6492,-3.6492,-3.6398,-3.5847,-3.5317,-3.4776,-3.4221,-3.3701,-3.329,-3.329,-3.329,-3.329,-3.329,-3.329,-3.329,-3.329,-3.329,-3.329,-3.329,-3.329,-3.329,-3.329,-3.329,-3.329,-3.329,-3.329,-3.322,-3.3073,-3.2651,-3.2328,-3.2145,-3.1724,-3.1316,-3.0951,-3.0488,-3.0121,-2.9896,-2.9384,-2.9035,-2.8876,-2.7271,-2.6548,-2.6603,-2.5087,-2.4381,-2.8411,-2.8411,0.0,-2.8735,-2.9294,-3.0033,-3.0997,0.0,0.0,0.0,0.0,-3.3567,0.0,0.0,0.0,0.0,0.0,0.0,0.0,0.0,0.0,0.0,0.0,0.0,0.0,0.0,0.0,0.0,0.0,0.0,0.0,0.0,0.0,0.0,-3.6492,-3.6492,-3.6492,-3.6492,-3.6492,-3.6492,-3.6492,-3.6492,-3.6492,-3.6492,-3.6492,-3.6507,-3.6923,-3.7092,-3.7153,-3.7831,-3.8354,-3.8769,-3.9308,-3.9736,-4.0136,-4.0397,-4.0489,-4.0428,-4.0028,-3.9259,-3.8446,-3.8031,-3.7261,-3.6492,-3.6492,-3.6492,-3.6492,-3.6492,-3.6492,-3.6398,-3.5847,-3.5317,-3.4776,-3.4221,-3.3701,-3.329,-3.329,-3.329,-3.329,-3.329,-3.329,-3.329,-3.329,-3.329,-3.329,-3.329,-3.329,-3.329,-3.329,-3.329,-3.329,-3.329,-3.329,-3.329,-3.329,-3.2988,-3.2778,-3.2778,-3.2426,-3.2216,-3.2216,-3.1226,-3.0554,-3.0356,-2.9833,-2.9358,-2.8913,-2.767,-2.6912,-2.6641,-2.539,-2.4797,-2.8411,-2.8411,-2.8565,-2.9218,-2.994,0.0,-3.2105,-3.2398,-3.2582,-3.326,0.0,0.0,0.0,0.0,0.0,0.0,0.0,0.0,0.0,0.0,0.0,0.0,0.0,0.0,0.0,0.0,0.0,0.0,0.0,0.0,0.0,0.0,0.0,-3.6492,-3.6492,-3.6492,-3.6492,-3.6492,-3.6492,-3.6492,-3.6492,-3.6492,-3.6492,-3.6492,-3.6492,-3.6492,-3.6492,-3.6492,-3.6538,-3.7153,-3.7446,-3.7631,-3.8846,-3.9367,-3.9551,-4.0166,-4.0443,-4.0489,-4.0428,-3.9551,-3.8492,-3.8431,-3.7538,-3.6492,-3.6492,-3.6492,-3.6492,-3.6429,-3.6429,-3.6289,-3.572,-3.5187,-3.4677,-3.4153,-3.3632,-3.329,-3.329,-3.329,-3.329,-3.329,-3.329,-3.329,-3.329,-3.329,-3.329,-3.329,-3.329,-3.329,-3.329,-3.329,-3.329,-3.329,-3.329,-3.329,-3.329,-3.329,-3.329,-3.329,-3.329,-3.329,-3.329,-3.1819,-3.0991,-3.0957,-3.0494,-2.9937,-2.9328,-2.8397,-2.7668,-2.7087,-2.6153,-2.5716,-2.8411,-2.8411,0.0,0.0,-3.0304,-3.1397,-3.2198,-3.2398,-3.2582,0.0,0.0,0.0,0.0,0.0,0.0,0.0,0.0,0.0,0.0,0.0,0.0,0.0,0.0,0.0,0.0,0.0,0.0,0.0,0.0,0.0,0.0,0.0,0.0,-3.6492,-3.6492,-3.6492,-3.6492,-3.6492,-3.6492,0.0,-3.6492,-3.6492,-3.6492,-3.6492,-3.6492,-3.6492,-3.6492,-3.6492,-3.6507,-3.6645,-3.703,-3.7523,-3.7815,-3.8585,-3.9539,-3.9644,-4.0043,-4.0413,-3.989,-3.9167,-3.8415,-3.7892,-3.7153,-3.6492,-3.6492,-3.6492,-3.6429,-3.599,-3.5847,-3.5655,-3.4677,-3.4341,-3.4153,-3.3612,-3.3382,-3.329,-3.329,-3.329,-3.329,-3.329,-3.329,-3.329,-3.329,-3.329,-3.329,-3.329,-3.329,-3.329,-3.329,-3.329,-3.329,-3.329,-3.329,-3.329,-3.329,-3.329,-3.329,-3.329,-3.329,-3.329,-3.329,-3.2222,-3.1461,-3.1231,-3.0365,-2.9588,-2.8925,-2.8047,-2.7422,-2.7087,-2.6153,-2.5716,-2.8488,-2.8411,0.0,-2.9617,0.0,-3.1967,-3.2321,-3.2398,0.0,0.0,0.0,0.0,0.0,0.0,0.0,0.0,0.0,0.0,0.0,0.0,0.0,0.0,0.0,0.0,0.0,0.0,0.0,0.0,0.0,0.0,0.0,-3.6492,-3.6492,-3.6492,-3.6492,-3.6492,-3.6492,-3.6492,-3.6492,-3.6492,-3.6492,-3.6492,-3.6492,-3.6492,-3.6492,-3.6492,-3.6492,-3.6492,-3.6492,-3.6492,-3.6707,-3.7046,-3.7369,-3.8123,-3.9077,-3.9367,-3.9905,-4.0397,-3.9721,-3.9077,-3.84,-3.7723,-3.7046,-3.6492,-3.6492,-3.6492,-3.6398,-3.5847,-3.5688,-3.5447,-3.4375,-3.4104,-3.3948,-3.3417,-3.329,-3.329,-3.329,-3.329,-3.329,-3.329,-3.329,-3.329,-3.329,-3.329,-3.329,-3.329,-3.329,-3.329,-3.329,-3.329,-3.329,-3.329,-3.3122,-3.3016,-3.3016,-3.2838,-3.2731,-3.2731,-3.2731,-3.2731,-3.2731,-3.2058,-3.1702,-3.1667,-3.1012,-3.024,-2.9372,-2.8925,-2.8322,-2.7606,-2.7125,-2.6704,-2.8735,-2.8673,-2.9027,-3.0125,-3.1413,0.0,-3.2398,-3.2398,0.0,0.0,0.0,0.0,0.0,0.0,0.0,0.0,0.0,0.0,0.0,0.0,0.0,0.0,0.0,0.0,0.0,0.0,0.0,0.0,0.0,0.0,-3.6492,-3.6492,-3.6492,-3.6492,-3.6492,-3.6492,-3.6492,-3.6492,-3.6492,-3.6492,-3.6492,-3.6492,-3.6492,-3.6492,-3.6492,-3.6492,-3.6492,-3.6492,-3.6492,-3.6492,-3.6492,-3.6553,-3.7107,-3.7738,-3.8415,-3.9093,-3.9736,-4.0228,-3.9551,-3.897,-3.8385,-3.7584,-3.6953,-3.6492,-3.6492,-3.6492,-3.6367,-3.5752,-3.5559,-3.5317,-3.4254,-3.3948,-3.3859,-3.3417,-3.329,-3.329,-3.329,-3.329,-3.329,-3.329,-3.329,-3.329,-3.329,-3.329,-3.329,-3.329,-3.329,-3.329,-3.329,-3.329,-3.329,-3.329,-3.3016,-3.2775,-3.2704,-3.2381,-3.2164,-3.2092,-3.2092,-3.2092,-3.2092,-3.185,-3.1776,-3.2019,-3.1666,-3.0985,-2.9999,-2.9999,-2.9419,-2.8367,-2.8259,-2.7898,-2.9254,0.0,-3.0171,0.0,-3.1413,-3.2398,0.0,0.0,0.0,0.0,0.0,0.0,0.0,0.0,0.0,0.0,0.0,0.0,0.0,0.0,0.0,0.0,0.0,0.0,0.0,0.0,0.0,0.0,0.0,0.0,-3.6492,-3.6492,-3.6492,-3.6492,-3.6492,-3.6492,-3.6492,-3.6492,-3.6492,-3.6492,-3.6492,-3.6492,-3.6492,-3.6492,-3.6492,-3.6492,-3.6492,-3.6492,-3.6492,-3.6492,-3.6492,-3.6507,-3.6599,-3.703,-3.7707,-3.84,-3.9077,-3.9521,-3.8877,-3.8585,-3.8292,-3.703,-3.6569,-3.6492,-3.6492,-3.6492,-3.6289,-3.5285,-3.5023,-3.4758,-3.3681,-3.3417,-3.3382,-3.3326,-3.329,-3.329,-3.329,-3.329,-3.329,-3.329,-3.329,-3.329,-3.329,-3.329,-3.329,-3.329,-3.329,-3.329,-3.329,-3.329,-3.329,-3.329,-3.3241,-3.3086,-3.2739,-3.2668,-3.2489,-3.2128,-3.2092,-3.2092,-3.2092,-3.2055,-3.1909,-3.1666,-3.1272,-3.0697,-2.9999,-2.9999,-2.9639,-2.8976,-2.8435,-2.8139,-2.9919,-3.0119,-3.0479,0.0,-3.1397,-3.1921,-3.2305,0.0,0.0,0.0,0.0,0.0,0.0,0.0,0.0,0.0,0.0,0.0,0.0,0.0,0.0,0.0,0.0,0.0,0.0,0.0,0.0,0.0,0.0,-3.6492,-3.6492,-3.6492,-3.6492,-3.6492,-3.6492,-3.6492,-3.6492,-3.6492,-3.6492,-3.6492,-3.6492,-3.6492,-3.6492,-3.6492,-3.6492,-3.6492,-3.6492,-3.6492,-3.6492,-3.6492,-3.6492,-3.6492,-3.6492,-3.7138,-3.8108,-3.84,-3.9136,-3.9951,-3.9308,-3.9077,-3.8846,-3.7507,-3.7061,-3.6984,-3.6599,-3.6492,-3.6289,-3.5219,-3.4909,-3.4658,-3.3577,-3.329,-3.329,-3.329,-3.329,-3.329,-3.329,-3.329,-3.329,-3.329,-3.329,-3.329,-3.329,-3.329,-3.329,-3.329,-3.329,-3.329,-3.329,-3.329,-3.329,-3.329,-3.3086,-3.2895,-3.2704,-3.2309,-3.2019,-3.185,-3.1593,-3.1482,-3.1482,-3.1482,-3.1421,-3.1272,-3.131,-3.1073,-3.0545,-3.0545,-3.0228,-2.96,-2.9341,-2.8831,0.0,0.0,-3.0477,-3.1175,-3.1344,-3.154,0.0,0.0,0.0,0.0,0.0,0.0,0.0,0.0,0.0,0.0,0.0,0.0,0.0,0.0,0.0,0.0,0.0,0.0,0.0,0.0,0.0,0.0,0.0,-3.6492,-3.6492,-3.6492,-3.6492,-3.6492,-3.6492,-3.6492,-3.6492,-3.6492,-3.6492,-3.6492,-3.6492,-3.6492,-3.6492,-3.6492,-3.6492,-3.6492,-3.6492,-3.6492,-3.6492,-3.6492,-3.6492,-3.6492,-3.6492,-3.7215,-3.8277,-3.8446,-3.9262,-4.0166,-3.9659,-3.949,-3.929,-3.8138,-3.7534,-3.7192,-3.6687,-3.6427,-3.6085,-3.5139,-3.4909,-3.4677,-3.3736,-3.3417,-3.3333,-3.3473,-3.3515,-3.3473,-3.3319,-3.329,-3.329,-3.329,-3.3403,-3.3515,-3.3515,-3.3677,-3.3789,-3.3789,-3.3663,-3.348,-3.3395,-3.3219,-3.31,-3.303,-3.2717,-3.2525,-3.2417,-3.1909,-3.1556,-3.1445,-3.1161,-3.0986,-3.0986,-3.0986,-3.0986,-3.0986,-3.1272,-3.131,-3.0986,-3.0986,-3.0748,-3.0241,-3.0075,-2.9535,0.0,-3.0035,0.0,-3.1002,-3.1209,0.0,0.0,0.0,0.0,0.0,0.0,0.0,0.0,0.0,0.0,0.0,0.0,0.0,0.0,0.0,0.0,0.0,0.0,0.0,0.0,0.0,0.0,0.0,0.0,-3.6492,-3.6492,-3.6492,-3.6492,-3.6492,-3.6492,-3.6492,-3.6492,-3.6492,-3.6492,-3.6492,-3.6492,-3.6492,-3.6492,-3.6492,-3.6492,-3.6492,-3.6492,-3.6492,-3.6492,-3.6492,-3.6492,-3.6492,-3.6492,-3.6923,-3.7631,-3.8277,-3.897,-3.9536,-3.949,-3.949,-3.9367,-3.8692,-3.7674,-3.6733,-3.6703,-3.625,-3.5623,-3.5055,-3.4909,-3.4776,-3.4206,-3.3667,-3.3431,-3.402,-3.4147,-3.3992,-3.3403,-3.329,-3.329,-3.329,-3.3754,-3.4147,-3.4147,-3.4674,-3.5091,-3.5091,-3.4562,-3.4038,-3.3633,-3.3099,-3.2596,-3.22,-3.2128,-3.1982,-3.1666,-3.1629,-3.1445,-3.1061,-3.1024,-3.0986,-3.0986,-3.0986,-3.0986,-3.0986,-3.1024,-3.1024,-3.0986,-3.0986,-3.0986,-3.0936,-3.0317,-2.996,0.0,0.0,0.0,-3.1109,-3.1197,0.0,0.0,0.0,0.0,0.0,0.0,0.0,0.0,0.0,0.0,0.0,0.0,0.0,0.0,0.0,0.0,0.0,0.0,0.0,0.0,0.0,0.0,0.0,0.0,0.0,-3.6492,-3.6492,-3.6492,-3.6492,-3.6492,-3.6492,-3.6492,-3.6492,-3.6492,-3.6492,-3.6492,-3.6492,-3.6492,-3.6492,-3.6492,-3.6492,-3.6492,-3.6492,-3.6492,-3.6492,-3.6492,-3.6492,-3.6492,-3.6907,-3.7584,-3.8262,-3.8939,-3.9551,-3.9982,-4.0136,-4.0028,-3.9351,-3.8852,-3.8327,-3.7537,-3.7101,-3.6753,-3.5868,-3.559,-3.5485,-3.4932,-3.4659,-3.4548,-3.4773,-3.4829,-3.4795,-3.4584,-3.4528,-3.4528,-3.4528,-3.4674,-3.4829,-3.4829,-3.5048,-3.5189,-3.5189,-3.5006,-3.4638,-3.405,-3.3567,-3.3059,-3.253,-3.2237,-3.2055,-3.1909,-3.174,-3.1519,-3.1384,-3.1123,-3.0986,-3.0986,-3.0986,-3.0986,-3.0986,-3.0986,-3.0986,-3.0986,-3.0986,-3.0986,-3.0986,-3.0748,-3.0394,-3.1698,0.0,0.0,0.0,0.0,0.0,0.0,0.0,0.0,0.0,0.0,0.0,0.0,0.0,0.0,0.0,0.0,0.0,0.0,0.0,0.0,0.0,0.0,0.0,0.0,0.0,0.0,0.0,0.0,0.0,-3.6492,-3.6492,-3.6492,-3.6492,-3.6492,-3.6492,-3.6492,-3.6492,-3.6492,-3.6492,-3.6492,-3.6492,-3.6492,-3.6492,-3.6492,-3.6492,-3.6492,-3.6492,-3.6492,-3.6492,-3.6492,-3.6492,-3.6492,-3.6907,-3.7584,-3.8262,-3.879,-3.9329,-4.019,-4.0385,-4.017,-3.9932,-3.9557,-3.9078,-3.8232,-3.7657,-3.7168,-3.6485,-3.6143,-3.5942,-3.5543,-3.5381,-3.5311,-3.5461,-3.5555,-3.5633,-3.577,-3.5484,-3.5189,-3.5189,-3.5358,-3.5498,-3.5498,-3.5569,-3.5595,-3.5595,-3.53,-3.4895,-3.4492,-3.3716,-3.3046,-3.2686,-3.2104,-3.174,-3.174,-3.1519,-3.1421,-3.1421,-3.1161,-3.0986,-3.0986,-3.0986,-3.0986,-3.0986,-3.0986,-3.0986,-3.0986,-3.0986,-3.0986,-3.0986,-3.0986,-3.0748,0.0,0.0,0.0,0.0,0.0,0.0,0.0,0.0,0.0,0.0,0.0,0.0,0.0,0.0,0.0,0.0,0.0,0.0,0.0,0.0,0.0,0.0,0.0,0.0,0.0,0.0,0.0,0.0,0.0,-3.6492,-3.6492,-3.6492,-3.6492,-3.6492,-3.6492,-3.6492,-3.6492,-3.6492,-3.6492,-3.6492,-3.6492,-3.6492,-3.6492,-3.6492,-3.6492,-3.6492,-3.6492,-3.6492,-3.6492,-3.6492,-3.6492,-3.6492,-3.6492,-3.6892,-3.7554,-3.8262,-3.8525,-3.8736,-4.0021,-4.0106,-3.9753,-4.0281,-3.9684,-3.8721,-3.8721,-3.7839,-3.6831,-3.6831,-3.6422,-3.6021,-3.6021,-3.5742,-3.5557,-3.5979,-3.6261,-3.651,-3.6875,-3.6051,-3.5245,-3.5245,-3.5723,-3.6131,-3.6131,-3.6303,-3.6391,-3.6405,-3.5512,-3.4855,-3.4906,-3.3465,-3.2475,-3.2524,-3.1604,-3.1013,-3.1013,-3.0999,-3.0986,-3.0986,-3.0986,-3.0986,-3.0986,-3.0986,-3.0986,-3.0986,-3.0986,-3.0986,-3.0986,-3.0986,-3.0986,-3.0986,-3.0986,-3.0986,-3.1511,0.0,0.0,0.0,0.0,0.0,-3.1371,-3.1827,0.0,0.0,0.0,0.0,0.0,0.0,0.0,0.0,0.0,0.0,0.0,0.0,0.0,0.0,0.0,0.0,0.0,0.0,0.0,0.0,-3.6492,-3.6492,-3.6492,-3.6492,-3.6492,-3.6492,-3.6492,-3.6492,-3.6492,-3.6492,-3.6492,-3.6492,-3.6492,-3.6492,-3.6492,-3.6492,-3.6492,-3.6492,-3.6492,-3.6492,-3.6492,-3.6492,-3.6492,-3.6492,-3.6492,-3.6599,-3.6907,-3.8077,-3.8235,-3.8065,-3.945,-3.9523,-3.9162,-3.9753,-3.9403,-3.8756,-3.8756,-3.8238,-3.7488,-3.7053,-3.6841,-3.6741,-3.6741,-3.642,-3.6182,-3.63,-3.6094,-3.5924,-3.6031,-3.6062,-3.6153,-3.6448,-3.6652,-3.6764,-3.6764,-3.6802,-3.6733,-3.6431,-3.6134,-3.5701,-3.4935,-3.4151,-3.3554,-3.3127,-3.2185,-3.1562,-3.1562,-3.1222,-3.0986,-3.0986,-3.0986,-3.0986,-3.0986,-3.0986,-3.0986,-3.0986,-3.0986,-3.0986,-3.0986,-3.0986,-3.0986,-3.0986,-3.0986,-3.0986,-3.1511,-3.1511,-3.1406,0.0,0.0,0.0,-3.1483,-3.1805,-3.2219,0.0,0.0,0.0,0.0,0.0,0.0,0.0,0.0,0.0,0.0,0.0,0.0,0.0,0.0,0.0,0.0,0.0,0.0,-3.5675,-3.5907,-3.6184,-3.6476,-3.6492,-3.6492,-3.6492,-3.6492,-3.6492,-3.6492,-3.6492,-3.6492,-3.6492,-3.6492,-3.6492,-3.6492,-3.6492,-3.6492,-3.6492,-3.6492,-3.6492,-3.6492,-3.6492,-3.6492,-3.6492,-3.6492,-3.6492,-3.6661,-3.8015,-3.798,-3.7451,-3.9128,-3.9126,-3.8523,-3.9126,-3.909,-3.887,-3.909,-3.856,-3.7886,-3.7772,-3.7404,-3.6978,-3.6978,-3.6693,-3.6405,-3.6405,-3.6058,-3.571,-3.571,-3.5924,-3.6218,-3.6654,-3.6875,-3.6978,-3.6978,-3.6875,-3.6654,-3.6445,-3.6072,-3.5695,-3.5248,-3.4473,-3.3887,-3.3701,-3.2791,-3.2058,-3.1823,-3.1497,-3.1248,-3.0999,-3.0986,-3.0986,-3.0986,-3.0986,-3.0986,-3.0986,-3.0986,-3.0986,-3.0986,-3.0986,-3.0986,-3.0986,-3.0986,-3.0986,-3.1511,-3.1511,-3.1511,0.0,0.0,0.0,-3.1912,-3.2038,-3.2191,0.0,0.0,0.0,0.0,0.0,0.0,0.0,0.0,0.0,0.0,0.0,0.0,0.0,0.0,0.0,0.0,-3.4459,-3.4505,-3.4505,-3.5059,-3.566,-3.6338,-3.6384,-3.6415,-3.6492,-3.6492,-3.6492,-3.6492,-3.6492,-3.6492,-3.6492,-3.6492,-3.6492,-3.6492,-3.6492,-3.6492,-3.6492,-3.6492,-3.6492,-3.6492,-3.6492,-3.6492,-3.6492,-3.6492,-3.6492,-3.6661,-3.8015,-3.7797,-3.7068,-3.9022,-3.8929,-3.8075,-3.8634,-3.8745,-3.8782,-3.9343,-3.8708,-3.7886,-3.8412,-3.7772,-3.6915,-3.6861,-3.6575,-3.6272,-3.6272,-3.5898,-3.5548,-3.5548,-3.5602,-3.5764,-3.6192,-3.6575,-3.6861,-3.6861,-3.6575,-3.6312,-3.6272,-3.5616,-3.5195,-3.5507,-3.447,-3.3842,-3.4179,-3.3383,-3.2581,-3.2045,-3.1941,-3.1654,-3.1117,-3.1078,-3.1052,-3.0986,-3.0986,-3.0986,-3.0986,-3.0986,-3.0986,-3.0986,-3.0986,-3.0986,-3.0986,-3.0986,-3.0986,0.0,0.0,0.0,0.0,0.0,0.0,-3.1597,-3.1741,-3.1898,0.0,0.0,0.0,0.0,0.0,0.0,0.0,0.0,0.0,0.0,0.0,0.0,0.0,0.0,0.0,0.0,-3.4166,-3.4505,-3.4505,-3.4628,-3.4998,-3.5645,-3.5722,-3.5922,-3.6476,-3.6492,-3.6492,-3.6492,-3.6492,-3.6492,-3.6492,-3.6492,-3.6492,-3.6492,-3.6492,-3.6492,-3.6492,-3.6492,-3.6492,-3.6492,-3.6492,-3.6492,-3.6492,-3.6492,-3.6492,-3.6661,-3.8015,-3.8047,-3.7638,-3.9179,-3.9235,-3.8634,-3.8745,-3.8486,-3.8113,-3.8225,-3.7734,-3.7134,-3.6915,-3.6693,-3.6431,-3.6031,-3.5642,-3.5372,-3.5372,-3.499,-3.4647,-3.4647,-3.4936,-3.5236,-3.5331,-3.5683,-3.5951,-3.5951,-3.5884,-3.5723,-3.5413,-3.5208,-3.499,-3.4688,-3.443,-3.4282,-3.4365,-3.3785,-3.3378,-3.326,-3.2803,-3.228,-3.1667,-3.1628,-3.147,-3.0999,-3.0986,-3.0986,-3.0986,-3.0986,-3.0986,-3.0986,-3.0986,-3.0986,-3.0986,-3.0986,-3.0986,0.0,0.0,0.0,-3.1511,0.0,0.0,0.0,-3.1727,-3.1813,0.0,0.0,0.0,0.0,0.0,0.0,0.0,0.0,0.0,0.0,0.0,0.0,0.0,0.0,0.0,0.0,-3.3257,-3.3596,-3.3921,-3.3937,-3.4383,-3.543,-3.5506,-3.5799,-3.6476,-3.6492,-3.6492,-3.6492,-3.6492,-3.6492,-3.6492,-3.6492,-3.6492,-3.6492,-3.6492,-3.6492,-3.6492,-3.6492,-3.6492,-3.6492,-3.6492,-3.6492,-3.6492,-3.6492,-3.6352,-3.6252,-3.756,-3.7696,-3.7397,-3.8773,-3.9053,-3.8782,-3.8782,-3.8412,-3.7962,-3.8263,-3.7924,-3.7289,-3.6589,-3.6405,-3.6272,-3.5804,-3.5562,-3.5358,-3.5154,-3.4908,-3.4701,-3.4439,-3.4564,-3.4743,-3.4743,-3.4895,-3.5182,-3.5642,-3.571,-3.5642,-3.544,-3.5236,-3.5031,-3.4784,-3.4522,-3.4397,-3.4397,-3.4162,-3.3888,-3.3613,-3.3313,-3.2894,-3.2306,-3.2267,-3.2136,-3.1849,-3.1561,-3.1274,-3.0999,-3.0986,-3.0986,-3.0986,-3.0986,-3.0986,-3.0986,-3.0986,-3.0986,0.0,0.0,0.0,0.0,0.0,-3.138,0.0,0.0,0.0,0.0,0.0,0.0,0.0,0.0,0.0,0.0,0.0,0.0,0.0,0.0,0.0,0.0,0.0,0.0,0.0,-3.2398,-3.2613,-3.3167,-3.3213,-3.3752,-3.5014,-3.5244,-3.5629,-3.6276,-3.643,-3.6492,-3.6492,-3.6492,-3.6492,-3.6492,-3.6492,-3.6492,-3.6492,-3.6492,-3.6492,-3.6492,-3.6492,-3.6492,-3.6492,-3.6492,-3.6492,-3.6492,-3.6492,-3.6226,-3.5999,-3.7029,-3.7187,-3.7004,-3.8271,-3.8627,-3.8546,-3.8583,-3.815,-3.7696,-3.8188,-3.8037,-3.7505,-3.6536,-3.6272,-3.6152,-3.5602,-3.5467,-3.5386,-3.5031,-3.4962,-3.4867,-3.4481,-3.4397,-3.4397,-3.4397,-3.4397,-3.4605,-3.5345,-3.5467,-3.5467,-3.5467,-3.5154,-3.4962,-3.4962,-3.4605,-3.4397,-3.4397,-3.4397,-3.4214,-3.3783,-3.3744,-3.3496,-3.2894,-3.2868,-3.2816,-3.2698,-3.2111,-3.1588,-3.1156,-3.1039,-3.0986,-3.0986,-3.0986,-3.0986,-3.0986,-3.0986,-3.0986,0.0,0.0,0.0,0.0,-3.1058,0.0,0.0,0.0,0.0,0.0,0.0,0.0,0.0,0.0,0.0,0.0,0.0,0.0,0.0,0.0,0.0,0.0,0.0,0.0,0.0,0.0,-3.2428,-3.2505,-3.2505,-3.2844,-3.3598,-3.4274,-3.4936,-3.5598,-3.6184,-3.6492,-3.6492,-3.6492,-3.6492,-3.6492,-3.6492,-3.6492,-3.6492,-3.6492,-3.6492,-3.6492,-3.6492,-3.6492,-3.6492,-3.6492,-3.6492,-3.6492,-3.6492,-3.646,-3.6444,-3.6713,-3.69,-3.7124,-3.8077,-3.8106,-3.7677,-3.7866,-3.7299,-3.6589,-3.6668,-3.6875,-3.694,-3.6031,-3.5804,-3.5602,-3.4771,-3.4564,-3.4522,-3.4481,-3.4481,-3.4481,-3.4397,-3.4397,-3.4397,-3.4397,-3.4397,-3.4439,-3.4522,-3.4564,-3.4564,-3.4564,-3.4522,-3.4481,-3.4481,-3.4439,-3.4397,-3.4397,-3.4397,-3.4371,-3.4306,-3.4306,-3.4071,-3.3522,-3.3496,-3.3247,-3.2712,-3.2111,-3.1771,-3.1706,-3.1248,-3.0986,-3.0986,-3.0986,-3.0986,-3.0986,-3.0986,-3.0986,0.0,0.0,0.0,0.0,0.0,0.0,0.0,0.0,-3.0584,0.0,0.0,0.0,0.0,0.0,0.0,0.0,0.0,0.0,0.0,0.0,0.0,0.0,0.0,0.0,0.0,0.0,0.0,0.0,0.0,-3.269,-3.3367,-3.412,-3.4813,-3.5491,-3.6138,-3.6492,-3.6492,-3.6492,-3.6492,-3.6492,-3.6492,-3.6492,-3.6492,-3.6492,-3.6492,-3.6492,-3.6492,-3.6492,-3.6492,-3.6383,-3.6352,-3.632,-3.6226,-3.6132,-3.6098,-3.6491,-3.6724,-3.7,-3.7771,-3.7974,-3.7776,-3.7256,-3.6819,-3.6468,-3.6085,-3.6125,-3.6111,-3.5521,-3.5358,-3.5195,-3.4564,-3.4397,-3.4397,-3.4397,-3.4397,-3.4397,-3.4397,-3.4397,-3.4397,-3.4397,-3.4397,-3.4397,-3.4397,-3.4397,-3.4397,-3.4397,-3.4397,-3.4397,-3.4397,-3.4397,-3.4397,-3.4397,-3.4397,-3.4397,-3.4397,-3.4397,-3.4293,-3.4071,-3.4058,-3.3809,-3.3247,-3.2986,-3.2698,-3.2346,-3.2097,-3.181,-3.1445,-3.1445,-3.1313,-3.0986,-3.0986,-3.0986,-3.2961,0.0,0.0,0.0,0.0,0.0,0.0,0.0,0.0,0.0,0.0,0.0,0.0,0.0,0.0,-3.0895,0.0,0.0,0.0,0.0,0.0,0.0,0.0,0.0,0.0,0.0,0.0,0.0,0.0,-3.2613,-3.3106,-3.3798,-3.452,-3.5213,-3.5891,-3.6307,-3.6492,-3.6492,-3.6492,-3.6492,-3.6492,-3.6492,-3.6492,-3.6492,-3.6492,-3.6492,-3.6492,-3.6492,-3.6492,-3.6352,-3.6133,-3.5896,-3.5784,-3.5512,-3.5231,-3.5953,-3.6234,-3.6386,-3.7145,-3.7462,-3.742,-3.636,-3.607,-3.6123,-3.5669,-3.5602,-3.5642,-3.5195,-3.5086,-3.499,-3.4522,-3.4397,-3.4397,-3.4397,-3.4397,-3.4397,-3.4397,-3.4397,-3.4397,-3.4397,-3.4397,-3.4397,-3.4397,-3.4397,-3.4397,-3.4397,-3.4397,-3.4397,-3.4397,-3.4397,-3.4397,-3.4397,-3.4397,-3.4397,-3.4397,-3.4397,-3.4397,-3.4397,-3.4397,-3.4228,-3.3822,-3.3679,-3.3378,-3.2947,-3.2777,-3.2489,-3.2032,-3.2032,-3.1784,-3.1222,-3.1065,-3.0986,0.0,0.0,0.0,-3.257,0.0,0.0,0.0,0.0,-2.9721,0.0,0.0,0.0,0.0,0.0,-3.0277,-2.9668,-3.0088,0.0,0.0,0.0,0.0,0.0,0.0,0.0,0.0,0.0,0.0,0.0,0.0,0.0,-3.2428,-3.3059,-3.3767,-3.452,-3.5198,-3.583,-3.6476,-3.6492,-3.6492,-3.6492,-3.6492,-3.6492,-3.6492,-3.6492,-3.6492,-3.6492,-3.6492,-3.6492,-3.6492,-3.6492,-3.5975,-3.5142,-3.5142,-3.4566,-3.3876,-3.4872,-3.5116,-3.5101,-3.6027,-3.6338,-3.6136,-3.4868,-3.4784,-3.5154,-3.5127,-3.5399,-3.5642,-3.5195,-3.5086,-3.499,-3.4522,-3.4397,-3.4397,-3.4397,-3.4397,-3.4397,-3.4397,-3.4397,-3.4397,-3.4397,-3.4397,-3.4397,-3.4397,-3.4397,-3.4397,-3.4397,-3.4397,-3.4397,-3.4397,-3.4397,-3.4397,-3.4397,-3.4397,-3.4397,-3.4397,-3.4397,-3.4397,-3.4397,-3.4397,-3.4384,-3.4371,-3.3875,-3.3587,-3.3561,-3.2986,-3.2685,-3.2659,-3.2659,-3.2372,-3.1758,-3.1248,-3.0986,0.0,0.0,-3.4007,-3.3311,0.0,0.0,0.0,0.0,0.0,0.0,0.0,0.0,0.0,0.0,-2.9244,-2.9452,-2.933,-2.9244,0.0,0.0,0.0,0.0,0.0,0.0,0.0,0.0,0.0,0.0,-3.2287,0.0,0.0,-3.3044,-3.3737,-3.4474,-3.5152,-3.5814,-3.6476,-3.6492,-3.6492,-3.6492,-3.6383,-3.6305,-3.6305,-3.6195,-3.6163,-3.6163,-3.6163,-3.6163,-3.6163,-3.6163,-3.5623,-3.4762,-3.4762,-3.4211,-3.3443,-3.3993,-3.4513,-3.5024,-3.5497,-3.5567,-3.5372,-3.4647,-3.4522,-3.466,-3.466,-3.4729,-3.4812,-3.4701,-3.466,-3.4605,-3.4439,-3.4397,-3.4397,-3.4397,-3.4397,-3.4397,-3.4397,-3.4397,-3.4397,-3.4397,-3.4397,-3.4397,-3.4397,-3.4397,-3.4397,-3.4397,-3.4397,-3.4397,-3.4397,-3.4397,-3.4397,-3.4397,-3.4397,-3.4397,-3.4397,-3.4397,-3.4397,-3.4397,-3.4397,-3.4397,-3.4397,-3.4228,-3.4123,-3.4123,-3.3927,-3.3639,-3.3287,-3.3287,-3.2986,-3.2398,-3.2202,-3.1705,-3.4966,-3.4846,0.0,-3.3947,-3.3648,0.0,-3.1943,0.0,0.0,0.0,0.0,0.0,0.0,0.0,-2.8998,-2.9411,-2.8935,-2.8565,0.0,-2.8794,0.0,0.0,0.0,0.0,0.0,0.0,0.0,-3.2135,-3.2247,0.0,0.0,0.0,-3.3475,-3.4474,-3.4936,-3.5598,-3.6476,-3.6492,-3.6492,-3.6492,-3.6305,-3.6196,-3.6211,-3.6068,-3.6005,-3.6005,-3.6005,-3.6005,-3.6005,-3.6005,-3.5462,-3.4562,-3.4327,-3.363,-3.2861,-3.3339,-3.4065,-3.4786,-3.4626,-3.4833,-3.5031,-3.4564,-3.4397,-3.4397,-3.4397,-3.4397,-3.4358,-3.4162,-3.4241,-3.4358,-3.4162,-3.4254,-3.4397,-3.4397,-3.4397,-3.4397,-3.4397,-3.4397,-3.4397,-3.4397,-3.4397,-3.4397,-3.4397,-3.4397,-3.4397,-3.4397,-3.4397,-3.4397,-3.4397,-3.4397,-3.4397,-3.4397,-3.4397,-3.4397,-3.4397,-3.4397,-3.4397,-3.4397,-3.4397,-3.4397,-3.4397,-3.4397,-3.4397,-3.4397,-3.4397,-3.4228,-3.3875,-3.3875,-3.3587,-3.3012,-3.3012,-3.2398]},{"header":{"parameterUnit":"m.s-1","parameterCategory":1,"la1":30.6,"la2":29.2853,"lo1":-89.7004,"lo2":-87.6739,"dy":0.0162,"dx":0.0183,"nx":112,"ny":82,"refTime":"2024-04-27T06:00:00:Z","depth":0,"parameterNumber":3,"parameterNumberName":"V-component_of_WINDS"},"data":[0.0,0.0,0.0,0.0,0.0,0.0,0.0,0.0,0.0,0.0,0.0,0.0,0.0,0.0,0.0,0.0,0.0,0.0,0.0,0.0,0.0,0.0,0.0,0.0,0.0,0.0,0.0,0.0,0.0,0.0,0.0,0.0,0.0,0.0,0.0,0.0,0.0,0.0,0.0,0.0,0.0,0.0,0.0,0.0,0.0,0.0,0.0,0.0,0.0,0.0,0.0,0.0,0.0,0.0,0.0,0.0,0.0,0.0,0.0,0.0,0.0,0.0,0.0,0.0,0.0,0.0,0.0,0.0,0.0,0.0,0.0,0.0,0.0,0.0,0.0,0.0,0.0,0.0,0.0,0.0,0.0,0.0,0.0,0.0,0.0,0.0,0.0,0.0,0.0,0.0,0.0,1.473,1.4777,1.4918,1.5209,1.5314,1.5492,1.5784,0.0,0.0,0.0,0.0,0.0,0.0,0.0,0.0,0.0,0.0,0.0,0.0,0.0,0.0,0.0,0.0,0.0,0.0,0.0,0.0,0.0,0.0,0.0,0.0,0.0,0.0,0.0,0.0,0.0,0.0,0.0,0.0,0.0,0.0,0.0,0.0,0.0,0.0,0.0,0.0,0.0,0.0,0.0,0.0,0.0,0.0,0.0,0.0,0.0,0.0,0.0,0.0,0.0,0.0,0.0,0.0,0.0,0.0,0.0,0.0,0.0,0.0,0.0,0.0,0.0,0.0,0.0,0.0,0.0,0.0,0.0,0.0,0.0,0.0,0.0,0.0,0.0,0.0,0.0,0.0,0.0,0.0,0.0,0.0,0.0,0.0,0.0,0.0,0.0,0.0,0.0,0.0,0.0,0.0,0.0,0.0,0.0,0.0,0.0,0.0,0.0,0.0,0.0,0.0,1.5012,1.4445,1.4636,1.4824,1.4872,1.5388,1.5755,1.5799,0.0,0.0,0.0,0.0,0.0,0.0,0.0,0.0,0.0,0.0,0.0,0.0,0.0,0.0,0.0,0.0,0.0,0.0,0.0,0.0,0.0,0.0,0.0,0.0,0.0,0.0,0.0,0.0,0.0,0.0,0.0,0.0,0.0,0.0,0.0,0.0,0.0,0.0,0.0,0.0,0.0,0.0,0.0,0.0,0.0,0.0,0.0,0.0,0.0,0.0,0.0,0.0,0.0,0.0,0.0,0.0,0.0,0.0,0.0,0.0,0.0,0.0,0.0,0.0,0.0,0.0,0.0,0.0,0.0,0.0,0.0,0.0,0.0,0.0,0.0,0.0,0.0,0.0,0.0,0.0,0.0,0.0,0.0,0.0,0.0,0.0,0.0,0.0,0.0,0.0,0.0,0.0,0.0,0.0,0.0,0.0,0.0,0.0,0.0,0.0,0.0,0.0,0.0,1.4718,1.4383,1.4056,1.417,1.4413,1.4777,1.5072,1.5418,1.5827,1.5842,0.0,0.0,0.0,0.0,0.0,0.0,0.0,0.0,0.0,0.0,0.0,0.0,0.0,0.0,0.0,0.0,0.0,0.0,0.0,0.0,0.0,0.0,0.0,0.0,0.0,0.0,0.0,0.0,0.0,0.0,0.0,0.0,0.0,0.0,0.0,0.0,0.0,0.0,0.0,0.0,0.0,0.0,0.0,0.0,0.0,0.0,0.0,0.0,0.0,0.0,0.0,0.0,0.0,0.0,0.0,0.0,0.0,0.0,0.0,0.0,0.0,0.0,0.0,0.0,0.0,0.0,0.0,0.0,0.0,0.0,0.0,0.0,0.0,0.0,0.0,0.0,0.0,0.0,0.0,0.0,0.0,0.0,0.0,0.0,0.0,0.0,0.0,0.0,0.0,0.0,0.0,0.0,0.0,0.0,0.0,0.0,0.0,0.0,0.0,0.0,0.0,0.0,1.417,1.3804,1.3804,1.3871,1.4154,1.4761,1.4872,1.5193,1.5871,1.59,0.0,0.0,0.0,0.0,0.0,0.0,0.0,0.0,0.0,0.0,0.0,0.0,0.0,0.0,0.0,0.0,0.0,0.0,0.0,0.0,0.0,0.0,0.0,0.0,0.0,0.0,0.0,0.0,0.0,0.0,0.0,0.0,0.0,0.0,0.0,0.0,0.0,0.0,0.0,0.0,0.0,0.0,0.0,0.0,0.0,0.0,0.0,0.0,0.0,0.0,0.0,0.0,0.0,0.0,0.0,0.0,0.0,0.0,0.0,0.0,0.0,0.0,0.0,0.0,0.0,0.0,0.0,0.0,0.0,0.0,0.0,0.0,0.0,0.0,0.0,0.0,0.0,0.0,0.0,0.0,0.0,0.0,0.0,0.0,0.0,0.0,0.0,0.0,0.0,0.0,0.0,0.0,0.0,0.0,0.0,0.0,0.0,0.0,0.0,0.0,0.0,0.0,1.4023,1.3804,1.3804,1.4072,1.4413,1.4777,1.5102,1.5463,1.5871,1.59,0.0,0.0,0.0,0.0,0.0,0.0,0.0,0.0,0.0,0.0,0.0,0.0,0.0,0.0,0.0,0.0,0.0,0.0,0.0,0.0,0.0,0.0,0.0,0.0,0.0,0.0,0.0,0.0,0.0,0.0,0.0,0.0,0.0,0.0,0.0,0.0,0.0,0.0,0.0,0.0,0.0,0.0,0.0,0.0,0.0,0.0,0.0,0.0,0.0,0.0,0.0,0.0,0.0,0.0,0.0,0.0,0.0,0.0,0.0,0.0,0.0,0.0,0.0,0.0,0.0,0.0,0.0,0.0,0.0,0.0,0.0,0.0,0.0,0.0,0.0,0.0,0.0,0.0,0.0,0.0,0.0,0.0,0.0,0.0,0.0,0.0,0.0,0.0,0.0,0.0,0.0,0.0,0.0,0.0,0.0,0.0,0.0,0.0,0.0,0.0,0.0,0.0,1.4007,1.3804,0.0,1.4105,1.4445,1.4777,1.5103,1.5463,1.5871,0.0,0.0,0.0,0.0,0.0,0.0,0.0,0.0,0.0,0.0,0.0,0.0,0.0,0.0,0.0,0.0,0.0,0.0,0.0,0.0,0.0,0.0,0.0,0.0,0.0,0.0,0.0,0.0,0.0,0.0,0.0,0.0,0.0,0.0,0.0,0.0,0.0,0.0,0.0,0.0,0.0,0.0,0.0,0.0,0.0,0.0,0.0,0.0,0.0,0.0,0.0,0.0,0.0,0.0,0.0,0.0,0.0,0.0,0.0,0.0,0.0,0.0,0.0,0.0,0.0,0.0,0.0,0.0,0.0,0.0,0.0,0.0,0.0,0.0,0.0,0.0,0.0,0.0,0.0,0.0,0.0,0.0,0.0,0.0,0.0,0.0,0.0,0.0,0.0,0.0,0.0,0.0,0.0,0.0,0.0,0.0,0.0,0.0,0.0,0.0,0.0,0.0,1.4614,1.4307,1.4132,0.0,1.4375,1.4525,1.4867,1.5049,1.5299,1.5726,0.0,0.0,0.0,0.0,0.0,0.0,0.0,0.0,0.0,0.0,0.0,0.0,0.0,0.0,0.0,0.0,0.0,0.0,0.0,0.0,0.0,0.0,0.0,0.0,0.0,0.0,0.0,0.0,0.0,0.0,0.0,0.0,0.0,0.0,0.0,0.0,0.0,0.0,0.0,0.0,0.0,0.0,0.0,0.0,0.0,0.0,0.0,0.0,0.0,0.0,0.0,0.0,0.0,0.0,0.0,0.0,0.0,0.0,0.0,0.0,0.0,0.0,0.0,0.0,0.0,0.0,0.0,0.0,0.0,0.0,0.0,0.0,0.0,0.0,0.0,0.0,0.0,0.0,0.0,0.0,0.0,0.0,0.0,0.0,0.0,0.0,0.0,0.0,0.0,0.0,0.0,0.0,0.0,0.0,0.0,0.0,0.0,0.0,0.0,0.0,0.0,0.0,1.5399,1.4977,1.4833,1.5434,1.4969,1.4756,1.5073,1.492,1.4979,0.0,0.0,0.0,0.0,0.0,0.0,0.0,0.0,0.0,0.0,0.0,0.0,0.0,0.0,0.0,0.0,0.0,0.0,0.0,0.0,0.0,0.0,0.0,0.0,0.0,0.0,0.0,0.0,0.0,0.0,0.0,0.0,0.0,0.0,0.0,0.0,0.0,0.0,0.0,0.0,0.0,0.0,0.0,0.0,0.0,0.0,0.0,0.0,0.0,0.0,0.0,0.0,0.0,0.0,0.0,0.0,0.0,0.0,0.0,0.0,0.0,0.0,0.0,0.0,0.0,0.0,0.0,0.0,0.0,0.0,0.0,0.0,0.0,0.0,0.0,0.0,0.0,0.0,0.0,0.0,0.0,0.0,0.0,0.0,0.0,0.0,0.0,0.0,0.0,0.0,0.0,0.0,0.0,0.0,0.0,0.0,0.0,0.0,0.0,0.0,0.0,0.0,0.0,1.5466,1.5343,1.5291,1.5474,1.5538,1.5631,1.5739,1.5509,1.5526,1.586,0.0,0.0,0.0,0.0,0.0,0.0,0.0,0.0,0.0,0.0,0.0,0.0,0.0,0.0,0.0,0.0,0.0,0.0,0.0,0.0,0.0,0.0,0.0,0.0,0.0,0.0,0.0,0.0,0.0,0.0,0.0,0.0,0.0,0.0,0.0,0.0,0.0,0.0,0.0,0.0,0.0,0.0,0.0,0.0,0.0,0.0,0.0,0.0,0.0,0.0,0.0,0.0,0.0,0.0,0.0,0.0,0.0,0.0,0.0,0.0,0.0,0.0,0.0,0.0,0.0,0.0,0.0,0.0,0.0,0.0,0.0,0.0,0.0,0.0,0.0,0.0,0.0,0.0,0.0,0.0,0.0,0.0,0.0,0.0,0.0,0.0,0.0,0.0,0.0,0.0,0.0,0.0,0.0,0.0,0.0,0.0,0.0,0.0,0.0,0.0,0.0,0.0,1.6114,1.5983,1.5931,1.6153,1.6163,1.6163,1.6163,1.5914,1.5909,1.6279,0.0,0.0,0.0,0.0,0.0,0.0,0.0,0.0,0.0,0.0,0.0,0.0,0.0,0.0,0.0,0.0,0.0,0.0,0.0,0.0,0.0,0.0,0.0,0.0,0.0,0.0,0.0,0.0,0.0,0.0,0.0,0.0,0.0,0.0,0.0,0.0,0.0,0.0,0.0,0.0,0.0,0.0,0.0,0.0,0.0,0.0,0.0,0.0,0.0,0.0,0.0,0.0,0.0,0.0,0.0,0.0,0.0,0.0,0.0,0.0,0.0,0.0,0.0,0.0,0.0,0.0,0.0,0.0,0.0,0.0,0.0,0.0,0.0,0.0,0.0,0.0,0.0,0.0,0.0,0.0,0.0,0.0,0.0,0.0,0.0,0.0,0.0,0.0,0.0,0.0,0.0,0.0,0.0,0.0,0.0,0.0,0.0,0.0,0.0,0.0,0.0,0.0,1.7068,1.6767,1.665,1.7146,1.6754,1.6467,1.6467,1.6224,1.6223,1.6659,0.0,0.0,0.0,0.0,0.0,0.0,0.0,0.0,0.0,0.0,0.0,0.0,0.0,0.0,0.0,0.0,0.0,0.0,0.0,0.0,0.0,0.0,0.0,0.0,0.0,0.0,0.0,0.0,0.0,0.0,0.0,0.0,0.0,0.0,0.0,0.0,0.0,0.0,0.0,0.0,0.0,0.0,0.0,0.0,0.0,0.0,0.0,0.0,0.0,0.0,0.0,0.0,0.0,0.0,0.0,0.0,0.0,0.0,0.0,0.0,1.4627,0.0,0.0,0.0,0.0,0.0,0.0,0.0,0.0,0.0,0.0,0.0,0.0,0.0,0.0,0.0,0.0,0.0,0.0,0.0,0.0,0.0,0.0,0.0,0.0,0.0,0.0,0.0,0.0,0.0,0.0,0.0,0.0,0.0,0.0,0.0,0.0,0.0,0.0,0.0,0.0,0.0,1.7173,1.7094,1.7068,1.7186,1.7094,1.7029,1.7029,1.6599,1.6606,1.7278,1.6975,0.0,0.0,0.0,0.0,0.0,0.0,0.0,0.0,0.0,0.0,0.0,0.0,0.0,0.0,0.0,0.0,0.0,0.0,0.0,0.0,0.0,0.0,0.0,0.0,0.0,0.0,0.0,0.0,0.0,0.0,0.0,0.0,0.0,0.0,0.0,0.0,0.0,0.0,0.0,0.0,0.0,0.0,0.0,0.0,0.0,0.0,0.0,0.0,0.0,0.0,0.0,0.0,0.0,0.0,0.0,0.0,0.0,0.0,0.0,0.0,1.5218,0.0,0.0,0.0,0.0,0.0,0.0,0.0,0.0,0.0,0.0,0.0,0.0,0.0,0.0,0.0,0.0,0.0,0.0,0.0,0.0,0.0,0.0,0.0,0.0,0.0,0.0,0.0,0.0,0.0,0.0,0.0,0.0,0.0,0.0,0.0,0.0,0.0,0.0,0.0,0.0,1.7199,1.7199,1.7199,1.7199,1.7199,1.7199,1.7199,1.6937,1.703,1.7614,1.7393,0.0,0.0,0.0,0.0,0.0,0.0,0.0,0.0,0.0,0.0,0.0,0.0,0.0,0.0,0.0,0.0,0.0,0.0,0.0,0.0,0.0,0.0,0.0,0.0,0.0,0.0,0.0,0.0,0.0,0.0,0.0,0.0,0.0,0.0,0.0,0.0,0.0,0.0,0.0,0.0,0.0,0.0,0.0,0.0,0.0,0.0,0.0,0.0,0.0,0.0,0.0,0.0,0.0,1.5226,1.5081,1.4831,1.5241,1.5426,1.5453,1.5868,1.5964,1.5811,0.0,0.0,0.0,0.0,0.0,0.0,0.0,0.0,0.0,0.0,0.0,0.0,0.0,0.0,0.0,0.0,0.0,0.0,0.0,0.0,0.0,0.0,0.0,0.0,0.0,1.6411,1.6377,0.0,0.0,0.0,0.0,0.0,0.0,0.0,0.0,0.0,0.0,0.0,0.0,1.7199,1.7199,1.7199,1.7199,1.7199,1.7199,1.7199,1.7199,1.7413,1.7888,1.7845,1.7992,0.0,0.0,0.0,0.0,0.0,0.0,0.0,0.0,0.0,0.0,0.0,0.0,0.0,0.0,0.0,0.0,0.0,0.0,0.0,0.0,0.0,0.0,0.0,0.0,0.0,0.0,0.0,0.0,0.0,0.0,0.0,0.0,1.3799,1.3861,0.0,0.0,0.0,0.0,0.0,0.0,0.0,0.0,0.0,0.0,0.0,0.0,0.0,1.4546,1.4493,1.4738,1.5092,1.5549,1.5718,1.6054,1.6486,1.6661,1.6734,1.6772,1.6988,0.0,1.5811,1.5811,0.0,0.0,0.0,0.0,0.0,0.0,0.0,0.0,0.0,0.0,0.0,0.0,0.0,0.0,0.0,0.0,0.0,0.0,0.0,0.0,0.0,0.0,1.7111,1.7111,1.747,1.7682,0.0,1.6872,1.6714,1.7115,1.7199,0.0,0.0,0.0,0.0,0.0,0.0,0.0,1.7199,1.7199,1.7199,1.7199,1.7199,1.7199,1.7199,1.7199,1.7557,1.8364,1.8449,1.8561,1.8732,1.8806,0.0,0.0,0.0,0.0,0.0,0.0,0.0,0.0,0.0,0.0,0.0,0.0,0.0,0.0,0.0,0.0,0.0,0.0,0.0,0.0,0.0,0.0,0.0,0.0,0.0,0.0,0.0,0.0,0.0,1.4468,1.4434,1.4166,1.4306,1.4428,0.0,0.0,0.0,0.0,0.0,0.0,0.0,0.0,0.0,1.4872,1.5095,1.5215,1.5186,1.5555,1.5821,1.6039,1.6136,1.6163,1.6194,1.6818,1.7118,1.7147,1.779,1.7835,1.7398,1.6863,1.6645,1.6645,0.0,0.0,0.0,0.0,1.7077,1.7262,1.7262,1.7069,0.0,1.7127,0.0,0.0,0.0,0.0,0.0,0.0,0.0,0.0,0.0,0.0,1.6812,1.6812,1.6799,1.6873,1.7144,1.6824,1.6725,0.0,1.7426,1.7312,1.7641,0.0,0.0,0.0,0.0,0.0,1.7708,1.7408,1.7199,1.7199,1.7199,1.7199,1.7199,1.7199,1.7352,1.776,1.8266,1.8598,1.868,1.8914,1.8798,0.0,0.0,0.0,0.0,0.0,0.0,0.0,0.0,0.0,0.0,0.0,0.0,0.0,0.0,0.0,0.0,0.0,0.0,0.0,0.0,0.0,0.0,0.0,0.0,0.0,0.0,0.0,0.0,1.4656,1.4649,1.4304,1.4368,1.4444,0.0,0.0,0.0,0.0,0.0,0.0,1.5345,1.5555,1.5566,1.5344,1.5683,1.5808,1.5768,1.5913,1.6067,1.6182,1.6023,1.5831,1.568,1.6459,1.6837,1.6868,1.7904,1.8332,1.8319,1.7835,1.7601,1.7492,1.7492,1.7415,1.7306,1.7306,1.7306,1.7306,1.7306,1.7027,1.6764,1.7113,0.0,1.6709,1.6709,0.0,0.0,0.0,0.0,1.6709,1.6709,1.6709,1.6709,1.6709,1.6539,1.6539,1.7093,1.7056,1.7101,0.0,1.7629,1.7581,1.8024,0.0,0.0,0.0,0.0,1.8296,1.8296,1.7904,1.763,1.763,1.7512,1.7434,1.7434,1.729,1.724,1.7352,1.7948,1.8442,1.8726,1.8945,1.9053,1.9072,0.0,0.0,0.0,0.0,0.0,0.0,0.0,0.0,0.0,0.0,0.0,0.0,0.0,0.0,0.0,0.0,0.0,0.0,0.0,0.0,0.0,0.0,0.0,0.0,0.0,0.0,0.0,0.0,0.0,1.3941,1.4326,0.0,0.0,0.0,0.0,1.5197,1.5187,1.538,1.5744,1.5364,1.5302,1.5647,1.5689,1.5698,1.5725,1.503,1.4997,1.5629,1.4982,1.4982,1.5523,1.5675,1.578,1.5844,1.6911,1.7358,1.7451,1.8289,1.8359,1.7966,1.7966,1.7682,1.7306,1.7306,1.7306,1.7306,1.7306,1.7295,1.7262,1.7301,1.7279,1.7257,1.7257,1.723,0.0,0.0,1.7257,1.7257,1.7257,1.7257,1.7257,1.7257,1.7638,1.7872,1.7385,1.7693,1.787,0.0,1.7677,1.8072,1.8083,0.0,1.8865,1.8865,1.8862,1.8858,1.8858,1.8832,1.8819,1.8819,1.8362,1.8048,1.8048,1.7525,1.7352,1.776,1.7808,1.8206,1.9045,1.9155,1.912,1.9019,1.9042,0.0,0.0,0.0,0.0,0.0,0.0,0.0,0.0,0.0,0.0,0.0,0.0,0.0,0.0,0.0,0.0,0.0,0.0,0.0,0.0,0.0,0.0,0.0,0.0,0.0,0.0,0.0,0.0,1.4326,1.4432,0.0,1.4845,1.5177,1.531,1.5168,1.5155,1.5092,1.5023,1.488,1.4942,1.5292,1.5292,1.545,1.5701,1.5426,1.5449,1.5737,1.5711,1.5814,1.6043,1.6676,1.7178,1.7533,1.8287,1.8784,1.9126,1.9456,1.9168,1.8447,1.8447,1.8338,1.8214,1.8214,1.8214,1.8214,1.8214,1.8214,1.8141,1.7846,1.754,1.7306,1.7306,1.7306,1.7306,1.7306,1.7306,1.7306,1.7306,1.7306,1.7306,1.7306,1.7462,1.7534,1.7323,1.7462,1.7506,1.7295,1.7429,1.7682,1.8024,1.8257,1.8514,1.8919,1.8919,1.903,1.9439,1.9146,1.8911,1.8911,1.8728,1.861,1.861,1.81,1.7838,1.7988,1.7874,1.8068,1.8688,1.9035,1.9302,1.9519,1.9678,1.9428,0.0,0.0,0.0,0.0,0.0,0.0,0.0,0.0,0.0,0.0,0.0,0.0,0.0,0.0,0.0,0.0,0.0,0.0,0.0,0.0,0.0,0.0,0.0,0.0,0.0,0.0,1.504,1.4738,1.4827,1.501,1.5276,1.5294,1.531,1.5307,1.5301,1.5266,1.5178,1.5186,1.5347,1.5695,1.5695,1.5853,1.6113,1.5977,1.5938,1.5982,1.6088,1.6132,1.6167,1.6777,1.7251,1.7643,1.8287,1.8767,1.9121,1.9627,1.9458,1.8897,1.8931,1.884,1.8687,1.8687,1.8687,1.8687,1.8687,1.8687,1.8643,1.8338,1.8021,1.7787,1.7787,1.7787,1.7787,1.7787,1.7678,1.7558,1.7558,1.7426,1.7306,1.7306,1.7306,1.7306,1.7306,1.7306,1.7306,1.7306,1.7462,1.7689,1.8038,1.8267,1.859,1.9186,1.923,1.942,2.0038,1.9747,1.9522,1.9522,1.9329,1.9211,1.9211,1.8689,1.8375,1.8375,1.807,1.816,1.875,1.8889,1.9221,1.978,2.001,1.9796,1.9156,0.0,0.0,0.0,0.0,0.0,0.0,0.0,0.0,0.0,0.0,0.0,0.0,0.0,0.0,0.0,0.0,0.0,0.0,0.0,0.0,0.0,0.0,0.0,1.5196,1.5139,1.5102,1.512,1.546,1.5689,1.5707,1.5707,1.5716,1.5725,1.5725,1.5867,1.6245,1.6264,1.648,1.6874,1.6892,1.6892,1.691,1.6517,1.6307,1.6307,1.5982,1.5832,1.5832,1.5832,1.5867,1.5938,1.6804,1.7185,1.7279,1.8707,1.9318,1.9332,1.9393,1.9146,1.8731,1.8731,1.8731,1.8731,1.8731,1.872,1.8709,1.8709,1.8698,1.8687,1.8687,1.8687,1.8687,1.8687,1.837,1.8032,1.8032,1.7671,1.735,1.735,1.735,1.735,1.7339,1.7328,1.7328,1.7306,1.7717,1.8066,1.8066,1.8575,1.9146,1.9695,1.9747,0.0,2.0624,2.0674,2.0687,2.0699,2.019,1.9839,1.9839,1.929,1.8937,1.8937,1.8427,1.8478,1.9273,1.8807,1.8917,1.978,2.001,1.9846,1.9317,0.0,0.0,0.0,0.0,0.0,0.0,0.0,0.0,0.0,0.0,0.0,0.0,0.0,0.0,0.0,0.0,0.0,0.0,0.0,0.0,0.0,0.0,1.5142,1.5142,1.5112,1.5212,1.5487,1.5625,1.5808,1.6111,1.6147,1.6133,1.6133,1.6125,1.6067,1.5957,1.5931,1.6246,1.6884,1.6902,1.7036,1.7313,1.6926,1.6593,1.6287,1.6229,1.6304,1.6602,1.6898,1.7405,1.8052,1.8305,1.862,1.9013,1.9429,1.9571,1.9605,1.9821,1.9834,1.9715,1.9715,1.9715,1.9715,1.9715,1.9486,1.9222,1.9222,1.8982,1.8687,1.8687,1.8687,1.8687,1.8687,1.86,1.8501,1.8501,1.8403,1.8334,1.8334,1.8334,1.8206,1.7879,1.7813,1.7704,1.7372,1.7407,1.7507,1.7507,1.7656,1.81,1.9054,1.8857,0.0,2.0524,2.0309,2.0233,2.0649,2.0543,2.0438,2.0438,1.9891,1.9564,1.9564,1.9002,1.8923,1.9497,1.9329,1.9479,2.001,2.0065,2.0076,0.0,0.0,0.0,0.0,0.0,0.0,0.0,0.0,0.0,0.0,0.0,0.0,0.0,0.0,0.0,0.0,0.0,0.0,0.0,0.0,0.0,0.0,1.5239,1.5414,1.5588,1.5606,1.5698,1.5927,1.6101,1.6358,1.6771,1.6807,1.6877,1.7027,1.7054,1.6982,1.6757,1.6749,1.6963,1.7387,1.7387,1.7494,1.7756,1.7512,1.7287,1.7052,1.7061,1.7183,1.7409,1.7634,1.8035,0.0,1.8554,1.8728,1.9085,1.9548,1.9719,0.0,0.0,0.0,0.0,0.0,2.0118,2.0118,2.0118,1.9933,1.9693,1.9693,1.9496,1.9299,1.9299,1.9299,1.9299,1.9299,1.9146,1.8993,1.8993,1.884,1.8687,1.8687,1.8687,1.8611,1.8348,1.8294,1.8152,1.7671,1.7584,0.0,1.7339,1.7306,1.759,1.8494,1.8548,1.891,2.0144,2.0233,2.0309,2.0649,2.0699,2.0699,2.0699,2.0373,0.0,0.0,0.0,1.938,1.9593,1.9705,0.0,0.0,0.0,2.0168,2.0304,0.0,0.0,0.0,1.8776,1.8499,0.0,0.0,0.0,0.0,0.0,0.0,0.0,0.0,0.0,0.0,0.0,0.0,0.0,0.0,0.0,0.0,1.5533,1.5909,1.6321,1.6422,1.645,1.645,1.6762,1.7128,1.7523,1.7568,1.7724,1.8063,1.8091,1.8091,1.8091,0.0,0.0,0.0,0.0,1.8173,1.8219,1.8181,1.8181,1.8181,1.8106,1.8115,1.8181,1.8181,1.8181,1.8219,1.8219,1.8219,1.8331,1.9394,1.9911,2.0001,2.0066,2.0096,2.0123,2.0224,2.0282,2.0271,2.0216,0.0,0.0,2.0129,2.0118,2.0118,2.0118,2.0118,2.0118,2.0118,1.9802,1.9464,1.9464,1.9179,1.8851,1.8851,1.8851,1.884,1.8785,1.8774,1.8632,1.8174,1.8086,1.7933,1.747,1.735,1.7479,1.8023,1.8494,1.9054,1.9721,2.0195,2.0549,2.0687,0.0,0.0,2.0699,2.0699,2.0699,2.0699,2.0203,1.9843,1.9737,2.0013,2.0219,2.0333,2.02,2.0222,2.0412,2.035,2.0304,2.0289,1.9688,1.907,0.0,0.0,0.0,0.0,0.0,0.0,0.0,0.0,0.0,0.0,0.0,0.0,0.0,0.0,0.0,1.6028,1.6147,1.6331,1.6734,1.7064,1.7266,1.7266,1.7339,1.7541,1.7926,1.7962,1.8036,1.8081,1.8091,1.8091,1.8091,1.8091,1.8228,1.8586,1.8557,1.8751,1.9072,1.8737,1.8588,1.8588,0.0,0.0,1.8588,1.8588,1.8777,1.9072,1.9072,1.9072,1.9111,1.9841,2.0514,2.111,2.1239,2.1266,2.1255,2.1306,2.1308,2.1254,2.0894,2.0763,2.0664,2.0238,2.0118,2.0118,2.0118,2.0118,0.0,2.0118,2.0042,1.9976,1.9976,1.99,1.9834,1.9834,1.9834,1.9725,1.9364,1.9246,1.9135,1.8654,1.8556,1.8414,1.7944,1.754,1.7479,1.8023,1.7826,1.8154,1.9618,1.9526,1.9694,2.0599,2.0699,2.0699,2.0699,2.0699,2.0699,2.0699,2.0607,2.0499,2.0415,2.047,2.0704,2.1163,2.0629,2.0583,2.1103,2.0549,2.0304,2.0304,2.0165,2.0025,0.0,0.0,0.0,0.0,0.0,0.0,0.0,0.0,0.0,0.0,0.0,1.6256,1.5785,0.0,1.6074,1.6285,1.6486,1.6752,1.7147,1.7367,1.7495,1.7495,1.7688,1.7972,1.8347,1.8421,1.8495,1.8696,1.8715,1.8715,1.8715,1.8715,1.8806,1.8999,1.9008,1.91,1.9301,1.9112,1.9002,1.9002,1.8754,1.8754,1.9002,1.9002,1.9112,1.9301,1.9301,1.9301,1.9381,2.0313,2.112,2.1808,2.2172,2.2007,2.1592,2.1592,2.1592,2.1559,2.1343,2.1255,2.1222,2.0948,2.0838,2.0828,2.0577,2.05,2.0456,2.0183,2.0118,2.0118,2.0118,2.0118,2.0118,2.0118,2.0118,2.0053,1.9802,1.9747,1.9605,1.9146,1.9058,1.8905,1.8425,1.817,1.7928,1.774,1.7689,1.8007,1.8845,1.92,1.963,2.0207,2.0524,2.0699,2.0699,2.0699,2.0699,2.0699,2.0762,2.0792,2.0753,2.0774,2.0901,2.1105,2.0808,2.0725,2.085,2.0573,2.0398,2.0304,2.0304,2.0304,0.0,0.0,0.0,0.0,0.0,0.0,0.0,0.0,1.6836,1.6453,1.6446,1.6373,1.5992,1.6202,1.6431,1.6431,1.6762,1.7128,1.7449,1.7633,1.7734,1.7734,1.8036,1.8356,1.8788,1.8825,1.8962,1.9283,1.9301,1.9301,1.9301,1.9375,1.9421,1.9421,1.9494,1.954,1.954,1.954,1.954,1.954,1.954,1.9494,1.9421,1.9421,1.9375,1.9301,1.9301,1.946,1.9766,2.0779,2.1634,2.2327,2.2815,2.2531,2.1865,2.1865,2.1865,2.1854,2.1767,2.1734,2.1712,2.1625,2.1592,2.1516,2.1157,2.1036,2.096,2.05,2.0391,2.0369,2.0282,2.0249,2.0227,2.0129,2.0118,2.0118,2.0118,2.0118,1.9998,1.9605,1.9529,1.9408,1.8916,1.8829,1.8512,1.7591,1.7879,1.8262,1.8278,1.9162,1.9824,1.9952,2.041,2.0699,2.0699,2.0699,2.0699,2.0699,2.08,2.0863,2.0901,2.0965,2.0997,2.1029,2.0974,2.0833,2.0691,2.0767,2.0643,2.0349,2.0437,2.0428,1.9516,1.8695,1.7615,1.6705,1.6502,1.6414,0.0,0.0,1.6372,1.6315,1.6591,1.684,1.6771,1.6807,1.6844,1.6844,1.7174,1.7449,1.7486,1.8119,1.8577,1.8577,1.8614,1.8806,1.9201,1.9237,1.9256,1.9292,1.9301,1.9301,1.9301,1.9659,1.982,1.982,2.02,2.0383,2.0383,2.0383,2.0383,2.0383,2.0383,2.02,1.982,1.982,1.9659,1.9301,1.9301,1.9923,2.1011,2.1126,2.1852,2.2927,2.2964,2.2936,2.2848,2.2848,2.2848,2.2783,2.2379,2.2237,2.216,2.1734,2.1592,2.1581,2.1527,2.1505,2.1494,2.145,2.1428,2.133,2.0927,2.0818,2.0675,2.0216,2.0118,2.0118,2.0118,2.0118,2.0064,2.0042,2.0031,1.9878,1.9387,1.9311,1.9015,1.8065,1.8378,1.8749,1.8887,1.9422,2.0016,2.0549,2.0649,2.0699,2.0699,2.0699,2.0699,2.0699,2.0699,2.0775,2.0901,2.0909,2.121,2.1838,2.1286,2.1235,2.1728,2.1573,2.1166,2.0595,2.0984,2.0872,1.8401,1.8218,1.7928,1.666,1.6519,1.663,1.6428,1.6532,1.6661,1.6661,1.6789,1.6908,1.6908,1.6908,1.6982,0.0,1.7385,1.766,1.8137,1.8495,1.8797,1.9026,1.9054,1.9118,1.9283,1.9301,1.9301,1.9301,1.9531,1.9668,1.9668,2.0053,2.0232,2.0232,2.0387,2.0521,2.0521,2.0521,2.0521,2.0521,2.0521,2.0387,2.0232,2.0232,2.0182,2.0008,2.0008,2.0285,2.0855,2.165,2.2247,2.2809,2.3582,2.3864,2.3798,2.322,2.3001,2.2968,2.2783,2.2717,2.2684,2.2477,2.2411,2.2357,2.2095,2.2018,2.1953,2.1669,2.1592,2.1538,2.1376,2.1321,2.12,2.0675,2.0566,2.0489,2.0172,2.0118,2.0118,2.0118,2.0118,2.0053,1.9845,1.9813,1.9573,1.8897,1.8777,1.878,1.8872,1.9393,2.0005,2.0638,2.0699,2.0699,2.0699,2.0699,2.0699,2.0699,2.0762,2.085,2.0936,2.1035,2.1218,2.1544,2.1346,2.1411,2.178,2.1776,2.1698,2.1576,2.178,2.1519,1.7861,1.7918,1.8002,1.6779,1.6688,1.6908,1.6908,1.6908,1.6908,1.6908,1.6908,1.6908,1.6908,1.7,1.7165,1.7449,1.7688,1.8036,1.8632,1.8806,1.8981,1.9265,1.9301,1.9347,1.9467,1.9476,1.9476,1.9476,1.9861,2.0049,2.0049,2.0466,2.0677,2.0677,2.0753,2.0808,2.0808,2.0808,2.0808,2.0808,2.0808,2.0753,2.0677,2.0567,2.0521,2.0521,2.0521,2.0605,2.0857,2.1836,2.2442,2.2849,2.3817,2.4317,2.4399,2.3678,2.3318,2.3176,2.3045,2.3001,2.3001,2.3001,2.3001,2.2936,2.2608,2.251,2.2433,2.2073,2.1985,2.1953,2.1822,2.1789,2.1669,2.1211,2.1091,2.096,2.0445,2.0314,2.0271,2.014,2.0118,2.0118,2.0118,2.0118,1.9998,1.9638,1.9289,1.9135,1.9252,1.9801,2.0334,2.0651,2.0699,2.0699,2.0699,2.0699,2.0712,2.0737,2.08,2.0899,2.0997,2.1082,2.1155,2.1204,2.1326,2.1478,2.1617,2.1995,2.2172,2.2197,2.2466,2.2228,1.8703,1.8085,1.7604,1.7028,1.6899,1.6908,1.6908,1.6908,1.6908,1.6908,1.6908,1.6908,1.6908,1.722,1.7477,1.7495,1.8155,1.8687,1.8705,1.9045,1.9283,1.9301,1.9301,1.9467,0.0,1.9866,1.9866,1.9866,2.0232,2.0461,2.0461,2.0879,2.1089,2.1089,2.144,2.165,2.165,2.165,2.165,2.165,2.165,2.144,2.1071,2.0695,2.0521,2.0521,2.0521,2.0866,2.146,2.1502,2.2267,2.3395,2.3435,2.3857,2.4486,2.4454,2.4137,2.3596,2.3165,2.3001,2.3001,2.3001,2.3001,2.3001,2.299,2.2979,2.2979,2.2957,2.2957,2.2859,2.2411,2.2302,2.2171,2.168,2.157,2.1439,2.0982,2.0872,2.073,2.0205,2.0118,2.0118,2.0118,2.0118,2.0107,2.0096,2.0085,2.0148,2.0415,2.1048,2.1263,2.0739,2.0699,2.0699,2.0699,2.0699,2.0762,2.0901,2.0775,2.0799,2.0997,2.0997,2.1057,2.1204,2.1326,2.141,2.142,2.2392,2.2527,2.1924,2.2838,2.2902,1.8677,1.8104,1.7569,1.7038,1.6908,1.6908,1.6908,1.6908,1.6908,1.6908,1.6908,1.6908,1.6908,1.7229,1.7587,1.7862,1.8366,1.8806,1.9063,1.9219,1.9402,1.9687,1.9683,0.0,0.0,0.0,0.0,2.0301,2.0686,2.0906,2.0906,2.13,2.1485,2.1485,2.1623,2.1696,2.1696,2.1696,2.1696,2.1696,2.1696,2.1623,2.1476,2.1348,2.1284,2.1284,2.1284,2.1721,2.2423,2.2824,2.359,2.4441,2.4909,2.5209,2.5382,2.5065,2.4836,2.4618,2.4148,2.3995,2.3929,2.3591,2.3444,2.3427,2.3099,2.3001,2.3001,2.3001,2.3001,2.2968,2.2815,2.2772,2.2652,2.2182,2.2073,2.1942,2.1485,2.1376,2.1233,2.0718,2.062,2.0522,2.0172,2.0118,2.0237,2.07,2.0828,2.0925,2.1009,2.1327,2.1433,2.125,2.0909,2.0699,2.0699,2.0775,2.0863,2.0901,2.0886,2.0972,2.1131,2.1131,2.1204,2.1326,2.1375,2.1592,2.1926,2.2572,2.2929,2.3051,2.368,2.3594,1.8307,1.7808,1.7339,1.6978,1.6908,1.6908,1.6908,1.6908,1.6908,1.6908,1.6908,1.6908,1.6908,1.7358,1.7807,1.8045,1.8577,1.9008,1.9265,1.943,1.9622,1.9857,2.0012,2.025,0.0,0.0,0.0,2.0714,2.1108,2.1328,2.1328,2.1549,2.1696,2.1696,2.1696,2.1696,2.1696,2.1696,2.1696,2.1696,2.1696,2.1696,2.1696,2.1696,2.1696,2.1696,2.1696,2.1954,2.2441,2.3169,2.3854,2.4594,2.5285,2.5686,2.5863,2.5546,2.5426,2.5338,2.4705,2.4486,2.4432,2.4104,2.4006,2.394,2.3624,2.3536,2.3493,2.3307,2.3263,2.322,2.3045,2.3001,2.2925,2.263,2.2564,2.2433,2.1953,2.1843,2.1701,2.1255,2.1015,2.0796,2.0456,2.0227,2.0335,2.1008,2.1376,2.159,2.1618,2.1893,2.1956,2.1525,2.1172,2.0909,2.0725,2.0825,2.0913,2.0924,2.0985,2.1057,2.118,2.1204,2.1229,2.1326,2.1375,2.1568,2.1926,2.2572,2.3068,2.3377,2.3994,2.4071,1.7706,1.7304,1.6908,1.6908,1.6908,1.6908,1.6908,1.6908,1.6908,1.6908,1.6908,1.6908,1.6908,0.0,1.8063,1.8081,1.877,1.9283,1.9292,1.9668,1.9893,0.0,0.0,0.0,0.0,0.0,0.0,2.1135,0.0,2.1696,2.1696,2.1696,2.1696,2.1696,2.1696,2.1696,2.1696,2.1696,2.1696,2.1696,2.1696,2.1696,2.1696,2.1696,2.1696,2.1696,2.1696,2.1741,2.183,2.2495,2.3222,2.393,2.4637,2.5295,2.5895,2.5895,2.5895,2.5775,2.4869,2.4563,2.4563,2.453,2.453,2.4519,2.4497,2.4486,2.4388,2.3858,2.3727,2.3618,2.3165,2.3045,2.3034,2.3012,2.3001,2.2881,2.2444,2.2357,2.2204,2.1723,2.1244,2.0894,2.0894,2.0489,2.0388,2.104,2.171,2.2165,2.2239,2.2786,2.2778,2.1694,2.1525,2.1289,2.0766,2.0851,2.0924,2.0997,2.1021,2.1057,2.1204,2.1204,2.1204,2.1204,2.135,2.1447,2.1447,2.2457,2.2934,2.2957,2.3867,2.4302,1.7706,1.7304,1.6908,1.6908,1.6908,1.6908,1.6908,1.6908,1.6908,1.6908,1.6908,1.6908,1.6908,1.7312,0.0,1.8036,1.8502,0.0,1.9256,1.9668,0.0,2.0287,0.0,2.1117,2.1495,2.1531,0.0,0.0,2.1632,2.1696,2.1696,2.1696,2.1696,2.1696,2.1696,2.1696,2.1696,2.1696,2.1696,2.1696,2.1696,2.1696,2.1696,2.1696,2.1696,2.1696,2.1696,2.1998,2.2539,2.2706,2.3527,2.4637,2.4818,2.5295,2.5895,2.5895,2.5895,2.5874,2.5622,2.5535,2.548,2.5161,2.504,2.4975,2.4596,2.4486,2.4465,2.4334,2.4301,2.4181,2.3678,2.3509,2.3411,2.3088,2.3001,2.2968,2.2848,2.2826,2.2684,2.2226,2.1439,2.0894,2.0894,2.0873,2.106,2.1741,2.2421,2.2857,2.2869,2.3058,2.3078,2.2791,2.2021,2.1446,2.1302,2.105,2.0924,2.0997,2.1082,2.1204,2.135,2.135,2.135,2.135,2.1769,2.1996,2.1996,2.2957,2.3421,2.3443,2.4015,2.4302,1.7555,1.7402,1.7165,1.7165,1.7165,1.7119,1.6945,1.6908,1.6908,1.6908,1.6908,1.6908,1.6908,1.7229,0.0,0.0,0.0,0.0,1.9494,1.9925,2.0296,0.0,2.1135,0.0,2.1668,2.1696,2.1696,0.0,2.1696,2.1696,2.1696,2.1696,2.1696,2.1696,2.1696,2.1696,2.1696,2.1696,2.1696,2.1696,2.1696,2.1696,2.1696,2.1696,2.1696,2.1696,0.0,2.2132,2.2838,2.3135,2.3907,2.4946,2.5211,2.5559,2.5895,2.5895,2.5895,2.5895,2.5895,2.5895,2.5852,2.5579,2.5491,2.5448,2.5185,2.5109,2.5065,2.4847,2.4792,2.4683,2.4192,2.4061,2.394,2.3438,2.3318,2.3263,2.3045,2.3001,2.2859,2.2411,2.1876,2.1466,2.1308,2.1347,2.1652,2.2414,2.2864,2.322,2.3501,2.3612,2.3583,2.3375,2.2813,2.2352,2.2075,2.1663,2.1446,2.1469,2.1377,2.1326,2.1399,2.1399,2.1399,2.1399,2.1712,2.1973,2.2208,2.2934,2.3399,2.3595,2.4078,2.4302,1.7439,1.7567,1.7603,1.7531,1.7458,1.733,1.6991,1.6908,1.6908,1.6908,1.6908,1.6908,1.6908,1.7183,1.7568,1.8045,0.0,1.8944,1.9765,2.0264,2.0668,2.1062,2.1484,2.1696,2.1696,2.1696,2.1696,2.1696,2.1696,2.1696,2.1696,2.1696,2.1696,2.1696,2.1696,2.1696,2.1696,2.1696,2.1696,2.1696,2.1696,2.1696,2.1696,2.1776,2.1874,2.1874,0.0,0.0,2.2969,2.3551,2.4231,2.4946,2.5559,2.5812,2.5895,2.5895,2.5895,2.5895,2.5895,2.5895,2.5895,2.5895,2.5895,2.5895,2.5895,2.5895,2.5819,2.5393,2.5273,2.5164,2.4694,2.4574,2.4454,2.3913,2.3793,2.37,2.3209,2.3045,2.2881,2.2524,2.2429,2.2313,2.2147,2.196,2.2183,2.3081,2.3138,2.3339,2.4024,2.4232,2.4107,2.3674,2.3653,2.3498,2.2964,2.2482,2.2198,2.2224,2.1758,2.1483,2.1507,2.144,2.1399,2.1399,2.1471,2.1722,2.2208,2.2731,2.3201,2.3595,2.4078,2.4302,1.762,1.7853,1.8128,1.7639,1.7248,1.6991,1.6927,1.6908,0.0,1.6908,1.6908,1.6908,1.6908,1.6963,1.7248,1.7962,0.0,0.0,0.0,0.0,2.0668,0.0,0.0,0.0,0.0,0.0,0.0,0.0,0.0,2.1696,2.1696,2.1696,2.1696,2.1696,2.1696,2.1696,2.1696,2.1696,2.1696,2.1696,2.1696,2.1696,2.1741,2.2318,2.2618,2.2618,2.3202,0.0,2.3637,2.3757,2.4231,2.4903,2.5031,2.5422,2.5895,2.5895,2.5895,2.5895,2.5895,2.5895,2.5895,2.5895,2.5895,2.5895,2.5895,2.5895,2.5884,2.5797,2.5775,2.5666,2.5215,2.5095,2.4975,2.4465,2.4355,2.4224,2.3673,2.3285,2.3091,2.3345,2.3061,2.2963,2.3525,2.2878,2.2647,2.3679,2.3419,2.3339,2.4024,2.4232,2.4253,2.416,2.3879,2.3643,2.3537,2.3004,2.2723,2.2829,2.2303,2.203,2.2156,2.1656,2.1399,2.1399,2.1841,2.2114,2.2208,2.3068,2.3508,2.3595,2.4078,2.4302,1.792,1.8119,1.8199,1.7639,1.7348,1.7156,1.6954,0.0,0.0,1.6908,1.6908,1.6908,1.6908,1.6908,0.0,1.7953,0.0,0.0,0.0,0.0,0.0,0.0,0.0,0.0,0.0,0.0,0.0,0.0,0.0,2.1906,2.1705,2.1696,2.1696,2.1696,2.1696,2.1696,2.1696,2.2087,2.2412,2.2619,2.2968,2.3306,2.3574,2.3653,2.3678,2.3668,2.3771,0.0,2.437,2.437,2.4807,2.5422,2.5422,2.5644,2.5895,2.5895,2.5895,2.5895,2.5895,2.5895,2.5895,2.5895,2.5895,2.5895,2.5895,2.5895,2.5895,2.5895,2.5895,2.5852,2.5611,2.5546,2.5426,2.4996,2.4661,2.4344,2.3804,2.3509,2.342,2.3575,2.3402,2.3575,2.4496,2.4262,2.4099,2.4648,2.4477,2.4311,2.4342,2.4492,2.4536,2.445,2.441,2.4389,2.4389,2.381,2.3514,2.3568,2.3014,2.269,2.2768,2.2185,2.1884,2.1884,2.1815,2.1926,2.2208,2.2889,2.3355,2.3595,2.4078,2.4302,1.8235,1.8392,1.8331,1.7674,1.7431,1.7284,1.6972,1.6908,1.6908,1.6908,1.6908,1.6908,1.6908,1.6908,1.7174,0.0,1.8091,1.8512,0.0,0.0,0.0,0.0,0.0,0.0,0.0,0.0,0.0,0.0,0.0,0.0,2.1842,2.1742,2.1733,2.1815,2.1824,2.1861,2.1952,2.2716,2.3271,2.3635,2.4346,2.4896,2.5295,2.5001,2.4883,2.4852,2.4628,0.0,0.0,2.5274,2.5519,2.5895,2.5895,2.5895,2.5895,2.5895,2.5895,2.5895,2.5895,2.5895,2.5895,2.5895,2.5895,2.5895,2.5895,2.5895,2.5895,2.5895,2.5895,2.5895,2.5895,2.5979,2.5922,2.5579,2.5048,2.4497,2.3995,2.3771,2.3694,2.362,2.3666,2.4112,2.5283,2.5448,2.5481,2.5752,2.5665,2.5372,2.4845,2.4909,2.4897,2.4662,2.4863,2.5005,2.5005,2.4584,2.4286,2.4286,2.373,2.3405,2.3405,2.2808,2.2495,2.2495,2.2022,2.1999,2.2424,2.2894,2.3364,2.3859,2.4334,2.4627,1.8453,1.8719,1.8859,1.7772,1.7229,1.6954,1.6917,0.0,1.6908,1.6908,1.6908,1.6908,1.6908,1.6908,1.7174,1.7953,1.8091,1.8512,0.0,0.0,0.0,0.0,0.0,0.0,0.0,0.0,0.0,0.0,0.0,0.0,2.2245,2.1888,2.1861,2.2217,2.2227,2.241,2.2794,2.3578,2.4004,2.4042,2.487,2.5255,2.5295,2.5868,2.6151,2.6151,2.6743,0.0,0.0,2.6433,2.6214,2.5895,2.5895,2.5895,2.5895,2.5895,2.5895,2.5895,2.5895,2.5895,2.5895,2.5895,2.5895,2.5895,2.5895,2.5895,2.5895,2.5895,2.5895,2.5895,2.5895,2.6177,2.6434,2.6389,2.5735,2.5018,2.4519,2.405,2.3694,2.362,2.3897,2.4563,2.581,2.5866,2.6043,2.69,2.6561,2.6014,2.5399,2.5496,2.5399,2.4845,2.492,2.5005,2.5005,2.4951,2.4924,2.4924,2.434,2.4014,2.4014,2.3445,2.3134,2.3134,2.3066,2.3065,2.3117,2.3578,2.4102,2.4713,2.5188,2.5667,1.8497,1.836,1.8094,1.7348,1.7027,1.6908,1.6908,1.6908,1.6908,1.6908,1.6908,1.6908,1.6908,1.6908,1.7092,1.766,1.7954,1.8338,1.91,0.0,0.0,0.0,0.0,0.0,0.0,0.0,0.0,0.0,0.0,0.0,2.3004,2.2638,2.2501,2.2648,2.2657,2.2739,2.2904,2.3682,2.4402,2.5179,2.5921,2.6664,2.7388,2.7329,2.7336,2.7315,2.7302,0.0,0.0,2.6704,2.6475,2.631,2.6016,2.5895,2.5895,2.5895,2.5895,2.5895,2.5895,2.5895,2.5895,2.5895,2.6052,2.6218,2.5979,2.5895,2.5895,2.5895,2.5895,2.5895,2.5895,2.6218,2.6487,2.6487,2.6464,2.6276,2.5802,2.5295,2.4979,2.5245,2.5158,2.5499,2.6879,2.7082,2.7105,2.7449,2.7301,2.6906,2.6327,2.6307,2.6123,2.5515,2.5194,2.5005,2.5005,2.5005,2.5005,2.5005,2.4774,2.4652,2.4652,2.4055,2.3743,2.3743,2.3405,2.3215,2.3215,2.3668,2.4022,2.4273,2.5114,2.5625,1.87,1.8307,1.7774,1.7072,1.7012,1.7141,1.7141,1.7279,1.7339,1.7176,1.7141,1.7107,1.6943,1.6908,1.7037,1.7431,1.7853,1.8228,1.866,1.9751,0.0,0.0,0.0,0.0,0.0,0.0,0.0,0.0,0.0,0.0,0.0,2.3455,2.3206,2.3087,2.3087,2.3142,2.3261,2.3994,2.4837,2.572,2.6651,2.7575,2.8456,2.8305,2.8254,2.8233,0.0,0.0,0.0,2.6977,2.6715,2.654,2.6092,2.5895,2.5895,2.5895,2.5895,2.5895,2.5895,2.5895,2.5895,2.5895,2.6177,2.6445,2.6177,2.6177,2.6302,2.6302,2.6177,2.6093,2.626,2.6373,2.6528,2.6693,2.6981,2.7047,2.6605,2.6186,2.5997,2.6201,2.5996,2.6208,2.7423,2.7743,2.7841,2.7967,2.7976,2.7759,2.7131,2.7064,2.685,2.624,2.5792,2.5398,2.5032,2.5005,2.5005,2.5005,2.5005,2.5005,2.5005,2.4598,2.4353,2.4353,2.3947,2.373,2.373,2.4049,2.4312,2.4507,2.5417,2.6042,1.9144,1.8744,1.824,1.7176,1.7304,1.7672,1.7672,1.8104,1.8331,1.7808,1.7672,1.7545,1.7012,1.6908,1.7037,1.7431,1.7853,1.8228,1.866,0.0,0.0,0.0,0.0,0.0,0.0,0.0,0.0,0.0,0.0,0.0,0.0,2.4192,2.395,2.3499,2.3489,2.373,2.4183,2.4903,2.5285,2.5333,2.6867,2.7589,2.7636,2.8456,2.8792,0.0,0.0,0.0,0.0,2.7501,2.7042,2.654,2.6092,2.5895,2.5895,2.5895,2.5895,2.5895,2.5895,2.5895,2.5895,2.5895,2.6177,2.6487,2.6487,2.6816,2.7185,2.7185,2.6857,2.661,2.7062,2.6846,2.661,2.7092,2.7185,2.7047,2.6605,2.6501,2.6348,2.5892,2.613,2.6572,2.7113,2.755,2.7987,2.8509,2.8587,2.837,2.7773,2.7691,2.7474,2.6847,2.6779,2.6291,2.5113,2.5005,2.5005,2.5005,2.5005,2.5005,2.5005,2.4991,2.4991,2.4991,2.4991,2.4991,2.4991,2.4991,2.53,2.5907,2.6441,2.7297,1.9671,1.9365,1.898,1.8196,1.8465,1.889,1.8633,1.889,1.898,1.821,1.8051,1.7823,1.7038,1.6908,1.6945,1.7073,1.7678,1.8127,0.0,0.0,0.0,0.0,0.0,0.0,0.0,0.0,0.0,0.0,0.0,0.0,0.0,2.4202,2.4137,2.396,2.396,2.4073,2.4202,2.4913,2.5586,2.6109,2.7115,2.7882,2.842,2.8699,0.0,0.0,0.0,0.0,0.0,2.8014,2.77,2.7521,2.7043,2.6853,2.6787,2.6787,2.658,2.629,2.629,2.629,2.629,2.629,2.6839,2.7464,2.7464,2.7319,2.7185,2.7185,2.7103,2.701,2.7144,2.7319,2.7505,2.7626,2.7898,2.8051,2.7897,2.7577,2.7493,2.8127,2.7758,2.7672,2.8618,2.855,2.8392,2.8554,2.8587,2.8519,2.8343,2.8315,2.8085,2.7488,2.7434,2.6932,2.571,2.5615,2.5439,2.5032,2.5005,2.5005,2.5005,2.5005,2.5005,2.5005,2.5005,2.5005,2.5005,2.5005,2.5508,2.6455,2.7004,2.767,2.0344,2.0009,1.9639,1.9023,1.9344,1.9738,1.9552,1.9814,1.9901,1.9168,1.8736,1.8277,1.7526,1.7132,1.6908,1.6908,1.7587,1.8091,0.0,0.0,0.0,0.0,0.0,0.0,0.0,0.0,0.0,0.0,0.0,0.0,0.0,2.4202,2.435,2.4627,2.4637,2.4775,2.506,2.5538,2.6022,2.6504,2.7258,2.7882,2.8362,2.8653,0.0,0.0,0.0,0.0,0.0,2.8244,2.7996,2.7955,2.7473,2.7268,2.7243,2.7213,2.7021,2.6764,2.6764,2.6764,2.6764,2.6764,2.729,2.7933,2.8082,2.7898,2.7684,2.7684,2.7563,2.7441,2.7441,2.7667,2.7893,2.7893,2.8203,2.851,2.851,2.8246,2.8295,2.9238,2.8848,2.8624,2.9383,2.9203,2.8845,2.8627,2.8587,2.8587,2.8587,2.8587,2.8451,2.8085,2.8044,2.7651,2.666,2.6375,2.5982,2.5385,2.5344,2.5236,2.5018,2.5005,2.5005,2.5005,2.5005,2.5005,2.5005,2.523,2.5906,2.7016,2.7338,2.782,0.0,2.0719,2.0301,1.977,2.0031,2.043,2.0398,2.0837,0.0,2.0462,1.965,1.8867,1.8335,1.7526,1.6952,1.698,1.7641,1.8137,0.0,0.0,0.0,0.0,0.0,0.0,0.0,0.0,0.0,0.0,0.0,0.0,0.0,2.4202,2.4578,2.5343,2.5392,2.5722,2.6504,2.6552,2.66,2.6648,2.74,2.7731,2.7825,2.8549,0.0,0.0,0.0,0.0,0.0,2.8322,2.8114,2.8039,2.763,2.7411,2.7372,2.7373,2.7301,2.7267,2.7267,2.7267,2.7267,2.7267,2.7574,2.8002,2.8391,2.851,2.851,2.851,2.8231,2.7921,2.7921,2.7921,2.7921,2.7921,2.8283,2.855,2.851,2.855,2.8736,2.9352,2.9448,2.9443,2.9612,2.957,2.9325,2.8736,2.8627,2.8587,2.8587,2.8587,2.8587,2.8587,2.8587,2.837,2.7813,2.7199,2.6619,2.5995,2.5955,2.5683,2.51,2.5059,2.5046,2.5005,2.5033,2.5061,2.5061,2.5688,2.6537,2.7515,2.754,2.7845,2.1956,0.0,2.16,2.0955,2.1273,2.1694,0.0,2.1694,2.1726,2.0921,2.0031,1.9288,1.889,1.7901,1.7304,1.7884,1.817,1.8369,0.0,0.0,0.0,0.0,0.0,0.0,0.0,0.0,0.0,0.0,0.0,0.0,0.0,2.4202,2.4824,2.6167,2.6215,2.6312,2.6504,2.7067,2.7542,2.7908,2.8678,2.9244,2.9612,2.9806,0.0,0.0,0.0,0.0,2.984,2.9362,2.9139,2.9036,2.8942,2.8643,2.8319,2.8698,2.8361,2.7748,2.7748,2.7748,2.7788,2.8099,2.8271,2.8391,2.8471,2.851,2.851,2.851,2.8431,2.8351,2.8351,2.8351,2.8351,2.8351,2.8764,2.9079,2.859,2.8855,2.9381,2.9961,2.9704,2.9701,3.0697,3.0093,2.9461,2.9325,2.8885,2.8587,2.8587,2.8587,2.8587,2.8587,2.8587,2.8532,2.8397,2.7841,2.7244,2.6647,2.6606,2.6321,2.571,2.5683,2.5466,2.5018,2.5453,2.5702,2.5702,2.664,2.7261,2.7515,2.7959,2.8259,2.2197,2.2197,2.2092,2.1749,2.1937,2.2154,2.1956,2.2061,2.2061,2.1588,2.0751,1.9966,1.9453,1.8633,1.8047,1.8062,1.8381,0.0,0.0,0.0,0.0,0.0,0.0,0.0,0.0,0.0,0.0,0.0,0.0,0.0,0.0,2.4538,2.5255,2.6456,2.6829,2.7173,2.7552,2.8164,2.8585,2.8852,2.952,2.9943,3.0216,3.0216,3.0216,0.0,0.0,0.0,3.017,2.9943,2.9784,2.9791,2.9794,2.9433,2.8992,2.9224,2.8805,2.8163,2.8163,2.8163,2.8203,2.8431,2.851,2.851,2.851,2.851,2.851,2.851,2.851,2.851,2.851,2.851,2.851,2.851,2.8961,2.9302,2.8961,2.938,2.9973,3.0582,3.0449,3.0459,3.1186,3.0744,3.0215,2.9944,2.9631,2.9319,2.9034,2.8994,2.8899,2.8627,2.8587,2.8478,2.8207,2.8139,2.7868,2.724,2.7199,2.6928,2.6348,2.6321,2.6172,2.5817,2.6453,2.6891,2.7141,2.8021,2.8598,2.8844,2.9169,2.9335,2.2197,2.2197,2.2197,2.2197,2.2197,2.2197,2.2197,2.2197,2.2197,2.2197,0.0,2.0719,2.0193,1.9506,0.0,0.0,0.0,0.0,0.0,0.0,0.0,0.0,0.0,0.0,0.0,0.0,0.0,0.0,0.0,0.0,0.0,2.506,2.5877,2.6648,2.7258,2.8023,2.8896,2.9301,2.9577,2.9715,3.0125,3.0352,3.0442,3.0442,3.0442,0.0,0.0,0.0,3.0442,3.0352,3.0306,3.0317,3.0313,2.9997,2.9499,2.9451,2.9088,2.8619,2.8546,2.851,2.851,2.851,2.851,2.851,2.851,2.851,2.851,2.851,2.851,2.851,2.851,2.851,2.851,2.851,2.904,2.9535,2.9419,2.9947,3.0582,3.1108,3.1182,3.1235,3.1397,3.1355,3.1124,3.0622,3.0473,3.0215,2.9686,2.9651,2.942,2.879,2.8736,2.8478,2.7895,2.8302,2.837,2.7881,2.7841,2.7583,2.6955,2.6847,2.6793,2.6793,2.744,2.8025,2.8594,2.9233,2.9856,3.0402,3.0402,3.0402,2.2197,2.2197,2.2197,2.2197,2.2197,2.2197,2.2197,2.2197,2.2197,2.2197,2.1526,2.0985,0.0,2.0137,0.0,0.0,0.0,0.0,0.0,0.0,0.0,0.0,0.0,0.0,0.0,0.0,0.0,0.0,0.0,0.0,0.0,2.5868,2.6638,2.74,2.7542,2.8164,2.9393,2.9439,2.9897,3.0668,3.0769,3.1038,3.1484,3.1484,3.1484,3.1484,0.0,3.1484,3.1439,3.0994,3.0814,3.0802,3.0777,3.0481,3.0064,3.0001,2.9629,2.9112,2.8667,2.851,2.851,2.851,2.851,2.851,2.851,2.851,2.851,2.851,2.851,2.851,2.851,2.851,2.851,2.851,2.9341,3.0024,2.9535,3.0279,3.1071,3.1196,3.1182,3.1392,3.1974,3.1626,3.126,3.1178,3.073,3.0378,3.0283,3.0269,3.0025,2.9434,2.9366,2.9135,2.8505,2.8546,2.8546,2.8465,2.8451,2.8193,2.7596,2.7064,2.6793,2.6793,2.7353,2.7953,2.8594,2.9163,2.9773,3.0402,3.0402,3.0402,2.2197,2.2197,2.2197,2.2197,2.2197,2.2197,2.2197,2.2197,2.2197,2.2197,2.1894,0.0,0.0,0.0,0.0,0.0,0.0,0.0,0.0,0.0,0.0,0.0,0.0,0.0,0.0,0.0,0.0,0.0,0.0,0.0,0.0,0.0,2.7352,2.7955,2.8387,2.903,2.987,2.987,3.0232,3.0904,3.1172,3.1439,3.1705,3.1705,3.1705,3.1705,0.0,3.1705,3.1661,3.1439,3.135,3.135,3.135,3.1041,3.0517,3.0205,2.9749,2.9268,2.9027,2.8751,2.851,2.851,2.851,2.851,2.851,2.851,2.851,2.851,2.851,2.851,2.851,2.851,2.851,2.851,2.9419,3.0203,2.9947,3.0859,3.174,3.174,3.174,3.1827,3.2132,3.1951,3.1775,3.1775,3.1544,3.1246,3.0934,3.0893,3.0649,3.0052,2.9672,2.9271,2.8641,2.8587,2.8451,2.8125,2.841,2.8329,2.7732,2.7759,2.7773,2.7773,2.8324,2.8976,2.9624,3.0242,3.0845,3.149,3.149,3.149,2.2197,2.2197,2.2197,2.2197,2.2197,2.2197,2.2197,2.2197,2.2197,2.2197,2.2294,0.0,0.0,0.0,0.0,0.0,0.0,0.0,0.0,0.0,0.0,0.0,0.0,0.0,0.0,0.0,0.0,0.0,0.0,0.0,0.0,0.0,2.8333,2.8538,2.9158,2.9623,3.002,3.002,3.0252,3.0717,3.1113,3.1344,3.1344,3.1464,3.1524,3.1524,3.1657,3.1705,3.1705,3.1705,3.1705,3.1705,3.1705,3.138,3.0874,3.0422,2.9941,2.946,2.934,2.9027,2.8679,2.8546,2.851,2.851,2.851,2.851,2.851,2.851,2.851,2.855,2.8657,2.8697,2.8736,2.8895,2.9755,3.0507,3.0507,3.1394,3.2218,3.2218,3.2218,3.2218,3.2218,3.2218,3.2218,3.2218,3.2218,3.2042,3.1558,3.1504,3.1273,3.069,3.0188,2.9604,2.8858,2.8804,2.8478,2.7759,2.8261,2.8383,2.7936,2.8343,2.8587,2.8587,2.9139,2.9673,3.0269,3.1028,3.1652,3.2188,3.2327,3.2398,2.2197,2.2197,2.2197,2.2197,2.2197,2.2197,2.2197,2.2197,2.2197,2.2197,2.2614,0.0,0.0,0.0,0.0,0.0,0.0,0.0,0.0,0.0,0.0,0.0,0.0,0.0,0.0,0.0,0.0,0.0,0.0,0.0,0.0,0.0,0.0,2.9349,2.9382,2.9406,2.9456,2.9456,2.9692,3.0164,3.0206,3.0206,3.0218,3.0711,3.097,3.1007,3.1488,3.1705,3.1705,3.1705,3.1705,3.1705,3.1705,3.138,3.091,3.0874,3.0482,2.9965,2.9472,2.9268,2.916,2.8667,2.851,2.851,2.851,2.851,2.851,2.851,2.851,2.863,2.9197,2.9341,2.9496,3.0063,3.0658,3.1158,3.1158,3.1703,3.2218,3.2218,3.2218,3.2218,3.2218,3.2218,3.2218,3.2218,3.2218,3.2191,3.2151,3.2151,3.1884,3.13,3.1192,3.069,2.9543,2.9448,2.8926,2.7773,2.8261,2.8573,2.8532,2.8573,2.8587,2.8587,2.894,2.9293,2.9566,3.0554,3.1234,3.1566,3.2132,3.2398,2.2197,2.2197,2.2197,2.2197,2.2197,2.2197,2.2197,2.245,2.271,2.271,2.3099,0.0,0.0,0.0,0.0,0.0,0.0,0.0,0.0,0.0,0.0,0.0,0.0,0.0,0.0,0.0,0.0,0.0,0.0,0.0,0.0,0.0,0.0,2.9389,2.9389,2.9402,2.9344,2.9344,2.926,2.9112,2.9773,3.0086,3.0098,3.029,3.0386,3.041,3.0995,3.1211,3.1247,3.1573,3.1705,3.1705,3.1705,3.1585,3.1404,3.1404,3.1079,3.0506,2.9965,2.9581,2.9208,2.8679,2.851,2.851,2.851,2.851,2.851,2.851,2.851,2.863,2.9223,2.9419,2.9561,3.0177,3.0771,3.1182,3.1182,3.174,3.2218,3.2218,3.2218,3.2218,3.2218,3.2218,3.2218,3.2218,3.2218,3.2218,3.2218,3.2218,3.2123,3.187,3.1504,3.0961,3.012,2.9733,2.9325,2.8831,2.8668,2.8424,2.8058,2.8397,2.8587,2.8587,2.8716,2.9135,2.9827,3.0495,3.1204,3.1951,3.2484,3.2718,2.2197,2.2197,2.2197,2.2197,2.2318,2.2438,2.2438,2.2758,2.3059,2.3228,2.364,2.4218,2.4891,0.0,0.0,0.0,0.0,0.0,0.0,0.0,0.0,0.0,0.0,0.0,0.0,0.0,0.0,0.0,0.0,0.0,0.0,0.0,0.0,0.0,2.9373,2.9291,2.9051,2.9051,2.8871,2.8522,2.9244,2.9593,2.9593,2.9761,2.9833,2.9869,3.0398,3.0669,3.0694,3.1055,3.1308,3.1476,3.1645,3.1705,3.1705,3.1705,3.1476,3.1091,3.0518,2.9989,2.946,2.8931,2.8643,2.851,2.851,2.851,2.851,2.851,2.851,2.863,2.9223,2.9523,2.9832,3.0431,3.1046,3.1505,3.1505,3.1863,3.2218,3.2218,3.2218,3.2218,3.2218,3.2218,3.2218,3.2218,3.2218,3.2218,3.2218,3.2218,3.2218,3.2218,3.1816,3.1327,3.0744,3.0296,3.0004,2.9781,2.9387,2.8804,2.8017,2.837,2.8587,2.8587,2.8683,2.9008,2.9563,3.0435,3.116,3.1766,3.2539,3.2897,2.2197,2.2197,2.2197,2.2197,2.2582,2.3011,2.3023,2.3023,2.318,2.371,2.4181,2.4855,2.5901,0.0,0.0,0.0,0.0,0.0,0.0,0.0,0.0,0.0,0.0,0.0,0.0,0.0,0.0,0.0,0.0,0.0,0.0,0.0,0.0,0.0,2.9292,2.9039,2.8522,2.851,2.851,2.851,2.851,2.851,2.8522,2.9051,2.9292,2.9316,2.9845,3.0074,3.0074,3.0086,3.0398,3.0927,3.1488,3.1705,3.1705,3.1705,3.1705,3.1633,3.1103,3.053,3.0001,2.9472,2.8943,2.851,2.851,2.851,2.851,2.851,2.851,2.863,2.9223,2.9832,3.0431,3.1084,3.1703,3.2218,3.2218,3.2218,3.2218,3.2218,3.2218,3.2218,3.2218,3.2218,3.2218,3.2218,3.2218,3.2218,3.2218,3.2218,3.2218,3.2218,3.2218,3.1938,3.1355,3.13,3.1042,3.0459,3.0405,2.9862,2.8655,2.86,2.86,2.86,2.894,2.894,2.8619,3.0359,3.1043,3.0748,3.2231,3.2897,2.2197,2.2197,0.0,2.2197,0.0,0.0,2.3493,2.3809,2.4218,0.0,2.5264,2.5721,2.6045,0.0,0.0,0.0,0.0,0.0,0.0,0.0,0.0,0.0,0.0,0.0,0.0,0.0,0.0,0.0,0.0,0.0,0.0,0.0,0.0,0.0,2.8751,2.8667,2.851,2.851,2.851,2.851,2.851,2.851,2.8522,2.8679,2.8751,2.8775,2.9304,2.9532,2.9556,2.9929,3.0398,3.0934,3.1091,3.138,3.1705,3.1705,3.1705,3.1633,3.1103,3.053,3.0001,2.9472,2.8943,2.851,2.851,2.851,2.851,2.851,2.851,2.863,2.9223,2.9832,3.0431,3.1084,3.1703,3.2218,3.2218,3.2218,3.2218,3.2218,3.2218,3.2218,3.2218,3.2218,3.2218,3.2218,3.2218,3.2218,3.2218,3.2218,3.2218,3.2218,3.2218,3.2151,3.1938,3.1531,3.1219,3.1042,3.0635,3.0242,2.9889,2.9442,2.9343,2.9572,2.9256,2.9162,2.932,3.0689,3.129,3.1217,3.2547,3.3176,2.2197,2.2197,0.0,2.245,2.2939,2.3517,2.4218,0.0,0.0,0.0,0.0,2.6226,0.0,0.0,0.0,0.0,0.0,0.0,0.0,0.0,0.0,0.0,0.0,0.0,0.0,0.0,0.0,0.0,0.0,0.0,0.0,0.0,0.0,0.0,2.851,2.851,2.851,2.851,2.851,2.851,2.851,2.851,2.851,2.851,2.851,2.8522,2.8847,2.8979,2.9027,2.9556,2.9965,3.029,3.0711,3.1115,3.1428,3.1633,3.1705,3.1657,3.1344,3.0742,3.0037,2.9713,2.9112,2.851,2.851,2.851,2.851,2.851,2.851,2.863,2.9223,2.9832,3.0431,3.1084,3.1703,3.2218,3.2218,3.2218,3.2218,3.2218,3.2218,3.2218,3.2218,3.2218,3.2218,3.2218,3.2218,3.2218,3.2218,3.2218,3.2218,3.2218,3.2218,3.2218,3.2218,3.1857,3.1653,3.1653,3.1314,3.111,3.111,3.0419,3.0156,3.0356,3.016,3.0269,3.0668,3.1691,3.2286,3.2535,3.3618,3.413,2.2197,2.2197,2.2318,2.2879,2.3445,0.0,2.5083,2.5312,2.5456,2.5985,0.0,0.0,0.0,0.0,0.0,0.0,0.0,0.0,0.0,0.0,0.0,0.0,0.0,0.0,0.0,0.0,0.0,0.0,0.0,0.0,0.0,0.0,0.0,2.851,2.851,2.851,2.851,2.851,2.851,2.851,2.851,2.851,2.851,2.851,2.851,2.851,2.851,2.851,2.8546,2.9027,2.9256,2.94,3.035,3.0826,3.097,3.1452,3.1669,3.1705,3.1657,3.097,3.0074,3.0025,2.9328,2.851,2.851,2.851,2.851,2.859,2.859,2.8736,2.938,2.9986,3.0545,3.1158,3.1776,3.2218,3.2218,3.2218,3.2218,3.2218,3.2218,3.2218,3.2218,3.2218,3.2218,3.2218,3.2218,3.2218,3.2218,3.2218,3.2218,3.2218,3.2218,3.2218,3.2218,3.2218,3.2218,3.2218,3.2218,3.2218,3.2218,3.1405,3.0991,3.1025,3.1371,3.1823,3.2359,3.3102,3.3713,3.4206,3.5023,3.5394,2.2197,2.2197,0.0,0.0,2.3676,2.453,2.5155,2.5312,2.5456,0.0,0.0,0.0,0.0,0.0,0.0,0.0,0.0,0.0,0.0,0.0,0.0,0.0,0.0,0.0,0.0,0.0,0.0,0.0,0.0,0.0,0.0,0.0,0.0,2.851,2.851,2.851,2.851,2.851,2.851,0.0,2.851,2.851,2.851,2.851,2.851,2.851,2.851,2.851,2.8522,2.8631,2.8931,2.9316,2.9544,3.0146,3.0891,3.1043,3.1356,3.1645,3.1235,3.0669,3.0013,2.9605,2.9027,2.851,2.851,2.851,2.859,2.9079,2.9223,2.9457,3.0545,3.0921,3.1158,3.1827,3.2096,3.2218,3.2218,3.2218,3.2218,3.2218,3.2218,3.2218,3.2218,3.2218,3.2218,3.2218,3.2218,3.2218,3.2218,3.2218,3.2218,3.2218,3.2218,3.2218,3.2218,3.2218,3.2218,3.2218,3.2218,3.2218,3.2218,3.1803,3.1736,3.199,3.1929,3.2148,3.2694,3.3425,3.3939,3.4206,3.5023,3.5394,2.2258,2.2197,0.0,2.3192,0.0,2.4975,2.5252,2.5312,0.0,0.0,0.0,0.0,0.0,0.0,0.0,0.0,0.0,0.0,0.0,0.0,0.0,0.0,0.0,0.0,0.0,0.0,0.0,0.0,0.0,0.0,0.0,2.851,2.851,2.851,2.851,2.851,2.851,2.851,2.851,2.851,2.851,2.851,2.851,2.851,2.851,2.851,2.851,2.851,2.851,2.851,2.8679,2.8943,2.9196,2.9785,3.053,3.0826,3.1247,3.1633,3.1103,3.053,3.0001,2.9472,2.8943,2.851,2.851,2.851,2.863,2.9223,2.9419,2.9678,3.0884,3.1182,3.1381,3.2059,3.2218,3.2218,3.2218,3.2218,3.2218,3.2218,3.2218,3.2218,3.2218,3.2218,3.2218,3.2218,3.2218,3.2218,3.2218,3.2218,3.2218,3.2218,3.2336,3.2444,3.2444,3.2624,3.2731,3.2731,3.2731,3.2731,3.2731,3.2765,3.2757,3.2792,3.2823,3.3219,3.3938,3.4319,3.4819,3.5414,3.5833,3.6171,2.245,2.2402,2.2678,2.3589,2.4542,0.0,2.5312,2.5312,0.0,0.0,0.0,0.0,0.0,0.0,0.0,0.0,0.0,0.0,0.0,0.0,0.0,0.0,0.0,0.0,0.0,0.0,0.0,0.0,0.0,0.0,2.851,2.851,2.851,2.851,2.851,2.851,2.851,2.851,2.851,2.851,2.851,2.851,2.851,2.851,2.851,2.851,2.851,2.851,2.851,2.851,2.851,2.8558,2.8991,2.9484,3.0013,3.0543,3.1115,3.15,3.097,3.0446,2.9989,2.9364,2.8871,2.851,2.851,2.851,2.8669,2.9341,2.9574,2.9832,3.1046,3.1381,3.1505,3.2059,3.2218,3.2218,3.2218,3.2218,3.2218,3.2218,3.2218,3.2218,3.2218,3.2218,3.2218,3.2218,3.2218,3.2218,3.2218,3.2218,3.2218,3.2218,3.2444,3.2632,3.2704,3.3023,3.3234,3.3304,3.3304,3.3304,3.3304,3.3563,3.3632,3.3374,3.3736,3.4337,3.5201,3.5201,3.5688,3.6554,3.6662,3.6938,2.2959,0.0,2.3625,0.0,2.4542,2.5312,0.0,0.0,0.0,0.0,0.0,0.0,0.0,0.0,0.0,0.0,0.0,0.0,0.0,0.0,0.0,0.0,0.0,0.0,0.0,0.0,0.0,0.0,0.0,0.0,2.851,2.851,2.851,2.851,2.851,2.851,2.851,2.851,2.851,2.851,2.851,2.851,2.851,2.851,2.851,2.851,2.851,2.851,2.851,2.851,2.851,2.8522,2.8595,2.8931,2.946,3.0001,3.053,3.0946,3.0374,3.0146,2.9917,2.8931,2.857,2.851,2.851,2.851,2.8736,2.9871,3.0177,3.0482,3.1753,3.2059,3.2096,3.2182,3.2218,3.2218,3.2218,3.2218,3.2218,3.2218,3.2218,3.2218,3.2218,3.2218,3.2218,3.2218,3.2218,3.2218,3.2218,3.2218,3.2218,3.2218,3.2241,3.2372,3.2668,3.2739,3.2917,3.3269,3.3304,3.3304,3.3304,3.3339,3.3479,3.3736,3.4128,3.462,3.5201,3.5201,3.5479,3.6023,3.6476,3.6754,2.3692,2.3691,2.3866,0.0,2.453,2.4939,2.524,0.0,0.0,0.0,0.0,0.0,0.0,0.0,0.0,0.0,0.0,0.0,0.0,0.0,0.0,0.0,0.0,0.0,0.0,0.0,0.0,0.0,0.0,2.851,2.851,2.851,2.851,2.851,2.851,2.851,2.851,2.851,2.851,2.851,2.851,2.851,2.851,2.851,2.851,2.851,2.851,2.851,2.851,2.851,2.851,2.851,2.851,2.9015,2.9773,3.0001,3.0645,3.1284,3.0711,3.053,3.035,2.9304,2.8955,2.8895,2.8595,2.851,2.8736,2.9947,3.0279,3.0595,3.1863,3.2218,3.2218,3.2218,3.2218,3.2218,3.2218,3.2218,3.2218,3.2218,3.2218,3.2218,3.2218,3.2218,3.2218,3.2218,3.2218,3.2218,3.2218,3.2218,3.2218,3.2218,3.2372,3.2538,3.2704,3.3094,3.3374,3.3563,3.3805,3.3908,3.3908,3.3908,3.3991,3.4128,3.4094,3.4283,3.4754,3.4754,3.5004,3.5512,3.5752,3.6164,0.0,0.0,2.4026,2.4466,2.4599,2.4697,0.0,0.0,0.0,0.0,0.0,0.0,0.0,0.0,0.0,0.0,0.0,0.0,0.0,0.0,0.0,0.0,0.0,0.0,0.0,0.0,0.0,0.0,0.0,2.851,2.851,2.851,2.851,2.851,2.851,2.851,2.851,2.851,2.851,2.851,2.851,2.851,2.851,2.851,2.851,2.851,2.851,2.851,2.851,2.851,2.851,2.851,2.851,2.9076,2.9905,3.0037,3.0675,3.1452,3.1055,3.0922,3.0766,2.9797,2.9523,2.9452,2.9052,2.8846,2.8961,3.0012,3.0279,3.0545,3.1666,3.2059,3.2259,3.2395,3.2436,3.2395,3.2246,3.2218,3.2218,3.2218,3.2327,3.2436,3.2436,3.2521,3.263,3.263,3.2508,3.2472,3.2532,3.2432,3.2386,3.2458,3.2717,3.2881,3.2988,3.3479,3.3839,3.3942,3.423,3.4414,3.4414,3.4414,3.4414,3.4414,3.4128,3.4094,3.4414,3.4414,3.4601,3.5019,3.5136,3.5591,0.0,2.4267,0.0,2.4716,2.4769,0.0,0.0,0.0,0.0,0.0,0.0,0.0,0.0,0.0,0.0,0.0,0.0,0.0,0.0,0.0,0.0,0.0,0.0,0.0,0.0,0.0,0.0,0.0,0.0,2.851,2.851,2.851,2.851,2.851,2.851,2.851,2.851,2.851,2.851,2.851,2.851,2.851,2.851,2.851,2.851,2.851,2.851,2.851,2.851,2.851,2.851,2.851,2.851,2.8847,2.94,2.9905,3.0446,3.0958,3.0922,3.0922,3.0826,3.023,3.0102,3.0146,3.0121,2.975,2.9496,3.0139,3.0279,3.0431,3.1071,3.174,3.2354,3.2925,3.3047,3.2898,3.2327,3.2218,3.2218,3.2218,3.2667,3.3047,3.3047,3.3485,3.3813,3.3813,3.3376,3.3159,3.3487,3.3027,3.281,3.3199,3.3269,3.3409,3.3736,3.377,3.3942,3.4346,3.438,3.4414,3.4414,3.4414,3.4414,3.4414,3.438,3.438,3.4414,3.4414,3.4414,3.4433,3.4953,3.5234,0.0,0.0,0.0,2.4801,2.4815,0.0,0.0,0.0,0.0,0.0,0.0,0.0,0.0,0.0,0.0,0.0,0.0,0.0,0.0,0.0,0.0,0.0,0.0,0.0,0.0,0.0,0.0,0.0,0.0,0.0,2.851,2.851,2.851,2.851,2.851,2.851,2.851,2.851,2.851,2.851,2.851,2.851,2.851,2.851,2.851,2.851,2.851,2.851,2.851,2.851,2.851,2.851,2.851,2.8835,2.9364,2.9893,3.0422,3.097,3.1308,3.1428,3.1344,3.0814,3.0628,3.0692,3.0737,3.0652,3.0703,3.1733,3.2045,3.2161,3.2789,3.3106,3.3363,3.358,3.3634,3.3528,3.3325,3.3271,3.3271,3.3271,3.3485,3.3634,3.3634,3.3772,3.3908,3.3908,3.3731,3.3522,3.3315,3.3276,3.3204,3.2959,3.3164,3.3339,3.3479,3.3667,3.3874,3.4025,3.4264,3.4414,3.4414,3.4414,3.4414,3.4414,3.4414,3.4414,3.4414,3.4414,3.4414,3.4414,3.4601,3.4887,2.6305,0.0,0.0,0.0,0.0,0.0,0.0,0.0,0.0,0.0,0.0,0.0,0.0,0.0,0.0,0.0,0.0,0.0,0.0,0.0,0.0,0.0,0.0,0.0,0.0,0.0,0.0,0.0,0.0,0.0,2.851,2.851,2.851,2.851,2.851,2.851,2.851,2.851,2.851,2.851,2.851,2.851,2.851,2.851,2.851,2.851,2.851,2.851,2.851,2.851,2.851,2.851,2.851,2.8835,2.9364,2.9893,3.058,3.1284,3.1612,3.1837,3.1952,3.1339,3.1184,3.1223,3.1306,3.1389,3.1605,3.2421,3.283,3.3079,3.3508,3.4018,3.4399,3.4244,3.4485,3.4712,3.4543,3.4192,3.3908,3.3908,3.407,3.4206,3.4206,3.4498,3.4751,3.4751,3.4689,3.4516,3.4118,3.4011,3.3848,3.3407,3.3536,3.3667,3.3667,3.3874,3.3991,3.3991,3.423,3.4414,3.4414,3.4414,3.4414,3.4414,3.4414,3.4414,3.4414,3.4414,3.4414,3.4414,3.4414,3.4601,0.0,0.0,0.0,0.0,0.0,0.0,0.0,0.0,0.0,0.0,0.0,0.0,0.0,0.0,0.0,0.0,0.0,0.0,0.0,0.0,0.0,0.0,0.0,0.0,0.0,0.0,0.0,0.0,0.0,2.851,2.851,2.851,2.851,2.851,2.851,2.851,2.851,2.851,2.851,2.851,2.851,2.851,2.851,2.851,2.851,2.851,2.851,2.851,2.851,2.851,2.851,2.851,2.851,2.8823,2.934,2.9893,3.0851,3.1861,3.1763,3.2189,3.2624,3.1969,3.1779,3.1849,3.1849,3.1962,3.2087,3.2087,3.2579,3.308,3.308,3.429,3.5402,3.4973,3.5634,3.6272,3.5844,3.4814,3.3962,3.3962,3.4423,3.4816,3.4816,3.5675,3.6391,3.6405,3.6217,3.6093,3.5989,3.5342,3.4825,3.4725,3.4565,3.4443,3.4443,3.4428,3.4414,3.4414,3.4414,3.4414,3.4414,3.4414,3.4414,3.4414,3.4414,3.4414,3.4414,3.4414,3.4414,3.4414,3.4414,3.4414,2.6499,0.0,0.0,0.0,0.0,0.0,2.5348,2.5373,0.0,0.0,0.0,0.0,0.0,0.0,0.0,0.0,0.0,0.0,0.0,0.0,0.0,0.0,0.0,0.0,0.0,0.0,0.0,0.0,2.851,2.851,2.851,2.851,2.851,2.851,2.851,2.851,2.851,2.851,2.851,2.851,2.851,2.851,2.851,2.851,2.851,2.851,2.851,2.851,2.851,2.851,2.851,2.851,2.851,2.8595,2.8835,2.9749,3.0619,3.1448,3.2161,3.2871,3.33,3.2624,3.2771,3.3174,3.3174,3.3534,3.4052,3.4553,3.4808,3.4942,3.4942,3.5556,3.6103,3.5984,3.6411,3.6797,3.6665,3.614,3.5605,3.5275,3.5317,3.5425,3.5425,3.5695,3.6018,3.6351,3.6371,3.625,3.6097,3.6145,3.5982,3.5525,3.5278,3.5131,3.5131,3.4675,3.4414,3.4414,3.4414,3.4414,3.4414,3.4414,3.4414,3.4414,3.4414,3.4414,3.4414,3.4414,3.4414,3.4414,3.4414,3.4414,2.6499,2.6499,2.6411,0.0,0.0,0.0,2.5551,2.5526,2.5571,0.0,0.0,0.0,0.0,0.0,0.0,0.0,0.0,0.0,0.0,0.0,0.0,0.0,0.0,0.0,0.0,0.0,0.0,2.781,2.8053,2.827,2.8498,2.851,2.851,2.851,2.851,2.851,2.851,2.851,2.851,2.851,2.851,2.851,2.851,2.851,2.851,2.851,2.851,2.851,2.851,2.851,2.851,2.851,2.851,2.851,2.8643,2.9701,3.0687,3.1634,3.2399,3.3343,3.4008,3.3343,3.3386,3.3641,3.3386,3.3966,3.4716,3.484,3.5263,3.571,3.571,3.6058,3.6405,3.6405,3.6693,3.6978,3.6978,3.6797,3.6536,3.6098,3.5844,3.571,3.571,3.5844,3.6098,3.6365,3.6707,3.6802,3.6501,3.6726,3.6739,3.6219,3.5942,3.5683,3.5421,3.5058,3.4704,3.4428,3.4414,3.4414,3.4414,3.4414,3.4414,3.4414,3.4414,3.4414,3.4414,3.4414,3.4414,3.4414,3.4414,3.4414,2.6499,2.6499,2.6499,0.0,0.0,0.0,2.6015,2.5828,2.5606,0.0,0.0,0.0,0.0,0.0,0.0,0.0,0.0,0.0,0.0,0.0,0.0,0.0,0.0,0.0,0.0,2.6861,2.6898,2.6898,2.733,2.7861,2.839,2.8426,2.845,2.851,2.851,2.851,2.851,2.851,2.851,2.851,2.851,2.851,2.851,2.851,2.851,2.851,2.851,2.851,2.851,2.851,2.851,2.851,2.851,2.851,2.8643,2.9701,3.0881,3.2081,3.2527,3.3543,3.4509,3.3882,3.3755,3.3713,3.3086,3.3797,3.4716,3.4134,3.484,3.5804,3.5831,3.6178,3.651,3.651,3.685,3.7134,3.7134,3.7109,3.6954,3.6589,3.6178,3.5831,3.5831,3.6178,3.647,3.651,3.7123,3.7495,3.7173,3.729,3.7257,3.6894,3.6591,3.6185,3.5668,3.5552,3.5232,3.4559,3.4516,3.4486,3.4414,3.4414,3.4414,3.4414,3.4414,3.4414,3.4414,3.4414,3.4414,3.4414,3.4414,3.4414,0.0,0.0,0.0,0.0,0.0,0.0,2.6396,2.6223,2.6062,0.0,0.0,0.0,0.0,0.0,0.0,0.0,0.0,0.0,0.0,0.0,0.0,0.0,0.0,0.0,0.0,2.6633,2.6898,2.6898,2.6994,2.7282,2.7849,2.7846,2.8065,2.8498,2.851,2.851,2.851,2.851,2.851,2.851,2.851,2.851,2.851,2.851,2.851,2.851,2.851,2.851,2.851,2.851,2.851,2.851,2.851,2.851,2.8643,2.9701,3.0604,3.1442,3.2368,3.3215,3.3882,3.3755,3.405,3.4468,3.4343,3.4881,3.5548,3.5804,3.6058,3.6351,3.6665,3.707,3.7356,3.7356,3.7687,3.7976,3.7976,3.7711,3.7457,3.7394,3.7031,3.6744,3.6744,3.6836,3.6993,3.7317,3.751,3.7687,3.7938,3.7988,3.7991,3.7916,3.744,3.707,3.6939,3.6431,3.5851,3.5247,3.5203,3.4951,3.4428,3.4414,3.4414,3.4414,3.4414,3.4414,3.4414,3.4414,3.4414,3.4414,3.4414,3.4414,0.0,0.0,0.0,2.6499,0.0,0.0,0.0,2.627,2.6166,0.0,0.0,0.0,0.0,0.0,0.0,0.0,0.0,0.0,0.0,0.0,0.0,0.0,0.0,0.0,0.0,2.5925,2.6189,2.6502,2.6514,2.6863,2.7681,2.7678,2.7969,2.8498,2.851,2.851,2.851,2.851,2.851,2.851,2.851,2.851,2.851,2.851,2.851,2.851,2.851,2.851,2.851,2.851,2.851,2.851,2.851,2.8657,2.9096,3.0212,3.1005,3.1729,3.2824,3.3428,3.3713,3.3713,3.4134,3.4634,3.4301,3.4675,3.5386,3.6192,3.6405,3.651,3.6915,3.7148,3.7341,3.7534,3.7763,3.7953,3.8165,3.8052,3.7915,3.7915,3.7749,3.7481,3.707,3.6978,3.707,3.7264,3.7457,3.7649,3.7877,3.8089,3.8202,3.8202,3.7941,3.7636,3.7331,3.6997,3.6533,3.588,3.5836,3.5691,3.5372,3.5053,3.4733,3.4428,3.4414,3.4414,3.4414,3.4414,3.4414,3.4414,3.4414,3.4414,0.0,0.0,0.0,0.0,0.0,2.6624,0.0,0.0,0.0,0.0,0.0,0.0,0.0,0.0,0.0,0.0,0.0,0.0,0.0,0.0,0.0,0.0,0.0,0.0,0.0,2.5312,2.548,2.5913,2.5949,2.637,2.7356,2.7474,2.7774,2.8342,2.8462,2.851,2.851,2.851,2.851,2.851,2.851,2.851,2.851,2.851,2.851,2.851,2.851,2.851,2.851,2.851,2.851,2.851,2.851,2.8816,2.9347,3.0524,3.1342,3.2096,3.3049,3.3652,3.3953,3.3911,3.4426,3.4922,3.4384,3.4551,3.5127,3.6218,3.651,3.6628,3.7109,3.7211,3.7289,3.7649,3.7739,3.7801,3.8127,3.8202,3.8202,3.8202,3.8202,3.8014,3.7327,3.7211,3.7211,3.7211,3.7534,3.7739,3.7739,3.8014,3.8202,3.8202,3.8202,3.7999,3.752,3.7476,3.7201,3.6533,3.6504,3.6446,3.6315,3.5741,3.516,3.4603,3.4472,3.4414,3.4414,3.4414,3.4414,3.4414,3.4414,3.4414,0.0,0.0,0.0,0.0,2.6939,0.0,0.0,0.0,0.0,0.0,0.0,0.0,0.0,0.0,0.0,0.0,0.0,0.0,0.0,0.0,0.0,0.0,0.0,0.0,0.0,0.0,2.5336,2.5396,2.5396,2.5661,2.625,2.6717,2.7234,2.775,2.827,2.851,2.851,2.851,2.851,2.851,2.851,2.851,2.851,2.851,2.851,2.851,2.851,2.851,2.851,2.851,2.851,2.851,2.851,2.855,2.873,2.9862,3.0894,3.1777,3.2164,3.3418,3.4828,3.4622,3.5318,3.6192,3.6112,3.5844,3.575,3.6665,3.6915,3.7109,3.7863,3.8052,3.8089,3.8127,3.8127,3.8127,3.8202,3.8202,3.8202,3.8202,3.8202,3.8165,3.8089,3.8052,3.8052,3.8052,3.8089,3.8127,3.8127,3.8165,3.8202,3.8202,3.8202,3.8173,3.8101,3.8101,3.7839,3.723,3.7201,3.6925,3.633,3.5741,3.5363,3.529,3.4704,3.4414,3.4414,3.4414,3.4414,3.4414,3.4414,3.4414,0.0,0.0,0.0,0.0,0.0,0.0,0.0,0.0,2.7417,0.0,0.0,0.0,0.0,0.0,0.0,0.0,0.0,0.0,0.0,0.0,0.0,0.0,0.0,0.0,0.0,0.0,0.0,0.0,0.0,2.554,2.6069,2.6597,2.7138,2.7666,2.8234,2.851,2.851,2.851,2.851,2.851,2.851,2.851,2.851,2.851,2.851,2.851,2.851,2.851,2.851,2.8618,2.8657,2.8697,2.8816,2.8934,2.9101,2.9948,3.0952,3.1952,3.2403,3.3449,3.4692,3.5278,3.579,3.623,3.664,3.6601,3.6587,3.7187,3.7341,3.7495,3.8052,3.8202,3.8202,3.8202,3.8202,3.8202,3.8202,3.8202,3.8202,3.8202,3.8202,3.8202,3.8202,3.8202,3.8202,3.8202,3.8202,3.8202,3.8202,3.8202,3.8202,3.8202,3.8202,3.8202,3.8202,3.8202,3.8086,3.7839,3.7825,3.7549,3.6925,3.6635,3.6315,3.5923,3.5648,3.5328,3.5,3.5,3.4777,3.4414,3.4414,3.4414,2.7657,0.0,0.0,0.0,0.0,0.0,0.0,0.0,0.0,0.0,0.0,0.0,0.0,0.0,0.0,2.668,0.0,0.0,0.0,0.0,0.0,0.0,0.0,0.0,0.0,0.0,0.0,0.0,0.0,2.548,2.5865,2.6406,2.691,2.745,2.7978,2.8366,2.851,2.851,2.851,2.851,2.851,2.851,2.851,2.851,2.851,2.851,2.851,2.851,2.851,2.8657,2.887,2.9133,2.9302,2.96,3.0024,3.0168,3.1015,3.2121,3.2647,3.3731,3.5047,3.6201,3.6545,3.652,3.7017,3.7109,3.707,3.7495,3.7625,3.7687,3.8089,3.8202,3.8202,3.8202,3.8202,3.8202,3.8202,3.8202,3.8202,3.8202,3.8202,3.8202,3.8202,3.8202,3.8202,3.8202,3.8202,3.8202,3.8202,3.8202,3.8202,3.8202,3.8202,3.8202,3.8202,3.8202,3.8202,3.8202,3.8202,3.8014,3.7564,3.7404,3.707,3.6591,3.6402,3.6083,3.5654,3.5654,3.5299,3.4675,3.4501,3.4414,0.0,0.0,0.0,2.9006,0.0,0.0,0.0,0.0,2.8266,0.0,0.0,0.0,0.0,0.0,2.7321,2.6771,2.7151,0.0,0.0,0.0,0.0,0.0,0.0,0.0,0.0,0.0,0.0,0.0,0.0,0.0,2.5336,2.5829,2.6382,2.691,2.7438,2.7993,2.8498,2.851,2.851,2.851,2.851,2.851,2.851,2.851,2.851,2.851,2.851,2.851,2.851,2.851,2.9067,2.9948,2.9948,3.0581,3.1315,3.0381,3.0932,3.2234,3.2581,3.4259,3.6452,3.772,3.7877,3.7534,3.7586,3.7303,3.707,3.7495,3.7625,3.7687,3.8089,3.8202,3.8202,3.8202,3.8202,3.8202,3.8202,3.8202,3.8202,3.8202,3.8202,3.8202,3.8202,3.8202,3.8202,3.8202,3.8202,3.8202,3.8202,3.8202,3.8202,3.8202,3.8202,3.8202,3.8202,3.8202,3.8202,3.8202,3.8202,3.8188,3.8173,3.7622,3.7302,3.7273,3.6635,3.6301,3.6272,3.6272,3.5952,3.5348,3.4704,3.4414,0.0,0.0,2.8598,2.8513,0.0,0.0,0.0,0.0,0.0,0.0,0.0,0.0,0.0,0.0,2.8675,2.801,2.8447,2.8675,0.0,0.0,0.0,0.0,0.0,0.0,0.0,0.0,0.0,0.0,2.5453,0.0,0.0,2.5817,2.6358,2.6873,2.7402,2.7981,2.8498,2.851,2.851,2.851,2.8618,2.8685,2.8685,2.8855,2.8895,2.8895,2.8895,2.8895,2.8895,2.8895,2.9496,3.0418,3.0418,3.1007,3.1806,3.1217,3.1487,3.2376,3.3981,3.5723,3.7275,3.7976,3.8089,3.7991,3.7991,3.7901,3.7825,3.7953,3.7991,3.8014,3.8165,3.8202,3.8202,3.8202,3.8202,3.8202,3.8202,3.8202,3.8202,3.8202,3.8202,3.8202,3.8202,3.8202,3.8202,3.8202,3.8202,3.8202,3.8202,3.8202,3.8202,3.8202,3.8202,3.8202,3.8202,3.8202,3.8202,3.8202,3.8202,3.8202,3.8202,3.8014,3.7897,3.7897,3.768,3.736,3.6968,3.6968,3.6635,3.5981,3.5764,3.5212,2.934,2.9239,0.0,2.9122,2.8929,0.0,3.0379,0.0,0.0,0.0,0.0,0.0,0.0,0.0,2.9062,2.8588,2.9125,2.9515,0.0,2.9237,0.0,0.0,0.0,0.0,0.0,0.0,0.0,2.5676,2.5535,0.0,0.0,0.0,2.6154,2.6873,2.7234,2.775,2.8498,2.851,2.851,2.851,2.8685,2.8791,2.8803,2.9013,2.9091,2.9091,2.9091,2.9091,2.9091,2.9091,2.969,3.0645,3.0908,3.1636,3.2434,3.1915,3.2256,3.3228,3.5006,3.6467,3.7649,3.8052,3.8202,3.8202,3.8202,3.8202,3.8159,3.7941,3.8028,3.8159,3.7941,3.8043,3.8202,3.8202,3.8202,3.8202,3.8202,3.8202,3.8202,3.8202,3.8202,3.8202,3.8202,3.8202,3.8202,3.8202,3.8202,3.8202,3.8202,3.8202,3.8202,3.8202,3.8202,3.8202,3.8202,3.8202,3.8202,3.8202,3.8202,3.8202,3.8202,3.8202,3.8202,3.8202,3.8202,3.8014,3.7622,3.7622,3.7302,3.6664,3.6664,3.5981]}]]